[[{"header":{"parameterUnit":"m.s-1","parameterCategory":1,"la1":30.6,"la2":29.2853,"lo1":-89.7004,"lo2":-87.6739,"dy":0.0162,"dx":0.0183,"nx":112,"ny":82,"refTime":"2024-06-03T06:00:00:Z","depth":0,"parameterNumber":2,"parameterNumberName":"U-component_of_WINDS"},"data":[0.0,0.0,0.0,0.0,0.0,0.0,0.0,0.0,0.0,0.0,0.0,0.0,0.0,0.0,0.0,0.0,0.0,0.0,0.0,0.0,0.0,0.0,0.0,0.0,0.0,0.0,0.0,0.0,0.0,0.0,0.0,0.0,0.0,0.0,0.0,0.0,0.0,0.0,0.0,0.0,0.0,0.0,0.0,0.0,0.0,0.0,0.0,0.0,0.0,0.0,0.0,0.0,0.0,0.0,0.0,0.0,0.0,0.0,0.0,0.0,0.0,0.0,0.0,0.0,0.0,0.0,0.0,0.0,0.0,0.0,0.0,0.0,0.0,0.0,0.0,0.0,0.0,0.0,0.0,0.0,0.0,0.0,0.0,0.0,0.0,0.0,0.0,0.0,0.0,0.0,0.0,-3.6222,-4.0,-4.1932,-4.1242,-4.0158,-3.7334,-3.2333,0.0,0.0,0.0,0.0,0.0,0.0,0.0,0.0,0.0,0.0,0.0,0.0,0.0,0.0,0.0,0.0,0.0,0.0,0.0,0.0,0.0,0.0,0.0,0.0,0.0,0.0,0.0,0.0,0.0,0.0,0.0,0.0,0.0,0.0,0.0,0.0,0.0,0.0,0.0,0.0,0.0,0.0,0.0,0.0,0.0,0.0,0.0,0.0,0.0,0.0,0.0,0.0,0.0,0.0,0.0,0.0,0.0,0.0,0.0,0.0,0.0,0.0,0.0,0.0,0.0,0.0,0.0,0.0,0.0,0.0,0.0,0.0,0.0,0.0,0.0,0.0,0.0,0.0,0.0,0.0,0.0,0.0,0.0,0.0,0.0,0.0,0.0,0.0,0.0,0.0,0.0,0.0,0.0,0.0,0.0,0.0,0.0,0.0,0.0,0.0,0.0,0.0,0.0,0.0,-3.3291,-4.0293,-4.2286,-4.3053,-4.2937,-4.0816,-3.7605,-3.3184,0.0,0.0,0.0,0.0,0.0,0.0,0.0,0.0,0.0,0.0,0.0,0.0,0.0,0.0,0.0,0.0,0.0,0.0,0.0,0.0,0.0,0.0,0.0,0.0,0.0,0.0,0.0,0.0,0.0,0.0,0.0,0.0,0.0,0.0,0.0,0.0,0.0,0.0,0.0,0.0,0.0,0.0,0.0,0.0,0.0,0.0,0.0,0.0,0.0,0.0,0.0,0.0,0.0,0.0,0.0,0.0,0.0,0.0,0.0,0.0,0.0,0.0,0.0,0.0,0.0,0.0,0.0,0.0,0.0,0.0,0.0,0.0,0.0,0.0,0.0,0.0,0.0,0.0,0.0,0.0,0.0,0.0,0.0,0.0,0.0,0.0,0.0,0.0,0.0,0.0,0.0,0.0,0.0,0.0,0.0,0.0,0.0,0.0,0.0,0.0,0.0,0.0,0.0,-3.2559,-3.6239,-4.2086,-4.3479,-4.3827,-4.3324,-4.0971,-3.7682,-3.3378,-2.9819,0.0,0.0,0.0,0.0,0.0,0.0,0.0,0.0,0.0,0.0,0.0,0.0,0.0,0.0,0.0,0.0,0.0,0.0,0.0,0.0,0.0,0.0,0.0,0.0,0.0,0.0,0.0,0.0,0.0,0.0,0.0,0.0,0.0,0.0,0.0,0.0,0.0,0.0,0.0,0.0,0.0,0.0,0.0,0.0,0.0,0.0,0.0,0.0,0.0,0.0,0.0,0.0,0.0,0.0,0.0,0.0,0.0,0.0,0.0,0.0,0.0,0.0,0.0,0.0,0.0,0.0,0.0,0.0,0.0,0.0,0.0,0.0,0.0,0.0,0.0,0.0,0.0,0.0,0.0,0.0,0.0,0.0,0.0,0.0,0.0,0.0,0.0,0.0,0.0,0.0,0.0,0.0,0.0,0.0,0.0,0.0,0.0,0.0,0.0,0.0,0.0,0.0,-3.6671,-3.9224,-4.2899,-4.4253,-4.4446,-4.3401,-4.0771,-3.7444,-3.3378,-2.8698,0.0,0.0,0.0,0.0,0.0,0.0,0.0,0.0,0.0,0.0,0.0,0.0,0.0,0.0,0.0,0.0,0.0,0.0,0.0,0.0,0.0,0.0,0.0,0.0,0.0,0.0,0.0,0.0,0.0,0.0,0.0,0.0,0.0,0.0,0.0,0.0,0.0,0.0,0.0,0.0,0.0,0.0,0.0,0.0,0.0,0.0,0.0,0.0,0.0,0.0,0.0,0.0,0.0,0.0,0.0,0.0,0.0,0.0,0.0,0.0,0.0,0.0,0.0,0.0,0.0,0.0,0.0,0.0,0.0,0.0,0.0,0.0,0.0,0.0,0.0,0.0,0.0,0.0,0.0,0.0,0.0,0.0,0.0,0.0,0.0,0.0,0.0,0.0,0.0,0.0,0.0,0.0,0.0,0.0,0.0,0.0,0.0,0.0,0.0,0.0,0.0,0.0,-3.7522,-4.1235,-4.3092,-4.4755,-4.5065,-4.344,-4.023,-3.682,-3.3339,-2.7615,0.0,0.0,0.0,0.0,0.0,0.0,0.0,0.0,0.0,0.0,0.0,0.0,0.0,0.0,0.0,0.0,0.0,0.0,0.0,0.0,0.0,0.0,0.0,0.0,0.0,0.0,0.0,0.0,0.0,0.0,0.0,0.0,0.0,0.0,0.0,0.0,0.0,0.0,0.0,0.0,0.0,0.0,0.0,0.0,0.0,0.0,0.0,0.0,0.0,0.0,0.0,0.0,0.0,0.0,0.0,0.0,0.0,0.0,0.0,0.0,0.0,0.0,0.0,0.0,0.0,0.0,0.0,0.0,0.0,0.0,0.0,0.0,0.0,0.0,0.0,0.0,0.0,0.0,0.0,0.0,0.0,0.0,0.0,0.0,0.0,0.0,0.0,0.0,0.0,0.0,0.0,0.0,0.0,0.0,0.0,0.0,0.0,0.0,0.0,0.0,0.0,0.0,-3.6716,-4.0306,0.0,-4.4948,-4.5274,-4.3497,-4.1207,-3.7923,-3.3383,0.0,0.0,0.0,0.0,0.0,0.0,0.0,0.0,0.0,0.0,0.0,0.0,0.0,0.0,0.0,0.0,0.0,0.0,0.0,0.0,0.0,0.0,0.0,0.0,0.0,0.0,0.0,0.0,0.0,0.0,0.0,0.0,0.0,0.0,0.0,0.0,0.0,0.0,0.0,0.0,0.0,0.0,0.0,0.0,0.0,0.0,0.0,0.0,0.0,0.0,0.0,0.0,0.0,0.0,0.0,0.0,0.0,0.0,0.0,0.0,0.0,0.0,0.0,0.0,0.0,0.0,0.0,0.0,0.0,0.0,0.0,0.0,0.0,0.0,0.0,0.0,0.0,0.0,0.0,0.0,0.0,0.0,0.0,0.0,0.0,0.0,0.0,0.0,0.0,0.0,0.0,0.0,0.0,0.0,0.0,0.0,0.0,0.0,0.0,0.0,0.0,0.0,-3.2616,-3.6681,-4.0287,0.0,-4.4791,-4.5027,-4.3525,-4.0854,-3.7352,-3.2957,0.0,0.0,0.0,0.0,0.0,0.0,0.0,0.0,0.0,0.0,0.0,0.0,0.0,0.0,0.0,0.0,0.0,0.0,0.0,0.0,0.0,0.0,0.0,0.0,0.0,0.0,0.0,0.0,0.0,0.0,0.0,0.0,0.0,0.0,0.0,0.0,0.0,0.0,0.0,0.0,0.0,0.0,0.0,0.0,0.0,0.0,0.0,0.0,0.0,0.0,0.0,0.0,0.0,0.0,0.0,0.0,0.0,0.0,0.0,0.0,0.0,0.0,0.0,0.0,0.0,0.0,0.0,0.0,0.0,0.0,0.0,0.0,0.0,0.0,0.0,0.0,0.0,0.0,0.0,0.0,0.0,0.0,0.0,0.0,0.0,0.0,0.0,0.0,0.0,0.0,0.0,0.0,0.0,0.0,0.0,0.0,0.0,0.0,0.0,0.0,0.0,0.0,-3.2778,-3.777,-4.1653,-4.3335,-4.4232,-4.437,-4.3476,-3.8688,-3.4621,0.0,0.0,0.0,0.0,0.0,0.0,0.0,0.0,0.0,0.0,0.0,0.0,0.0,0.0,0.0,0.0,0.0,0.0,0.0,0.0,0.0,0.0,0.0,0.0,0.0,0.0,0.0,0.0,0.0,0.0,0.0,0.0,0.0,0.0,0.0,0.0,0.0,0.0,0.0,0.0,0.0,0.0,0.0,0.0,0.0,0.0,0.0,0.0,0.0,0.0,0.0,0.0,0.0,0.0,0.0,0.0,0.0,0.0,0.0,0.0,0.0,0.0,0.0,0.0,0.0,0.0,0.0,0.0,0.0,0.0,0.0,0.0,0.0,0.0,0.0,0.0,0.0,0.0,0.0,0.0,0.0,0.0,0.0,0.0,0.0,0.0,0.0,0.0,0.0,0.0,0.0,0.0,0.0,0.0,0.0,0.0,0.0,0.0,0.0,0.0,0.0,0.0,0.0,-3.2732,-3.7728,-4.1607,-4.3328,-4.4253,-4.4409,-4.3486,-3.981,-3.6154,-3.2919,0.0,0.0,0.0,0.0,0.0,0.0,0.0,0.0,0.0,0.0,0.0,0.0,0.0,0.0,0.0,0.0,0.0,0.0,0.0,0.0,0.0,0.0,0.0,0.0,0.0,0.0,0.0,0.0,0.0,0.0,0.0,0.0,0.0,0.0,0.0,0.0,0.0,0.0,0.0,0.0,0.0,0.0,0.0,0.0,0.0,0.0,0.0,0.0,0.0,0.0,0.0,0.0,0.0,0.0,0.0,0.0,0.0,0.0,0.0,0.0,0.0,0.0,0.0,0.0,0.0,0.0,0.0,0.0,0.0,0.0,0.0,0.0,0.0,0.0,0.0,0.0,0.0,0.0,0.0,0.0,0.0,0.0,0.0,0.0,0.0,0.0,0.0,0.0,0.0,0.0,0.0,0.0,0.0,0.0,0.0,0.0,0.0,0.0,0.0,0.0,0.0,0.0,-3.2801,-3.7746,-4.1614,-4.3332,-4.3934,-4.4011,-4.3442,-3.9913,-3.6256,-3.2803,0.0,0.0,0.0,0.0,0.0,0.0,0.0,0.0,0.0,0.0,0.0,0.0,0.0,0.0,0.0,0.0,0.0,0.0,0.0,0.0,0.0,0.0,0.0,0.0,0.0,0.0,0.0,0.0,0.0,0.0,0.0,0.0,0.0,0.0,0.0,0.0,0.0,0.0,0.0,0.0,0.0,0.0,0.0,0.0,0.0,0.0,0.0,0.0,0.0,0.0,0.0,0.0,0.0,0.0,0.0,0.0,0.0,0.0,0.0,0.0,0.0,0.0,0.0,0.0,0.0,0.0,0.0,0.0,0.0,0.0,0.0,0.0,0.0,0.0,0.0,0.0,0.0,0.0,0.0,0.0,0.0,0.0,0.0,0.0,0.0,0.0,0.0,0.0,0.0,0.0,0.0,0.0,0.0,0.0,0.0,0.0,0.0,0.0,0.0,0.0,0.0,0.0,-3.2953,-3.79,-4.1753,-4.3431,-4.348,-4.3384,-4.3384,-3.9414,-3.551,-3.2256,0.0,0.0,0.0,0.0,0.0,0.0,0.0,0.0,0.0,0.0,0.0,0.0,0.0,0.0,0.0,0.0,0.0,0.0,0.0,0.0,0.0,0.0,0.0,0.0,0.0,0.0,0.0,0.0,0.0,0.0,0.0,0.0,0.0,0.0,0.0,0.0,0.0,0.0,0.0,0.0,0.0,0.0,0.0,0.0,0.0,0.0,0.0,0.0,0.0,0.0,0.0,0.0,0.0,0.0,0.0,0.0,0.0,0.0,0.0,0.0,-3.3621,-3.1814,0.0,0.0,0.0,0.0,0.0,0.0,0.0,0.0,0.0,0.0,0.0,0.0,0.0,0.0,0.0,0.0,0.0,0.0,0.0,0.0,0.0,0.0,0.0,0.0,0.0,0.0,0.0,0.0,0.0,0.0,0.0,0.0,0.0,0.0,0.0,0.0,0.0,0.0,0.0,0.0,-3.372,-3.8636,-4.2437,-4.4181,-4.373,-4.3331,-4.3331,-3.9396,-3.6013,-3.3963,-2.9201,0.0,0.0,0.0,0.0,0.0,0.0,0.0,0.0,0.0,0.0,0.0,0.0,0.0,0.0,0.0,0.0,0.0,0.0,0.0,0.0,0.0,0.0,0.0,0.0,0.0,0.0,0.0,0.0,0.0,0.0,0.0,0.0,0.0,0.0,0.0,0.0,0.0,0.0,0.0,0.0,0.0,0.0,0.0,0.0,0.0,0.0,0.0,0.0,0.0,0.0,0.0,0.0,0.0,0.0,0.0,0.0,0.0,0.0,0.0,-3.7652,-3.546,0.0,0.0,0.0,0.0,0.0,0.0,0.0,0.0,0.0,0.0,0.0,0.0,0.0,0.0,0.0,0.0,0.0,0.0,0.0,0.0,0.0,0.0,0.0,0.0,0.0,0.0,0.0,0.0,0.0,0.0,0.0,0.0,0.0,0.0,0.0,0.0,0.0,0.0,0.0,0.0,-3.4581,-3.9121,-4.2512,-4.3827,-4.3556,-4.3131,-4.2705,-3.9495,-3.6826,-3.5129,-3.0984,0.0,0.0,0.0,0.0,0.0,0.0,0.0,0.0,0.0,0.0,0.0,0.0,0.0,0.0,0.0,0.0,0.0,0.0,0.0,0.0,0.0,0.0,0.0,0.0,0.0,0.0,0.0,0.0,0.0,0.0,0.0,0.0,0.0,0.0,0.0,0.0,0.0,0.0,0.0,0.0,0.0,0.0,0.0,0.0,0.0,0.0,0.0,0.0,0.0,0.0,0.0,0.0,0.0,-4.5,-4.625,-4.7656,-4.75,-4.7812,-4.8163,-4.2264,-4.0193,-4.0739,-3.7377,0.0,0.0,0.0,0.0,0.0,0.0,0.0,0.0,0.0,0.0,0.0,0.0,0.0,0.0,0.0,0.0,0.0,0.0,0.0,0.0,0.0,0.0,-3.6826,-3.5941,-3.7328,-3.7715,-3.3499,0.0,0.0,0.0,0.0,0.0,0.0,0.0,0.0,0.0,0.0,0.0,-3.5702,-3.9702,-4.255,-4.344,-4.3401,-4.2937,-4.2086,-3.9649,-3.756,-3.6013,-3.2841,-2.9631,0.0,0.0,0.0,0.0,0.0,0.0,0.0,0.0,0.0,0.0,0.0,0.0,0.0,0.0,0.0,0.0,0.0,0.0,0.0,0.0,0.0,0.0,0.0,0.0,0.0,0.0,0.0,0.0,0.0,0.0,0.0,0.0,-3.0117,-3.1211,0.0,0.0,0.0,0.0,0.0,0.0,0.0,0.0,0.0,0.0,0.0,0.0,0.0,-4.3945,-4.6211,-4.7969,-4.9297,-5.0234,-5.1875,-5.2773,-5.2969,-5.2187,-5.1871,-5.1845,-5.0165,0.0,-4.5078,-4.2334,0.0,0.0,0.0,0.0,0.0,0.0,0.0,0.0,0.0,0.0,0.0,0.0,0.0,0.0,0.0,0.0,0.0,0.0,0.0,0.0,0.0,0.0,-4.2086,-4.1197,-4.1235,-4.1313,-4.0655,-3.6439,-3.2411,-3.1212,-2.9166,-2.7063,0.0,0.0,0.0,0.0,0.0,0.0,-3.7439,-4.0974,-4.3479,-4.4323,-4.375,-4.2937,-4.2086,-3.9649,-3.7787,-3.6787,-3.4229,-3.1908,-3.0017,-2.6845,0.0,0.0,0.0,0.0,0.0,0.0,0.0,0.0,0.0,0.0,0.0,0.0,0.0,0.0,0.0,0.0,0.0,0.0,0.0,0.0,0.0,0.0,0.0,0.0,0.0,0.0,0.0,0.0,0.0,-2.9687,-3.2617,-3.3516,-3.4453,-3.4531,0.0,0.0,0.0,0.0,0.0,0.0,0.0,0.0,0.0,-4.6172,-4.7891,-4.9766,-5.1914,-5.3164,-5.4219,-5.5078,-5.582,-5.6445,-5.6914,-5.644,-5.6231,-5.6133,-5.5233,-5.3654,-5.1434,-4.693,-4.4079,-4.2316,0.0,0.0,0.0,0.0,-3.8798,-3.8379,-4.1158,-4.1235,-3.9959,-3.8992,0.0,0.0,0.0,0.0,0.0,0.0,0.0,-3.787,-3.8837,-4.1197,-4.3324,-4.344,-4.3827,-4.4136,-4.4136,-4.1738,-3.8754,-3.593,-3.4505,-3.2435,-2.8357,-2.8138,0.0,0.0,0.0,-3.5408,-3.9204,-4.1796,-4.344,-4.3827,-4.3518,-4.2744,-4.1429,-3.9417,-3.8019,-3.7632,-3.524,-3.3073,-3.1371,-2.8934,-2.6188,0.0,0.0,0.0,0.0,0.0,0.0,0.0,0.0,0.0,0.0,0.0,0.0,0.0,0.0,0.0,0.0,0.0,0.0,0.0,0.0,0.0,0.0,0.0,0.0,0.0,0.0,0.0,0.0,-3.2578,-3.5156,-3.6211,-3.8086,-3.8516,0.0,0.0,0.0,0.0,0.0,0.0,-4.3711,-4.6016,-4.8711,-5.1758,-5.3242,-5.4765,-5.6289,-5.6953,-5.7695,-5.8555,-5.8555,-5.8984,-5.9844,-5.9475,-5.9332,-5.9235,-5.8291,-5.7474,-5.64,-5.1092,-4.8243,-4.7033,-4.4882,-4.2974,-4.1706,-4.3827,-4.3672,-4.2905,-4.6264,-4.6457,-4.5065,-4.3982,-4.2628,-4.0926,-3.8141,0.0,0.0,0.0,0.0,-3.9843,-4.139,-4.286,-4.4098,-4.4755,-4.5374,-4.5807,-4.5807,-4.5336,-4.3827,-4.0223,-3.9146,-3.7301,-3.2438,-3.2456,0.0,0.0,0.0,-3.7825,-4.1016,-4.2512,-4.3285,-4.3285,-4.3092,-4.2396,-4.0932,-3.9185,-3.8212,-3.8212,-3.6013,-3.3963,-3.2217,-3.0714,-2.8315,-2.4911,0.0,0.0,0.0,0.0,0.0,0.0,0.0,0.0,0.0,0.0,0.0,0.0,0.0,0.0,0.0,0.0,0.0,0.0,0.0,0.0,0.0,0.0,0.0,0.0,0.0,0.0,0.0,0.0,0.0,-4.0664,-4.3086,0.0,0.0,0.0,0.0,-4.4375,-4.6133,-4.8242,-5.0742,-5.2578,-5.4375,-5.6211,-5.7148,-5.8086,-5.8984,-5.9062,-5.9453,-6.0273,-6.0273,-6.0742,-6.1523,-6.0646,-6.0207,-6.0097,-5.9075,-5.8575,-5.8205,-5.4717,-5.2252,-5.0565,-4.9676,-4.8244,-4.6844,-4.7773,-4.7579,-4.6922,-4.7966,-4.7734,-4.7115,-4.785,-4.5838,-4.2976,-4.2009,-4.0584,0.0,0.0,-4.1777,-4.3247,-4.4168,-4.5026,-4.5691,-4.5729,-4.5768,-4.5807,-4.5807,-4.5768,-4.522,-4.3401,-4.1777,-4.0042,-3.8102,0.0,-3.6909,-3.7638,-3.8649,-4.0242,-4.2821,-4.3247,-4.3285,-4.3285,-4.255,-4.1699,-4.0855,-3.9185,-3.8212,-3.8212,-3.6593,-3.4853,-3.3107,-3.2179,-3.0051,-2.6644,-2.4869,0.0,0.0,0.0,0.0,0.0,0.0,0.0,0.0,0.0,0.0,0.0,0.0,0.0,0.0,0.0,0.0,0.0,0.0,0.0,0.0,0.0,0.0,0.0,0.0,0.0,0.0,0.0,0.0,-4.4258,-4.6758,0.0,-4.6289,-4.7383,-4.8437,-4.9062,-5.125,-5.3203,-5.4687,-5.5859,-5.7305,-5.8984,-5.9336,-5.9922,-6.0781,-6.082,-6.0937,-6.125,-6.125,-6.1406,-6.168,-6.131,-6.1127,-6.1062,-6.0589,-6.0032,-5.939,-5.8172,-5.6295,-5.4031,-5.2685,-5.1409,-5.0488,-5.137,-5.1138,-5.0449,-5.0751,-5.0287,-4.9436,-4.8662,-4.7579,-4.6535,-4.6225,-4.5684,-4.5297,-4.5606,-4.5722,-4.58,-4.6148,-4.5993,-4.5807,-4.5807,-4.5807,-4.5807,-4.5807,-4.5807,-4.5613,-4.5026,-4.402,-4.2512,-4.0268,-4.0036,-3.992,-3.9146,-4.023,-4.1854,-4.3866,-4.413,-4.3904,-4.3363,-4.3015,-4.228,-4.0932,-3.9185,-3.7941,-3.7406,-3.5781,-3.4079,-3.2333,-3.1483,-2.994,-2.758,-2.5878,-2.3206,0.0,0.0,0.0,0.0,0.0,0.0,0.0,0.0,0.0,0.0,0.0,0.0,0.0,0.0,0.0,0.0,0.0,0.0,0.0,0.0,0.0,0.0,0.0,0.0,0.0,0.0,-4.5234,-4.6953,-4.9961,-5.1445,-5.0312,-5.1992,-5.3281,-5.3555,-5.5195,-5.668,-5.7812,-5.8437,-5.9375,-6.0781,-6.0859,-6.1133,-6.168,-6.1719,-6.1719,-6.1719,-6.1719,-6.1719,-6.1719,-6.1623,-6.1596,-6.153,-6.1367,-6.0963,-6.036,-6.0011,-5.8874,-5.7134,-5.5432,-5.4078,-5.3149,-5.373,-5.3382,-5.2655,-5.2655,-5.2066,-5.1099,-4.9707,-4.9049,-4.8778,-4.8508,-4.8392,-4.8392,-4.8392,-4.7966,-4.754,-4.754,-4.6883,-4.6232,-4.6232,-4.6,-4.5807,-4.5807,-4.5807,-4.5807,-4.5807,-4.5374,-4.4485,-4.2789,-4.2937,-4.2899,-4.1783,-4.2557,-4.3711,-4.4871,-4.4755,-4.4284,-4.3401,-4.3053,-4.2318,-4.0932,-3.9185,-3.7941,-3.7367,-3.5472,-3.3731,-3.2295,-3.1178,-2.9785,-2.801,-2.5762,-2.3519,-2.1233,0.0,0.0,0.0,0.0,0.0,0.0,0.0,0.0,0.0,0.0,0.0,0.0,0.0,0.0,0.0,0.0,0.0,0.0,0.0,0.0,0.0,0.0,0.0,-4.2461,-4.4805,-4.7148,-4.8906,-5.2812,-5.4726,-5.3047,-5.5234,-5.707,-5.789,-5.8008,-5.8711,-6.0351,-6.043,-6.082,-6.168,-6.1719,-6.1719,-6.1719,-6.1719,-6.1719,-6.1719,-6.1719,-6.1719,-6.1679,-6.1621,-6.153,-6.1408,-6.1331,-6.1221,-6.105,-6.0267,-5.9919,-5.9725,-5.8023,-5.6321,-5.489,-5.489,-5.431,-5.3536,-5.3536,-5.2956,-5.2105,-5.1215,-5.0395,-4.9629,-4.874,-4.8469,-4.8469,-4.8469,-4.8469,-4.843,-4.843,-4.7773,-4.7115,-4.7115,-4.6464,-4.5845,-4.5807,-4.5807,-4.5807,-4.5807,-4.5807,-4.5807,-4.5807,-4.5807,-4.5807,-4.5807,-4.5807,0.0,-4.5807,-4.5104,-4.4284,-4.344,-4.255,-4.1699,-4.0893,-3.9224,-3.8174,-3.8135,-3.5742,-3.3963,-3.3107,-3.1449,-2.9747,-2.801,-2.4722,-2.3019,-2.2981,0.0,0.0,0.0,0.0,0.0,0.0,0.0,0.0,0.0,0.0,0.0,0.0,0.0,0.0,0.0,0.0,0.0,0.0,0.0,0.0,0.0,0.0,-4.4297,-4.4297,-4.8125,-5.1601,-5.332,-5.5703,-5.7265,-5.7383,-5.8594,-5.9453,-5.9687,-6.0312,-6.0859,-6.1328,-6.1328,-6.1445,-6.168,-6.1719,-6.1719,-6.1719,-6.1719,-6.1719,-6.1719,-6.1632,-6.1621,-6.1621,-6.1527,-6.1439,-6.1408,-6.1331,-6.1281,-6.1229,-6.0911,-6.0422,-5.9803,-5.8681,-5.7559,-5.6622,-5.6622,-5.5702,-5.4426,-5.4426,-5.3884,-5.2995,-5.2144,-5.1679,-5.1331,-5.048,-5.0202,-5.0202,-5.0202,-4.9784,-4.9359,-4.9359,-4.8701,-4.7889,-4.7231,-4.6922,-4.6581,-4.5923,-4.5807,-4.5807,-4.5807,-4.5807,-4.5807,-4.5807,-4.5807,-4.5807,-4.5807,-4.5807,0.0,-4.5807,-4.5613,-4.5142,-4.433,-4.3479,-4.2589,-4.1738,-3.9533,-3.7671,-3.6477,-3.4543,-3.3068,-3.2179,-3.0559,-2.9132,-2.801,-2.6459,-2.5352,0.0,0.0,0.0,0.0,0.0,0.0,0.0,0.0,0.0,0.0,0.0,0.0,0.0,0.0,0.0,0.0,0.0,0.0,0.0,0.0,0.0,0.0,-4.5547,-4.8047,-4.9141,-5.1914,-5.4297,-5.5664,-5.7695,-5.914,-5.9648,-6.0469,-6.0937,-6.0937,-6.1406,-6.1719,-6.1719,-6.1719,-6.1719,-6.1719,-6.1719,-6.1719,-6.1719,-6.1719,-6.1679,-6.1673,-6.1618,-6.1554,-6.1527,-6.1439,-6.1388,-6.1379,-6.1305,-6.1267,-6.1197,-6.1125,-6.0809,-6.0306,0.0,0.0,0.0,0.0,-5.6128,-5.5316,-5.5316,-5.4735,-5.3962,-5.3459,-5.2801,-5.2113,-5.1602,-5.1177,-5.0898,-5.0898,-5.055,-5.0202,-5.0202,-4.9591,-4.8817,-4.8314,-4.7618,-4.696,-4.6464,-4.6078,-4.5807,-4.5807,-4.5807,0.0,-4.5807,-4.5807,-4.5807,-4.5807,-4.5807,-4.5807,-4.5807,-4.5807,-4.549,-4.4671,-4.413,-4.3324,-4.2125,-4.0346,0.0,0.0,0.0,-3.33,-3.1366,-3.0366,0.0,0.0,0.0,0.0,0.0,0.0,0.0,0.0,-2.5168,-2.4953,0.0,0.0,0.0,0.0,0.0,0.0,0.0,0.0,0.0,0.0,0.0,0.0,0.0,0.0,0.0,0.0,-4.9101,-5.2734,-5.5234,-5.5742,-5.6172,-5.6953,-5.9023,-6.043,-6.0547,-6.125,-6.1719,-6.1719,-6.1719,-6.1719,-6.1719,0.0,0.0,0.0,0.0,-6.1679,-6.1679,-6.1678,-6.163,-6.1596,-6.159,-6.1513,-6.1393,-6.1383,-6.1322,-6.1281,-6.1281,-6.1197,-6.1118,-6.1118,-6.1118,-6.1041,-6.019,-5.8874,-5.7318,-5.6467,-5.6081,-5.6012,-5.6012,0.0,0.0,-5.4813,-5.373,-5.2461,-5.2268,-5.1641,-5.1014,-5.0937,-5.0898,-5.0898,-5.0898,-5.0357,-4.9823,-4.9707,-4.8508,-4.7386,-4.727,-4.6581,-4.5962,-4.5962,-4.5884,-4.5807,-4.5807,-4.5807,-4.5807,-4.5807,-4.5807,-4.5807,-4.5807,-4.5807,-4.5529,-4.4794,-4.4632,0.0,-4.228,-4.1313,-4.0075,-3.829,-3.6632,-3.4311,-3.1178,-3.1023,-3.0636,-2.9747,-2.9747,-3.0443,-3.1947,-3.1947,-3.1947,-3.1874,-2.8152,-2.7247,0.0,0.0,0.0,0.0,0.0,0.0,0.0,0.0,0.0,0.0,0.0,0.0,0.0,0.0,0.0,-4.861,-5.2145,-5.5195,-5.7148,-5.8555,-5.9492,-5.9648,-6.0117,-6.0664,-6.1367,-6.1601,-6.1719,-6.1719,-6.1719,-6.1719,-6.1719,-6.1719,-6.1719,-6.1719,-6.1631,-6.1618,-6.1618,-6.1495,-6.1456,-6.1439,-6.1395,0.0,-6.1305,-6.1213,-6.1169,-6.1134,-6.1134,-6.1116,-6.1118,-6.1118,-6.1118,-6.1041,-6.019,-5.9261,-5.8255,-5.7366,-5.6583,-5.6012,-5.6012,-5.5896,-5.5664,-5.5006,-5.4581,-5.4039,-5.2616,-5.2066,0.0,-5.1091,-5.0898,-5.0898,-5.0898,-5.0782,-5.0511,-4.9861,-4.9436,-4.901,-4.8314,-4.7463,-4.6844,-4.6844,-4.6271,-4.5807,-4.5807,-4.5807,-4.5807,-4.5807,-4.5807,-4.5807,-4.5807,-4.5807,-4.5729,-4.5568,-4.4987,-4.4168,-4.3131,-4.1661,-4.0075,-3.829,-3.6632,-3.509,-3.3736,-3.3659,-3.3267,-3.2372,-3.2372,-3.2527,-3.2836,-3.2836,-3.2836,-3.2836,-3.2085,-3.1513,0.0,0.0,0.0,0.0,0.0,0.0,0.0,0.0,0.0,0.0,0.0,-4.1913,0.0,0.0,-4.9526,-5.2103,-5.4422,-5.6632,-5.8819,-5.9842,-6.039,-6.039,-6.0781,-6.1211,-6.164,-6.1719,-6.1719,-6.1719,-6.1719,-6.1719,-6.1719,-6.1676,-6.1631,-6.1631,-6.1554,-6.1517,-6.1517,-6.1435,-6.1388,-6.1367,-6.1305,-6.1267,-6.122,-6.1125,-6.1118,-6.1118,-6.1118,-6.1118,-6.1118,-6.1118,-6.1118,-6.1079,-6.0654,-5.9996,-5.9068,-5.7791,-5.7009,-5.6583,-5.6158,-5.6012,-5.5935,-5.5548,-5.5122,-5.4658,-5.3768,-5.2879,-5.2113,-5.1679,-5.1254,-5.0898,-5.0898,-5.0898,-5.0782,-5.0395,-4.9977,-4.9591,-4.9126,-4.8005,-4.7115,-4.7115,-4.6387,-4.5807,-4.5807,-4.5807,-4.5807,-4.5807,-4.5807,-4.5807,-4.5807,-4.5807,-4.5807,-4.5807,-4.5452,-4.4678,-4.3401,-4.1351,-3.9771,-3.8914,-3.7677,-3.6555,-3.5704,-3.524,-3.4853,-3.4427,-3.3963,-3.3963,-3.4389,-3.4389,-3.4615,-3.5002,-3.5054,-3.4408,0.0,0.0,0.0,0.0,0.0,0.0,0.0,0.0,-3.917,-4.1153,-4.4007,-4.6596,-4.7986,-5.0398,-5.284,-5.4927,-5.6371,-5.7975,-6.0015,-6.0501,-6.0624,-6.0664,-6.1289,-6.1719,-6.1719,-6.1719,-6.1679,-6.1678,-6.1678,-6.1677,-6.1635,-6.1573,-6.1549,-6.1549,-6.1435,-6.1383,-6.1383,-6.1362,-6.1298,-6.1259,-6.1259,-6.1189,-6.1118,-6.1118,-6.1118,-6.1118,-6.1118,-6.1118,-6.1118,-6.1118,-6.1118,-6.1118,-6.1118,-6.0692,-5.9957,-5.8372,-5.7589,-5.7202,-5.6506,-5.6119,-5.6012,-5.6012,-5.5548,-5.5006,-5.4851,-5.3807,-5.2616,-5.2306,-5.1679,-5.1091,-5.0937,-5.0898,-5.0898,-5.0898,-5.0395,-4.9939,-4.9939,-4.8701,-4.754,-4.7386,-4.6651,-4.6,-4.5845,-4.5807,-4.5807,-4.5807,-4.5807,-4.5807,-4.5807,-4.5807,-4.5807,-4.5807,-4.5807,-4.5104,-4.344,-4.1274,-3.9926,-3.9771,-3.8914,-3.8141,-3.7444,-3.6632,-3.6207,-3.6207,-3.551,-3.5472,-3.6207,-3.6207,-3.6516,-3.7135,-3.7135,-3.6448,-3.2565,-3.3924,-3.5781,-3.7367,-3.7787,-3.9146,0.0,0.0,-4.5536,-4.8058,-5.0078,-5.1401,-5.161,-5.3857,-5.5769,-5.6104,-5.825,-6.0017,-6.035,-6.1004,-6.1507,-6.1562,-6.164,-6.1719,-6.1719,-6.1719,-6.1677,-6.1616,-6.1612,-6.1554,-6.1448,-6.1435,-6.1431,-6.1431,-6.1361,-6.1291,-6.1291,-6.1189,-6.1134,-6.1107,-6.1107,-6.1098,-6.1118,-6.1118,-6.1118,-6.1118,-6.1118,-6.1118,-6.1118,-6.1118,-6.1118,-6.1118,-6.1118,-6.1041,-6.0847,-5.9957,-5.8642,-5.728,-5.7202,-5.6661,-5.6012,-5.6012,-5.5935,-5.5741,-5.5006,-5.4658,-5.4194,-5.2655,-5.2152,-5.1873,-5.1091,-5.0898,-5.0898,-5.0898,-5.0821,-5.0782,-5.0782,-5.0055,-4.9165,-4.8392,-4.754,-4.6689,-4.5923,-4.5807,-4.5807,-4.5807,-4.5807,-4.5807,-4.5807,-4.5807,-4.5807,-4.5807,-4.5807,-4.5104,-4.344,-4.2318,-4.1429,-4.07,-3.9849,-3.9307,-3.9191,-3.8373,-3.7903,-3.7903,-3.7825,-3.7825,-3.7903,-3.7903,-3.798,-3.8057,-3.8057,-3.7953,-3.8367,-3.9185,-3.9881,0.0,-4.3401,-4.4794,-4.727,-4.8314,-4.9204,-5.0828,-5.2531,-5.3691,-5.3691,-5.5504,-5.7133,0.0,-5.9118,-6.0428,-6.0921,-6.0867,-6.0783,-6.081,-6.0386,-6.0475,-6.1549,-6.1568,-6.1501,-6.1471,-6.1471,-6.1456,-6.1412,-6.1351,-6.1355,-6.1355,-6.1252,-6.1203,-6.1203,-6.1116,-6.1118,-6.1118,-6.1118,-6.1118,-6.1118,-6.1118,-6.1118,-6.1118,-6.1118,-6.1118,-6.1118,-6.1118,-6.1118,-6.1118,-6.1118,-6.1118,-6.1002,-6.019,-5.9455,-5.8681,-5.7628,-5.7048,-5.6661,-5.6158,-5.6012,-5.5935,-5.5586,-5.5161,-5.4542,-5.3304,-5.2577,-5.1989,-5.113,-5.0898,-5.0898,-5.0898,-5.0898,-5.0898,-5.0898,-5.0279,-4.9436,-4.8585,-4.7695,-4.6806,-4.5962,-4.5807,-4.5807,-4.5807,-4.5807,-4.5807,-4.5807,-4.5807,-4.5807,-4.5807,-4.5374,-4.4833,-4.4136,-4.2783,-4.1854,-4.1506,-4.0739,-4.0274,-4.0274,-3.9423,-3.8953,-3.8953,-3.845,-3.8212,-3.8212,-3.8212,-3.845,-3.8953,-3.8953,-3.9224,-4.1816,0.0,0.0,-4.5652,-4.7657,-4.9165,-4.9397,-5.0751,-5.2105,-5.2492,-5.373,-5.4735,-5.4503,-5.5893,-5.7384,-5.8234,-5.9377,-6.0448,-6.1291,-6.0692,-6.0181,-6.0209,-5.9387,-5.9431,-6.0999,-6.1088,-6.1169,-6.1373,-6.1367,-6.1356,-6.1322,-6.1264,-6.1244,-6.1244,-6.1152,-6.1118,-6.1118,-6.1118,-6.1118,-6.1118,-6.1118,-6.1118,-6.1118,-6.1118,-6.1118,-6.1118,-6.1118,-6.1118,-6.1118,-6.1118,-6.1118,-6.1118,-6.1118,-6.1118,-6.1041,-6.046,-6.0074,-5.9687,-5.8178,-5.7512,-5.7164,-5.6274,-5.6012,-5.6012,-5.6012,-5.5586,-5.4967,-5.4116,-5.3227,-5.2376,-5.1486,-5.1091,-5.0898,-5.0898,-5.0898,-5.0898,-5.0898,-5.0434,-4.9784,-4.8933,-4.8043,-4.7192,-4.631,-4.5962,-4.5807,-4.5807,-4.5807,-4.5807,-4.5807,-4.5807,-4.5807,-4.5807,-4.5297,-4.4833,-4.4632,-4.344,-4.2512,-4.2048,-4.1429,-4.1048,-4.0816,-4.0197,-3.9849,-3.9849,-3.9224,-3.8914,-3.8914,-3.8914,-3.9224,-3.9849,-3.9849,-4.0197,0.0,0.0,-4.6,-4.6844,-4.8972,-5.1053,-5.1873,-5.342,-5.4465,-5.3614,-5.4155,-5.4542,-5.3691,-5.489,-5.6388,-5.7373,-5.8946,-6.0346,-6.1281,-6.0616,-6.0041,-6.0161,-5.9262,-5.9008,0.0,-6.015,-6.0521,-6.1246,-6.1317,-6.1244,-6.1107,-6.1127,-6.1127,-6.1127,-6.1079,-6.1118,-6.1118,-6.1118,-6.1118,-6.1118,-6.1118,-6.1118,-6.1118,-6.1118,-6.1118,-6.1118,-6.1118,-6.1118,-6.1118,-6.1118,-6.1118,-6.1118,-6.1118,-6.1118,-6.1118,-6.1079,-6.0576,-5.9764,-5.8874,-5.8023,-5.7164,-5.6274,-5.6012,-5.6012,-5.6012,-5.5973,-5.5818,-5.5006,-5.4116,-5.3265,-5.2384,-5.1525,-5.0898,-5.0898,-5.0898,-5.0898,-5.0898,-5.0859,-5.0627,-4.9823,-4.8972,-4.8082,-4.7192,-4.6348,-4.5807,-4.5807,-4.5807,-4.5807,-4.5807,-4.5807,-4.5807,-4.5807,-4.5768,-4.5452,-4.4671,-4.4555,-4.3788,-4.2125,-4.197,-4.1622,-4.0816,-4.0777,-4.0777,-4.0777,-4.0739,-4.0739,-4.0739,-4.0739,-4.0739,-4.0777,-4.0777,-4.0777,-4.3602,0.0,-4.8624,-4.9436,-5.1563,-5.3575,-5.3846,-5.4387,-5.4542,-5.3691,-5.3265,-5.2801,-5.195,-5.3211,-5.4893,-5.6382,-5.8053,-5.9653,-6.1136,-6.0514,-5.973,-5.9211,-5.8806,0.0,0.0,0.0,0.0,-6.11,-6.1178,-6.1152,-6.1079,-6.1118,-6.1118,-6.1118,-6.1118,-6.1118,-6.1118,-6.1118,-6.1118,-6.1118,-6.1118,-6.1118,-6.1118,-6.1118,-6.1118,-6.1118,-6.1118,-6.1118,-6.1118,-6.1118,-6.1118,-6.1118,-6.1118,-6.1118,-6.1118,-6.1118,-6.0925,-6.0499,-5.9068,-5.841,-5.7907,-5.6476,-5.6012,-5.6012,-5.6012,-5.6012,-5.5818,-5.5045,-5.4581,-5.4039,-5.2577,-5.1989,-5.1602,-5.1053,-5.0898,-5.0898,-5.0898,-5.0898,-5.0666,-4.9861,-4.901,-4.8121,-4.7231,-4.6387,-4.5807,-4.5807,-4.5807,-4.5807,-4.5807,-4.5807,-4.5807,-4.5807,-4.5807,-4.5691,-4.5413,-4.491,-4.4362,-4.375,-4.2628,-4.1893,-4.1622,-4.1087,-4.0816,-4.0816,-4.0816,-4.0816,-4.0816,-4.0816,-4.0816,-4.0816,-4.0816,-4.0816,-4.6419,-4.8624,-5.048,-5.195,-5.3575,-5.4813,-5.4813,-5.4542,-5.4,-5.2801,-5.1641,-5.0674,-5.0132,-5.0963,-5.2628,-5.526,-5.6844,-5.8544,-6.0911,-6.0463,-5.9687,-5.9145,-5.8806,-5.8729,0.0,0.0,0.0,-6.1041,-6.1118,-6.1118,-6.1118,-6.1118,-6.1118,-6.1118,-6.1118,-6.1118,-6.1118,-6.1118,-6.1118,-6.1118,-6.1118,-6.1118,-6.1118,-6.1118,-6.1118,-6.1118,-6.1118,-6.1118,-6.1118,-6.1118,-6.1118,-6.1118,-6.1118,-6.1118,-6.1118,-6.1118,-6.1118,-6.0847,-5.9184,-5.8613,-5.8294,-5.6553,-5.6012,-5.6012,-5.6012,-5.6012,-5.5896,-5.5354,-5.5006,-5.4542,-5.342,-5.2655,-5.2066,-5.1486,-5.113,-5.0898,-5.0898,-5.0898,-5.0743,-5.0241,-4.9436,-4.8585,-4.7695,-4.6573,-4.5807,-4.5807,-4.5807,-4.5807,-4.5807,-4.5807,-4.5807,-4.5807,-4.5807,-4.5807,-4.5807,-4.5336,-4.491,-4.4632,-4.3556,-4.2667,-4.2048,-4.1506,-4.1087,-4.0816,-4.0816,-4.0816,-4.0816,-4.0816,-4.0816,-4.0816,-4.0816,-4.0816,-4.9243,-5.0395,-5.171,-5.4194,-5.4813,-5.4774,-5.4735,-5.4,-5.284,-5.1014,-4.9359,-4.8159,0.0,0.0,-4.9629,-5.3846,-5.5354,-5.7172,-6.0576,-6.0422,-5.9957,0.0,0.0,0.0,0.0,0.0,0.0,-6.1041,0.0,-6.1118,-6.1118,-6.1118,-6.1118,-6.1118,-6.1118,-6.1118,-6.1118,-6.1118,-6.1118,-6.1118,-6.1118,-6.1118,-6.1118,-6.1118,-6.1118,-6.1118,-6.1118,-6.1118,-6.1118,-6.1118,-6.1118,-6.1118,-6.1118,-6.1118,-6.1118,-6.1118,-6.1118,-6.0886,-5.9223,-5.8651,-5.8333,-5.6631,-5.6051,-5.6012,-5.6012,-5.6012,-5.6012,-5.6012,-5.547,-5.4851,-5.4813,-5.3536,-5.2268,-5.2229,-5.1525,-5.0898,-5.0898,-5.0898,-5.0898,-5.0898,-5.0202,-4.9359,-4.8469,-4.6922,-4.5807,-4.5807,-4.5807,-4.5807,-4.5807,-4.5807,-4.5807,-4.5807,-4.5807,-4.5807,-4.5807,-4.5807,-4.5452,-4.471,-4.4632,-4.3866,-4.2202,-4.2086,-4.1699,-4.0932,-4.0932,-4.0932,-4.0932,-4.0932,-4.0932,-4.0932,-4.0932,-4.0932,-4.9243,-5.1718,-5.3962,-5.4619,-5.4813,-5.4619,-5.3962,-5.2647,-5.0712,-4.7734,-4.6264,-4.4987,0.0,0.0,0.0,-5.0519,-5.3807,0.0,-5.9803,-6.0538,0.0,-5.9957,0.0,-6.0306,-5.9919,-6.0422,0.0,0.0,-6.1118,-6.1118,-6.1118,-6.1118,-6.1118,-6.1118,-6.1118,-6.1118,-6.1118,-6.1118,-6.1118,-6.1118,-6.1118,-6.1118,-6.1118,-6.1118,-6.1118,-6.1118,-6.1118,-6.1118,-6.1118,-6.1118,-6.1118,-6.1118,-6.1118,-6.1118,-6.1118,-6.1118,-6.1118,-6.0963,-5.9919,-5.9145,-5.841,-5.7327,-5.6545,-5.6012,-5.6012,-5.6012,-5.6012,-5.6012,-5.5857,-5.5548,-5.4967,-5.4,-5.2995,-5.2345,-5.1525,-5.0898,-5.0898,-5.0898,-5.0898,-5.0898,-4.9745,-4.8469,-4.7579,-4.6542,-4.5807,-4.5807,-4.5807,-4.5807,-4.5807,-4.5807,-4.5807,-4.5807,-4.5807,-4.5807,-4.5807,-4.5807,-4.5729,-4.549,-4.4949,-4.44,-4.3982,-4.3324,-4.286,-4.2667,-4.2667,-4.2667,-4.2667,-4.2667,-4.2667,-4.2667,-4.2667,-4.2667,-5.1447,-5.3614,-5.5316,-5.5316,-5.4774,-5.3807,-5.2182,-5.021,-4.7695,-4.4298,-4.2937,0.0,0.0,0.0,0.0,0.0,0.0,0.0,-5.8913,-6.0344,-6.0925,0.0,-6.0847,0.0,-6.046,-6.0847,-6.1118,0.0,-6.1118,-6.1118,-6.1118,-6.1118,-6.1118,-6.1118,-6.1118,-6.1118,-6.1118,-6.1118,-6.1118,-6.1118,-6.1118,-6.1118,-6.1118,-6.1118,-6.1118,-6.1118,-6.1118,-6.1118,-6.1118,-6.1118,-6.1118,-6.1118,-6.1118,-6.1118,-6.1118,-6.1118,-6.1118,-6.1041,-6.0576,-5.9609,-5.8449,-5.7598,-5.6699,-5.6012,-5.6012,-5.6012,-5.6012,-5.6012,-5.6012,-5.5896,-5.5432,-5.4697,-5.3846,-5.2995,-5.2105,-5.137,-5.0975,-5.0898,-5.0898,-5.0898,-4.9861,-4.8701,-4.7811,-4.696,-4.6232,-4.5845,-4.5807,-4.5807,-4.5807,-4.5807,-4.5807,-4.5807,-4.5807,-4.5807,-4.5807,-4.5807,-4.5807,-4.5807,-4.5374,-4.4987,-4.4594,-4.413,-4.3711,-4.3324,-4.3285,-4.3285,-4.3285,-4.3285,-4.3285,-4.3285,-4.3285,-4.3285,-5.431,-5.5393,-5.5973,-5.5857,-5.4581,-5.2647,-4.9977,-4.7347,-4.4491,-4.1009,0.0,-3.8727,-3.787,-3.9881,-4.2821,-4.6341,0.0,-5.4542,-5.811,-5.9957,-6.0963,-6.1079,-6.1118,-6.1118,-6.1118,-6.1118,-6.1118,-6.1118,-6.1118,-6.1118,-6.1118,-6.1118,-6.1118,-6.1118,-6.1118,-6.1118,-6.1118,-6.1118,-6.1118,-6.1118,-6.1118,-6.1118,-6.1118,-6.1118,-6.1118,-6.1118,-6.1118,-6.1118,-6.1118,-6.1118,-6.1118,-6.1118,-6.1118,-6.1118,-6.1118,-6.1118,-6.1118,-6.1118,-6.1118,-6.0074,-5.8642,-5.7753,-5.6777,-5.6012,-5.6012,-5.6012,-5.6012,-5.6012,-5.6012,-5.6012,-5.6012,-5.5393,-5.4619,-5.3846,-5.2917,-5.1989,-5.1254,-5.0975,-5.0898,-5.0898,-5.0241,-4.9475,-4.8701,-4.7734,-4.6844,-4.6078,-4.5884,-4.5807,-4.5807,-4.5807,-4.5807,-4.5807,-4.5807,-4.5807,-4.5807,-4.5807,-4.5807,-4.5807,-4.5807,-4.549,-4.4794,-4.4755,-4.4407,-4.3634,-4.3634,-4.3634,-4.3634,-4.3634,-4.3634,-4.3634,-4.3634,-4.3634,-5.431,-5.5393,-5.5857,-5.5161,-5.3691,-5.1571,-4.8314,-4.5568,0.0,0.0,0.0,-3.6096,-3.5206,-3.7721,0.0,-4.5381,0.0,0.0,0.0,0.0,-6.0344,0.0,0.0,0.0,0.0,0.0,0.0,0.0,-6.1118,-6.1118,-6.1118,-6.1118,-6.1118,-6.1118,-6.1118,-6.1118,-6.1118,-6.1118,-6.1118,-6.1118,-6.1118,-6.1118,-6.1118,-6.1118,-6.1118,-6.1118,-6.1118,-6.1118,-6.1118,-6.1118,-6.1118,-6.1118,-6.1118,-6.1118,-6.1118,-6.1118,-6.1118,-6.1118,-6.1118,-6.046,-5.9532,-5.8642,-5.7288,-5.6012,-5.6012,-5.6012,-5.6012,-5.6012,-5.6012,-5.6012,-5.6012,-5.5393,-5.4774,-5.4619,-5.3343,-5.2152,-5.1989,-5.1409,-5.0898,-5.0898,-5.0241,-4.9668,-4.9513,-4.8159,-4.7038,-4.6883,-4.6271,-4.5807,-4.5807,-4.5807,-4.5807,-4.5807,-4.5807,-4.5807,-4.5807,-4.5807,-4.5807,-4.5807,-4.5807,-4.5729,-4.5613,-4.5568,-4.5536,-4.5381,-4.5381,-4.5381,-4.5381,-4.5381,-4.5381,-4.5381,-4.5381,-4.5381,-5.4851,-5.5702,-5.5818,-5.5006,-5.3149,-5.0519,-4.6689,0.0,0.0,0.0,0.0,-3.3963,-3.2648,0.0,0.0,0.0,0.0,0.0,0.0,0.0,0.0,0.0,0.0,0.0,0.0,0.0,0.0,0.0,-6.1118,-6.1118,-6.1118,-6.1118,-6.1118,-6.1118,-6.1118,-6.1118,-6.1118,-6.1118,-6.1118,-6.1118,-6.1118,-6.1118,-6.1118,-6.1118,-6.1118,-6.1118,-6.1118,-6.1118,-6.1118,-6.1118,-6.1118,-6.1118,-6.1118,-6.1118,-6.1118,-6.1118,-6.1118,-6.1118,-6.1118,-6.0576,-5.9764,-5.8874,-5.7714,-5.6583,-5.6128,-5.6012,-5.6012,-5.6012,-5.6012,-5.6012,-5.6012,-5.5702,-5.5316,-5.489,-5.3459,-5.2074,-5.1602,-5.1215,-5.0898,-5.0898,-5.0589,-5.0202,-4.9784,-4.8624,-4.7618,-4.7154,-4.6348,-4.5807,-4.5807,-4.5807,-4.5807,-4.5807,-4.5807,-4.5807,-4.5807,-4.5807,-4.5807,-4.5807,-4.5807,-4.5807,-4.5807,-4.5807,-4.5807,-4.5807,-4.5807,-4.5807,-4.5807,-4.5807,-4.5807,-4.5807,-4.5807,-4.5807,-5.5084,-5.5857,-5.578,-5.4774,-5.2685,-4.9738,-4.5329,-4.1661,0.0,0.0,-3.2798,-3.2217,-3.1062,0.0,0.0,0.0,0.0,0.0,0.0,0.0,0.0,0.0,0.0,0.0,0.0,0.0,0.0,0.0,-6.1118,-6.1118,-6.1118,-6.1118,-6.1118,-6.1118,-6.1118,-6.1118,-6.1118,-6.1118,-6.1118,-6.1118,-6.1118,-6.1118,-6.1118,-6.1118,-6.1118,-6.1118,-6.1118,-6.1118,-6.1118,-6.1118,-6.1118,-6.1118,-6.1118,-6.1118,-6.1118,-6.1118,-6.1118,-6.1118,-6.1118,-6.0692,-5.9996,-5.8952,-5.8023,-5.7125,-5.6274,-5.6012,-5.6012,-5.6012,-5.6012,-5.6012,-5.6012,-5.6012,-5.5818,-5.5006,-5.3614,-5.2221,-5.137,-5.1014,-5.0898,-5.0898,-5.0898,-5.0705,-5.0055,-4.9243,-4.8392,-4.7502,-4.6651,-4.6,-4.5807,-4.5807,-4.5807,-4.5807,-4.5807,-4.5807,-4.5807,-4.5807,-4.5807,-4.5807,-4.5807,-4.5807,-4.5807,-4.5807,-4.5807,-4.5807,-4.5807,-4.5807,-4.5807,-4.5807,-4.5807,-4.5807,-4.5807,-4.5807,-5.4426,-5.5432,-5.5625,-5.4,-5.226,-4.9583,-4.4562,0.0,0.0,-3.3803,-3.1869,-3.1023,-3.156,-3.2643,0.0,0.0,0.0,-4.5877,0.0,0.0,0.0,0.0,0.0,0.0,0.0,0.0,0.0,0.0,-6.1118,-6.1118,-6.1118,-6.1118,-6.1118,-6.1118,-6.1118,-6.1118,-6.1118,-6.1118,-6.1118,-6.1118,-6.1118,-6.1118,-6.1118,-6.1118,-6.1118,-6.1118,-6.1118,-6.1118,-6.1118,-6.1118,-6.1118,-6.1118,-6.1118,-6.1118,-6.1118,-6.1118,-6.1118,-6.1118,-6.1118,-6.1041,-6.0731,-5.9106,-5.8023,-5.7125,-5.6274,-5.6012,-5.6012,-5.6012,-5.6012,-5.6012,-5.6012,-5.6012,-5.5818,-5.5006,-5.4078,-5.3149,-5.226,-5.1447,-5.0898,-5.0898,-5.0898,-5.0859,-5.0782,-5.0132,-4.9281,-4.8392,-4.754,-4.6689,-4.5884,-4.5807,-4.5807,-4.5807,-4.5807,-4.5807,-4.5807,-4.5807,-4.5807,-4.5807,-4.5807,-4.5807,-4.5807,-4.5807,-4.5807,-4.5807,-4.5807,-4.5807,-4.5807,-4.5807,-4.5807,-4.5807,-4.5807,-4.5807,-5.3265,-5.4619,-5.5006,-5.3807,-5.2182,-4.9583,-4.4446,0.0,-3.7245,-3.3803,-3.1753,-3.0714,-3.1023,-3.1753,-3.3494,-3.7135,-3.8682,-4.1661,0.0,0.0,0.0,0.0,0.0,0.0,0.0,0.0,0.0,-6.1118,-6.1118,-6.1118,-6.1118,-6.1118,-6.1118,-6.1118,-6.1118,-6.1118,-6.1118,-6.1118,-6.1118,-6.1118,-6.1118,-6.1118,-6.1118,-6.1118,-6.1118,-6.1118,-6.1118,-6.1118,-6.1118,-6.1118,-6.1118,-6.1118,-6.1118,-6.1118,-6.1118,-6.1118,-6.1118,-6.1118,-6.1118,-6.1118,-6.0925,-5.9764,-5.8797,-5.783,-5.6437,-5.6012,-5.6012,-5.6012,-5.6012,-5.6012,-5.6012,-5.6012,-5.5818,-5.5006,-5.4116,-5.3265,-5.2384,-5.1525,-5.0898,-5.0898,-5.0898,-5.0898,-5.0898,-5.0241,-4.9591,-4.9243,-4.8005,-4.696,-4.6619,-4.6116,-4.5807,-4.5807,-4.5807,-4.5807,-4.5807,-4.5807,-4.5807,-4.5807,-4.5807,-4.5807,-4.5807,-4.5807,-4.5807,-4.5807,-4.5807,-4.5807,-4.5807,-4.5807,-4.5807,-4.5807,-4.5807,-4.5807,-5.1525,-5.3188,-5.3807,-5.2956,-5.1447,-4.8887,0.0,0.0,-3.6936,-3.3764,-3.1753,-3.0598,-3.0598,-3.1255,-3.2565,-3.493,-3.6439,-3.9224,-4.4755,0.0,0.0,0.0,0.0,0.0,0.0,0.0,0.0,-6.1118,-6.1118,-6.1118,-6.1118,-6.1118,-6.1118,-6.1118,-6.1118,-6.1118,-6.1118,-6.1118,-6.1118,-6.1118,-6.1118,-6.1118,-6.1118,-6.1118,-6.1118,-6.1118,-6.1118,-6.1118,-6.1118,-6.1118,-6.1118,-6.1118,-6.1118,-6.1118,-6.1118,-6.1118,-6.1118,-6.1118,-6.1118,-6.1118,-6.0963,-6.0151,-5.93,-5.8333,-5.6824,-5.6197,-5.6012,-5.6012,-5.6012,-5.6012,-5.6012,-5.6012,-5.5857,-5.5277,-5.4503,-5.3652,-5.2763,-5.1912,-5.1215,-5.0937,-5.0898,-5.0898,-5.0898,-5.0434,-4.9977,-4.9745,-4.843,-4.7386,-4.7115,-4.6348,-4.5807,-4.5807,-4.5807,-4.5807,-4.5807,-4.5807,-4.5807,-4.5807,-4.5807,-4.5807,-4.5807,-4.5807,-4.5807,-4.5807,-4.5807,-4.5807,-4.5807,-4.5807,-4.5807,-4.5807,-4.5807,-4.5807,-4.9049,-5.0945,-5.2028,-5.113,-4.9668,-4.7308,0.0,-3.9379,-3.6201,-3.3648,-3.1753,-3.0598,-3.0598,-3.1255,-3.2377,-3.4123,-3.6555,-3.9682,-4.4014,0.0,0.0,0.0,0.0,0.0,0.0,0.0,0.0,-6.1118,-6.1118,0.0,-6.1118,-6.1118,-6.1118,-6.1118,-6.1118,-6.1118,-6.1118,-6.1118,-6.1118,-6.1118,-6.1118,-6.1118,-6.1118,-6.1118,-6.1118,-6.1118,-6.1118,-6.1118,-6.1118,-6.1118,-6.1118,-6.1118,-6.1118,-6.1118,-6.1118,-6.1118,-6.1118,-6.1118,-6.1118,-6.1118,-6.0963,-6.0151,-5.93,-5.8449,-5.7559,-5.6661,-5.6012,-5.6012,-5.6012,-5.6012,-5.6012,-5.6012,-5.6012,-5.6012,-5.5354,-5.4542,-5.3652,-5.2801,-5.1912,-5.1053,-5.0898,-5.0898,-5.0898,-5.0898,-5.0627,-4.9823,-4.8933,-4.8082,-4.7192,-4.6348,-4.5807,-4.5807,-4.5807,-4.5807,-4.5807,-4.5807,-4.5807,-4.5807,-4.5807,-4.5807,-4.5807,-4.5807,-4.5807,-4.5807,-4.5807,-4.5807,-4.5807,-4.5807,-4.5807,-4.5807,-4.5807,-4.5807,-4.4059,-4.6109,-4.7463,-4.6071,-4.5297,-4.3943,-4.0268,-3.7677,-3.5356,-3.2759,-3.1371,-3.0598,-3.0598,-3.083,-3.23,-3.6323,-3.7671,0.0,0.0,0.0,0.0,0.0,0.0,0.0,0.0,0.0,-6.1118,-6.1118,-6.1118,-6.1118,-6.1118,-6.1118,-6.1118,-6.1118,-6.1118,-6.1118,-6.1118,-6.1118,-6.1118,-6.1118,-6.1118,-6.1118,-6.1118,-6.1118,-6.1118,-6.1118,-6.1118,-6.1118,-6.1118,-6.1118,-6.1118,-6.1118,-6.1118,-6.1118,-6.1118,-6.1118,-6.1118,-6.1118,-6.1118,-6.1118,-6.1079,-6.0809,-5.9764,-5.8535,-5.8255,-5.7172,-5.6012,-5.6012,-5.6012,-5.6012,-5.6012,-5.6012,-5.6012,-5.6012,-5.5393,-5.4542,-5.3691,-5.2801,-5.195,-5.1053,-5.0898,-5.0898,-5.0898,-5.0898,-5.0821,-5.055,-4.9823,-4.8972,-4.8082,-4.7231,-4.6464,-4.5845,-4.5807,-4.5807,-4.5807,-4.5807,-4.5807,-4.5807,-4.5807,-4.5807,-4.5807,-4.5807,-4.5807,-4.5807,-4.5807,-4.5807,-4.5807,-4.5807,-4.5807,-4.5807,-4.5807,-4.5807,0.0,-4.2441,-4.3756,-4.2976,-4.2318,-4.1158,-3.8334,-3.6168,-3.4156,-3.2217,-3.1178,-3.0598,-3.0598,-3.1139,-3.2565,-3.5776,-3.7638,0.0,0.0,0.0,0.0,0.0,0.0,0.0,0.0,0.0,-6.1118,-6.1118,-6.1118,-6.1118,-6.1118,-6.1118,-6.1118,-6.1118,-6.1118,-6.1118,-6.1118,-6.1118,-6.1118,-6.1118,-6.1118,-6.1118,-6.1118,-6.1118,-6.1118,-6.1118,-6.1118,-6.1118,0.0,-6.1118,-6.1118,-6.1118,-6.1118,-6.1118,-6.1118,-6.1118,-6.1118,-6.1118,-6.1118,-6.1118,-6.1118,-6.1118,-5.9957,-5.8497,-5.783,-5.6863,-5.6012,-5.6012,-5.6012,-5.6012,-5.6012,-5.6012,-5.6012,-5.6012,-5.5625,-5.4929,-5.373,-5.3072,-5.2337,-5.113,-5.0898,-5.0898,-5.0898,-5.0898,-5.0898,-5.0898,-5.0202,-4.9513,-4.8972,-4.785,-4.6883,-4.6348,-4.6,-4.5807,-4.5807,-4.5807,-4.5807,-4.5807,-4.5807,-4.5807,-4.5807,-4.5807,-4.5807,-4.5807,-4.5807,-4.5807,-4.5807,-4.5807,-4.5807,-4.5807,-4.5807,-4.5807,0.0,-3.9578,0.0,0.0,-4.0158,-3.8611,-3.6903,-3.4693,0.0,-3.1908,-3.1139,-3.0675,-3.083,-3.2101,-3.3223,-3.3648,0.0,0.0,0.0,0.0,0.0,0.0,0.0,0.0,0.0,-6.019,-6.1118,-6.1118,-6.1118,-6.1118,-6.1118,-6.1118,-6.1118,-6.1118,-6.1118,-6.1118,-6.1118,-6.1118,-6.1118,-6.1118,-6.1118,-6.1118,-6.1118,-6.1118,-6.1118,-6.1118,-6.1118,-6.1118,-6.1118,-6.1118,-6.1118,-6.1118,-6.1118,-6.1118,-6.1118,-6.1118,-6.1118,-6.1118,-6.1118,-6.1118,-6.1079,-6.0963,-5.988,-5.8255,-5.6515,-5.6012,-5.6012,-5.6012,-5.6012,-5.6012,-5.6012,-5.6012,-5.6012,-5.6012,-5.6012,-5.5548,-5.3923,-5.3536,-5.2995,-5.1323,-5.0937,-5.0898,-5.0898,-5.0898,-5.0898,-5.0898,-5.0241,-4.9745,-4.9707,-4.8237,-4.7154,-4.7115,-4.631,-4.5807,-4.5807,-4.5807,-4.5807,-4.5807,-4.5807,-4.5807,-4.5807,-4.5807,-4.5807,-4.5807,-4.5807,-4.5807,-4.5807,-4.5807,-4.5807,-4.5807,-4.5807,-4.5807,-3.2222,0.0,-3.5632,-3.4466,-3.4383,-3.4306,0.0,-3.2527,-3.1869,-3.1062,0.0,-3.1217,-3.3156,-3.3267,-3.4577,0.0,0.0,0.0,0.0,0.0,0.0,0.0,0.0,0.0,0.0,-6.0886,-6.1118,-6.1118,-6.1118,-6.1118,-6.1118,-6.1118,-6.1118,-6.1118,-6.1118,-6.1118,-6.1118,-6.1118,-6.1118,-6.1118,-6.1118,-6.1118,-6.1118,-6.1118,-6.1118,-6.1118,-6.1118,-6.1118,-6.1118,-6.1118,-6.1118,-6.1118,-6.1118,-6.1118,-6.1118,-6.1118,-6.1118,-6.1118,-6.1118,-6.1118,-6.0886,-5.9609,-5.8913,-5.8255,-5.6515,-5.6012,-5.6012,-5.6012,-5.6012,-5.6012,-5.6012,-5.6012,-5.6012,-5.6012,-5.6012,-5.5741,-5.4697,-5.3962,-5.3188,-5.2105,-5.137,-5.0898,-5.0898,-5.0898,-5.0898,-5.0898,-5.0743,-5.0395,-4.9784,-4.8778,-4.785,-4.7154,-4.631,-4.5807,-4.5807,-4.5807,-4.5807,-4.5807,-4.5807,-4.5807,-4.5807,-4.5807,-4.5807,-4.5807,-4.5807,-4.5807,-4.5807,-4.5807,-4.5807,-4.5807,-4.5807,-4.5807,-2.9785,-3.2454,-3.4853,-3.4272,-3.4229,-3.4156,-3.3692,0.0,0.0,0.0,0.0,0.0,0.0,0.0,0.0,0.0,0.0,0.0,0.0,0.0,0.0,0.0,0.0,0.0,0.0,-6.1118,-6.1118,-6.1118,-6.1118,-6.1118,-6.1118,-6.1118,-6.1118,-6.1118,-6.1118,-6.1118,-6.1118,-6.1118,-6.1118,-6.1118,-6.1118,-6.1118,-6.1118,-6.1118,-6.1118,-6.1118,-6.1118,-6.1118,-6.1118,-6.1118,-6.1118,-6.1118,-6.1118,-6.1118,-6.1118,-6.1118,-6.1118,-6.1118,-6.1118,-6.1118,-6.0809,-5.9145,-5.8613,-5.8255,-5.6515,-5.6012,-5.6012,-5.6012,-5.6012,-5.6012,-5.6012,-5.6012,-5.6012,-5.6012,-5.6012,-5.578,-5.4967,-5.4116,-5.3227,-5.2384,-5.1486,-5.0898,-5.0898,-5.0898,-5.0898,-5.0898,-5.0898,-5.0743,-5.0318,-4.9513,-4.8817,-4.8353,-4.7154,-4.6387,-4.6387,-4.6039,-4.5807,-4.5807,-4.5807,-4.5807,-4.5807,-4.5807,-4.5807,-4.5807,-4.5807,-4.5807,-4.5807,-4.5807,-4.5807,-4.5807,-4.5807,-4.5807,-2.9321,-3.2725,-3.5936,-3.6091,-3.5897,-3.5626,-3.5356,0.0,0.0,0.0,0.0,0.0,0.0,0.0,0.0,0.0,0.0,0.0,0.0,0.0,0.0,0.0,0.0,0.0,-6.1118,-6.1118,-6.1118,-6.1118,-6.1118,-6.1118,-6.1118,-6.1118,-6.1118,-6.1118,-6.1118,-6.1118,-6.1118,-6.1118,-6.1118,-6.1118,-6.1118,-6.1118,-6.1118,-6.1118,-6.1118,-6.1118,-6.1118,-6.1118,-6.1118,-6.1118,-6.1118,-6.1118,-6.1118,-6.1118,-6.1118,-6.1118,-6.1118,-6.1118,-6.1118,-6.1041,-6.0654,-5.9106,-5.8488,-5.8101,-5.6476,-5.6012,-5.6012,-5.6012,-5.6012,-5.6012,-5.6012,-5.6012,-5.6012,-5.6012,-5.6012,-5.5818,-5.5122,-5.4194,-5.3265,-5.2539,-5.1602,-5.0898,-5.0898,-5.0898,-5.0898,-5.0898,-5.0898,-5.0898,-5.0898,-5.021,-4.9707,-4.9707,-4.8275,-4.7231,-4.7115,-4.6426,-4.5923,-4.5807,-4.5807,-4.5807,-4.5807,-4.5807,-4.5807,-4.5807,-4.5807,-4.5807,-4.5807,-4.5807,-4.5807,-4.5807,-4.5807,-4.5807,-3.0588,-3.4002,-3.6052,-3.3262,-3.4156,-3.5317,-3.3842,0.0,0.0,0.0,0.0,0.0,0.0,0.0,0.0,0.0,0.0,0.0,0.0,0.0,0.0,0.0,0.0,-6.1118,-6.1118,-6.1118,-6.1118,-6.1118,-6.1118,-6.1118,-6.1118,-6.1118,-6.1118,-6.1118,-6.1118,-6.1118,-6.1118,-6.1118,-6.1118,-6.1118,-6.1118,-6.1118,-6.1118,-6.1118,-6.1118,-6.1118,-6.1118,-6.1118,-6.1118,-6.1118,-6.1118,-6.1118,-6.1118,-6.1118,-6.1118,-6.1118,-6.1118,-6.1118,-6.1118,-6.0654,-5.9919,-5.8913,-5.8101,-5.7318,-5.6313,-5.6012,-5.6012,-5.6012,-5.6012,-5.6012,-5.6012,-5.6012,-5.6012,-5.6012,-5.6012,-5.5973,-5.5857,-5.4619,-5.3459,-5.3343,-5.1989,-5.0898,-5.0898,-5.0898,-5.0898,-5.0898,-5.0898,-5.0898,-5.0898,-5.021,-4.9707,-4.9707,-4.8817,-4.7889,-4.7154,-4.696,-4.6581,-4.5845,-4.5807,-4.5807,-4.5807,-4.5807,-4.5807,-4.5807,-4.5807,-4.5807,-4.5807,-4.5807,-4.5807,-4.5807,-4.5807,-4.5807,-2.9066,-3.2246,-3.4693,-3.4079,-3.6516,-3.8876,-3.8102,-3.682,0.0,0.0,0.0,0.0,0.0,0.0,0.0,0.0,0.0,0.0,0.0,0.0,0.0,0.0,0.0,-6.1118,-6.1118,-6.1118,-6.1118,-6.1118,-6.1118,-6.1118,-6.1118,-6.1118,-6.1118,-6.1118,-6.1118,-6.1118,-6.1118,-6.1118,-6.1118,-6.1118,-6.1118,-6.1118,-6.1118,-6.1118,-6.1118,-6.1118,-6.1118,-6.1118,-6.1118,-6.1118,-6.1118,-6.1118,-6.1118,-6.1118,-6.1118,-6.1118,-6.1118,-6.1118,-6.1118,-6.0576,-5.9764,-5.8874,-5.8023,-5.7125,-5.6274,-5.6012,-5.6012,-5.6012,-5.6012,-5.6012,-5.6012,-5.6012,-5.6012,-5.6012,-5.5986,-5.6007,-5.6007,-5.5002,-5.4005,-5.3542,-5.2437,-5.1447,-5.0975,-5.0898,-5.0898,-5.0898,-5.0898,-5.0898,-5.0898,-5.0589,-5.0349,-5.0333,-4.956,-4.8848,-4.8438,-4.7588,-4.6684,-4.5838,-4.5807,-4.5807,-4.5807,-4.5807,-4.5807,-4.5807,-4.5807,-4.5807,-4.5807,-4.5807,-4.5807,-4.5807,-4.5807,-4.5807,-2.8536,-3.111,-3.3643,-3.6008,-3.887,-4.1274,-4.1854,-4.0191,-3.8682,0.0,0.0,0.0,0.0,0.0,0.0,0.0,0.0,0.0,0.0,0.0,-6.0422,-6.1041,-6.1118,-6.1118,-6.1118,-6.1118,-6.1118,-6.1118,-6.1118,-6.1118,-6.1118,-6.1118,-6.1118,-6.1118,-6.1118,-6.1118,-6.1118,-6.1118,-6.1118,-6.1118,-6.1118,-6.1118,-6.1118,-6.1118,-6.1118,-6.1118,-6.1118,-6.1118,-6.1118,-6.1118,-6.1118,-6.1118,-6.1118,-6.1118,-6.1118,-6.1118,-6.1118,-6.1118,-6.1118,-6.0422,-5.9493,-5.8806,-5.7869,-5.6854,-5.6197,-5.6012,-5.6012,-5.6012,-5.6003,-5.5995,-5.6003,-5.6003,-5.5995,-5.5995,-5.5998,-5.6,-5.6,-5.5305,-5.4417,-5.3567,-5.2752,-5.1879,-5.1029,-5.0874,-5.0874,-5.0882,-5.089,-5.089,-5.0898,-5.0898,-5.0882,-5.0888,-5.0301,-4.9782,-4.953,-4.7948,-4.6746,-4.6119,-4.5902,-4.5793,-4.5793,-4.58,-4.5807,-4.5807,-4.5807,-4.5807,-4.5807,-4.5807,-4.5807,-4.5807,-4.5807,-4.5807,-3.1521,-3.2861,-3.4086,-3.8105,-3.8819,-3.9102,-4.1467,-4.0661,0.0,-4.2434,0.0,0.0,0.0,0.0,0.0,0.0,0.0,0.0,0.0,0.0,-6.1041,-6.1079,-6.1118,-6.1118,-6.1118,-6.1118,-6.1118,-6.1118,-6.1118,-6.1118,-6.1118,-6.1118,-6.1118,-6.1118,-6.1118,-6.1118,-6.1118,-6.1118,-6.1118,-6.1118,-6.1118,-6.1118,-6.1118,-6.1118,-6.1118,-6.1118,-6.1118,-6.1118,-6.1118,-6.1118,-6.1118,-6.1118,-6.1118,-6.1118,-6.1118,-6.1118,-6.1118,-6.1118,-6.1118,-6.0035,-5.869,-5.8613,-5.7443,-5.6081,-5.6012,-5.6012,-5.6012,-5.6012,-5.6016,-5.5989,-5.5995,-5.6016,-5.6018,-5.6018,-5.5943,-5.5905,-5.5905,-5.521,-5.4361,-5.3483,-5.2673,-5.1824,-5.0945,-5.0829,-5.0838,-5.088,-5.0888,-5.0897,-5.0898,-5.0898,-5.0882,-5.0888,-5.0841,-5.0439,-4.9569,-4.7948,-4.6984,-4.6915,-4.6229,-4.5788,-4.5788,-4.5786,-4.5807,-4.5807,-4.5807,-4.5807,-4.5807,-4.5807,-4.5807,-4.5807,-4.5807,-4.5807,-2.9895,-3.1857,-3.4008,-3.7736,-3.9256,0.0,0.0,-4.4369,-4.5452,-4.696,-4.792,0.0,0.0,0.0,0.0,0.0,0.0,0.0,0.0,-6.0576,-6.1118,-6.1118,-6.1118,-6.1118,-6.1118,-6.1118,-6.1118,-6.1118,-6.1118,-6.1118,-6.1118,-6.1118,-6.1118,-6.1118,-6.1118,-6.1118,-6.1118,-6.1118,-6.1118,-6.1118,-6.1118,-6.1118,-6.1118,-6.1118,-6.1118,-6.1118,-6.1118,-6.1118,-6.1118,-6.1118,-6.1118,-6.1118,-6.1118,-6.1118,-6.1118,-6.1118,-6.1118,-6.1041,-6.0538,-5.9571,-5.8488,-5.7985,-5.6979,-5.6012,-5.6012,-5.6012,-5.6003,-5.6007,-5.5989,-5.6018,-5.5998,-5.5961,-5.5924,-5.5924,-5.5895,-5.5855,-5.5855,-5.5586,-5.5084,-5.4236,-5.3407,-5.2587,-5.1738,-5.1159,-5.0821,-5.0838,-5.0846,-5.0846,-5.0825,-5.0825,-5.0808,-5.0803,-5.0767,-5.0402,-4.9527,-4.8872,-4.8064,-4.7015,-4.6166,-4.575,-4.575,-4.5727,-4.5742,-4.581,-4.581,-4.5778,-4.5807,-4.5807,-4.5807,-4.5807,-4.5807,-4.5807,-2.9659,-3.1895,-3.4594,-3.7466,0.0,0.0,-4.4794,-4.6728,-4.8469,-5.0132,-5.0519,-5.0782,-5.1563,0.0,0.0,0.0,0.0,0.0,-6.0112,-6.0731,-6.1118,-6.1118,-6.1118,-6.1118,-6.1118,-6.1118,-6.1118,-6.1118,-6.1118,-6.1118,-6.1118,-6.1118,-6.1118,-6.1118,-6.1118,-6.1118,-6.1118,-6.1118,-6.1118,-6.1118,-6.1118,-6.1118,-6.1118,-6.1118,-6.1118,-6.1118,-6.1118,-6.1118,-6.1118,-6.1118,-6.1118,-6.1118,-6.1118,-6.1118,-6.1118,-6.1118,-6.0925,-6.0654,-6.0074,-5.9145,-5.8101,-5.7464,-5.6682,-5.5986,-5.5968,-5.5959,-5.5959,-5.5961,-5.5943,-5.5933,-5.5933,-5.5905,-5.5875,-5.5875,-5.5807,-5.5766,-5.5766,-5.5766,-5.5535,-5.4678,-5.3822,-5.3003,-5.2184,-5.1345,-5.0776,-5.0756,-5.0756,-5.0764,-5.0821,-5.0821,-5.0756,-5.0701,-5.0702,-5.0481,-4.9856,-4.9548,-4.8894,-4.7778,-4.6686,-4.5957,-4.5703,-4.5719,-4.5735,-4.5765,-4.5765,-4.5781,-4.5771,-4.5771,-4.5771,-4.5771,-4.5778,-4.5786,-3.1686,-3.3622,-3.6024,0.0,0.0,0.0,-4.6573,-4.7154,-4.8121,-5.1533,-5.0906,-5.0519,-5.3033,0.0,0.0,-5.6583,-5.8023,-5.9184,-6.0847,-6.1079,-6.1118,-6.1118,-6.1118,-6.1118,-6.1118,-6.1118,-6.1118,-6.1118,-6.1118,-6.1118,-6.1118,-6.1118,-6.1118,-6.1118,-6.1118,-6.1118,-6.1118,-6.1118,-6.1118,-6.1118,-6.1118,-6.1118,-6.1118,-6.1118,-6.1118,-6.1118,-6.1118,-6.1118,-6.1118,-6.1079,-6.1079,-6.1079,-6.1079,-6.1079,-6.1079,-6.1079,-6.0576,-5.988,-5.988,-5.8758,-5.728,-5.7196,-5.6636,-5.6,-5.5914,-5.5895,-5.5895,-5.5895,-5.5865,-5.5797,-5.5797,-5.5797,-5.5797,-5.5797,-5.5745,-5.5703,-5.5703,-5.5703,-5.5472,-5.4664,-5.3818,-5.2933,-5.2038,-5.1241,-5.0683,-5.0692,-5.0701,-5.072,-5.0773,-5.0821,-5.0756,-5.0701,-5.0693,-5.0712,-5.0712,-4.9894,-4.9394,-4.9394,-4.7855,-4.6565,-4.574,-4.5703,-4.5688,-4.5688,-4.5688,-4.5688,-4.5688,-4.5688,-4.5688,-4.5688,-4.5765,-4.5788,-3.1009,-3.3633,0.0,0.0,0.0,0.0,0.0,-5.0248,0.0,0.0,-5.4039,-5.3536,-5.4271,0.0,0.0,-5.5316,-5.725,-5.8758,-5.9261,-6.0344,-6.1118,-6.1118,-6.1118,-6.1118,-6.1118,-6.1118,-6.1118,-6.1118,-6.1118,-6.1118,-6.1118,-6.1118,-6.1118,-6.1118,-6.1118,-6.1118,-6.1118,-6.1118,-6.1118,-6.1118,-6.1118,-6.1118,-6.1118,-6.1118,-6.1118,-6.1118,-6.1118,-6.1118,-6.1079,-6.0499,-6.0267,-6.019,-5.9571,-5.9339,-5.9339,-5.9339,-5.9184,-5.8913,-5.8294,-5.7687,-5.7119,-5.6568,-5.6145,-5.5914,-5.5905,-5.5895,-5.5895,-5.5817,-5.5807,-5.5787,-5.5745,-5.5735,-5.5735,-5.5735,-5.5724,-5.5703,-5.5703,-5.5703,-5.5472,-5.4664,-5.3818,-5.2933,-5.2038,-5.1241,-5.0712,-5.0693,-5.0693,-5.0693,-5.0712,-5.0712,-5.0712,-5.0693,-5.0721,-5.0712,-5.0712,-5.0481,-5.0048,-4.9433,-4.8933,-4.8018,-4.6604,-4.5967,-4.5646,-4.5717,-4.5679,-4.5695,-4.5688,-4.5688,-4.5688,-4.5688,-4.5735,-4.5743,-3.3396,0.0,0.0,0.0,0.0,0.0,-5.1834,0.0,0.0,0.0,0.0,-5.4503,-5.5161,-5.4735,0.0,-5.5625,-5.7095,-5.8217,-5.8535,-5.9455,-6.0112,-6.0112,-6.0422,-6.0615,-6.0615,-6.0615,-6.0615,-6.0615,-6.0306,-6.0112,-6.0112,-6.0112,-6.0112,-6.0112,-6.0112,-6.0112,-6.0112,-6.0112,-6.0112,-6.0112,-6.0112,-6.0112,-6.0112,-6.0809,-6.1118,-6.1079,-6.077,-6.0422,-6.0074,-5.9571,-5.9377,-5.9339,-5.8806,-5.8613,-5.8604,-5.8586,-5.8344,-5.7958,-5.7428,-5.7023,-5.6608,-5.6078,-5.5895,-5.5865,-5.5845,-5.5835,-5.5797,-5.5766,-5.5756,-5.5756,-5.5714,-5.5703,-5.5703,-5.5703,-5.5703,-5.5703,-5.5703,-5.5703,-5.5472,-5.4664,-5.3818,-5.2933,-5.2038,-5.1241,-5.0712,-5.0712,-5.0594,-5.0472,-5.0374,-5.0325,-5.0358,-5.0493,-5.0504,-5.0573,-5.0702,-5.0712,-5.0481,-4.9933,-4.9586,-4.8894,-4.7759,-4.6694,-4.5988,-4.5676,-4.5676,-4.5612,-4.5482,-4.5482,-4.5482,-4.5482,-4.5547,-4.559,-3.721,0.0,0.0,0.0,0.0,0.0,0.0,0.0,0.0,0.0,0.0,-5.4194,-5.5741,-5.4735,-5.4503,-5.6815,-5.7241,-5.7598,-5.8372,-5.8535,-5.8613,-5.8613,-5.93,-5.9764,-5.9764,-5.9764,-5.9764,-5.9764,-5.9029,-5.8613,-5.8613,-5.8613,-5.8613,-5.8613,-5.8613,-5.8613,-5.8613,-5.8613,-5.8613,-5.8613,-5.8613,-5.8613,-5.8651,-6.019,-6.0886,-6.0847,-6.0112,-5.9339,-5.8613,-5.8488,-5.8488,-5.8488,-5.841,-5.8363,-5.8353,-5.8278,-5.7757,-5.7091,-5.7082,-5.656,-5.5885,-5.5807,-5.5787,-5.5776,-5.5724,-5.5703,-5.5703,-5.5703,-5.5703,-5.5703,-5.5703,-5.5703,-5.5703,-5.5703,-5.5703,-5.5703,-5.5703,-5.5703,-5.5434,-5.4549,-5.3741,-5.2895,-5.1962,-5.1144,-5.0634,-5.0614,-5.0358,-5.0087,-4.9844,-4.9803,-4.991,-5.0147,-5.0171,-5.0302,-5.0594,-5.0614,-5.0614,-5.0614,-4.9874,-4.9283,-4.8976,-4.7644,-4.65,-4.5683,-4.5607,-4.5438,-4.5201,-4.518,-4.5169,-4.5169,-4.5222,-4.539,0.0,-3.8511,0.0,0.0,0.0,0.0,0.0,0.0,0.0,0.0,0.0,-5.5586,-5.5935,-5.5702,-5.5625,-5.6197,-5.6854,-5.7357,-5.7559,-5.8178,-5.8613,-5.8613,-5.8767,-5.8874,-5.8874,-5.8874,-5.8874,-5.8874,-5.8729,-5.8613,-5.8613,-5.8613,-5.8613,-5.8613,-5.8613,-5.8613,-5.8613,-5.8613,-5.8613,-5.8613,-5.8613,-5.8613,-5.8613,-5.8952,-5.9145,-5.9145,-5.8952,-5.8758,-5.8535,-5.7869,-5.7541,-5.7428,-5.6809,-5.655,-5.6474,-5.6464,-5.6339,-5.6184,-5.6175,-5.603,-5.5807,-5.5797,-5.5766,-5.5724,-5.5714,-5.5703,-5.5703,-5.5703,-5.5703,-5.5703,-5.5703,-5.5703,-5.5703,-5.5703,-5.5703,-5.5703,-5.5703,-5.5703,-5.5241,-5.378,-5.3318,-5.2741,-5.1202,-5.0598,-5.0256,-5.0025,-4.9936,-4.987,-4.9817,-4.9803,-4.983,-4.9897,-4.9897,-4.9923,-4.9987,-4.9987,-4.9987,-4.9987,-4.9835,-4.9379,-4.8618,-4.7524,-4.6695,-4.6247,-4.5607,-4.5253,-4.5201,-4.4977,-4.4872,-4.4884,-4.4896,-4.4931,0.0,0.0,0.0,0.0,0.0,0.0,0.0,0.0,0.0,0.0,0.0,0.0,-5.6012,-5.6012,-5.6012,-5.6012,-5.639,-5.6661,-5.6661,-5.7056,-5.7366,-5.7366,-5.7714,-5.7985,-5.7985,-5.7985,-5.7985,-5.7985,-5.7598,-5.7366,-5.7366,-5.7366,-5.7366,-5.7366,-5.7366,-5.7366,-5.7366,-5.7366,-5.7366,-5.7366,-5.7366,-5.7357,-5.7369,-5.8208,-5.8363,-5.7919,-5.7919,-5.7669,-5.7255,-5.683,-5.6618,-5.6522,-5.6136,-5.5924,-5.5895,-5.5875,-5.5865,-5.5865,-5.5835,-5.5776,-5.5756,-5.5756,-5.5735,-5.5703,-5.5703,-5.5703,-5.5703,-5.5703,-5.5703,-5.5703,-5.5703,-5.5703,-5.5703,-5.5703,-5.5703,-5.5703,-5.5703,-5.5703,-5.5203,-5.3549,-5.3203,-5.2633,-5.08,-5.0195,-4.9923,-4.9637,-4.9631,-4.9535,-4.9386,-4.9355,-4.9416,-4.9602,-4.9631,-4.9651,-4.979,-4.9803,-4.9803,-4.9803,-4.9803,-4.9546,-4.8975,-4.8123,-4.7198,-4.6221,-4.5814,-4.5349,-4.4825,-4.4676,-4.4612,-4.4612,-4.4612,-4.4676,0.0,0.0,0.0,0.0,0.0,0.0,0.0,0.0,0.0,0.0,0.0,0.0,-5.6012,-5.6012,-5.6012,-5.6012,-5.6012,-5.6012,-5.6012,-5.6012,-5.6012,-5.6012,-5.6622,-5.7086,-5.7086,-5.7086,-5.7086,-5.7086,-5.639,-5.6012,-5.6012,-5.6012,-5.6012,-5.6012,-5.6012,-5.6012,-5.6012,-5.6012,-5.6003,-5.5995,-5.5986,-5.5959,-5.6039,-5.7476,-5.7707,-5.6975,-5.6975,-5.656,-5.5895,-5.5895,-5.5895,-5.5885,-5.5885,-5.5885,-5.5865,-5.5797,-5.5776,-5.5776,-5.5724,-5.5703,-5.5703,-5.5703,-5.5703,-5.5703,-5.5703,-5.5703,-5.5703,-5.5703,-5.5703,-5.5703,-5.5703,-5.5703,-5.5703,-5.5703,-5.5682,-5.566,-5.5703,-5.5703,-5.5203,-5.3549,-5.2941,-5.2143,-5.0352,-4.9884,-4.9622,-4.9368,-4.9321,-4.9225,-4.8925,-4.889,-4.901,-4.9289,-4.9321,-4.9393,-4.9637,-4.9651,-4.9651,-4.9651,-4.9651,-4.9535,-4.9337,-4.8813,-4.7847,-4.6323,-4.6036,-4.5442,-4.4397,-4.4341,-4.4313,-4.4313,-4.4313,-4.4438,0.0,0.0,0.0,0.0,0.0,0.0,0.0,0.0,0.0,0.0,0.0,0.0,-5.6012,-5.6012,-5.6012,-5.6012,-5.6012,-5.6012,-5.6012,-5.6012,-5.6012,-5.6012,-5.6081,-5.6158,-5.6158,-5.6158,-5.6158,-5.6158,-5.6089,-5.6012,-5.6012,-5.6012,-5.6012,-5.6012,-5.6012,-5.6012,-5.6012,-5.6012,-5.5986,-5.5989,-5.5943,-5.5914,-5.5905,-5.6146,-5.6184,-5.6069,-5.6069,-5.602,-5.5895,-5.5895,-5.5875,-5.5797,-5.5797,-5.5776,-5.5724,-5.5724,-5.5714,-5.5714,-5.5714,-5.5703,-5.5703,-5.5703,-5.5703,-5.5703,-5.5703,-5.5703,-5.5703,-5.5703,-5.5703,-5.5703,-5.5703,-5.5703,-5.5703,-5.5703,-5.5508,-5.5413,-5.566,-5.5703,-5.5203,-5.3549,-5.1776,-5.0366,-4.964,-4.9469,-4.9331,-4.901,-4.8959,-4.8942,-4.889,-4.889,-4.8907,-4.8959,-4.8959,-4.8976,-4.9027,-4.9027,-4.9027,-4.9027,-4.9027,-4.901,-4.8959,-4.8898,-4.8394,-4.7499,-4.6285,-4.5251,-4.4397,-4.4162,-4.4048,-4.4048,-4.4048,-4.4079,0.0,0.0,0.0,0.0,0.0,0.0,0.0,0.0,0.0,0.0,0.0,0.0,-5.523,-5.5715,-5.6007,-5.6007,-5.598,-5.5923,-5.5923,-5.5923,-5.598,-5.6007,-5.6007,-5.6016,-5.6003,-5.6012,-5.6012,-5.6012,-5.6012,-5.6012,-5.6012,-5.6012,-5.6012,-5.6012,-5.6012,-5.6012,-5.6012,-5.6012,-5.5986,-5.6009,-5.5895,-5.5827,-5.5817,-5.5825,-5.5797,-5.5827,-5.5827,-5.5807,-5.5776,-5.5776,-5.5766,-5.5745,-5.5745,-5.5735,-5.5703,-5.5703,-5.5703,-5.5703,-5.5703,-5.5703,-5.5703,-5.5703,-5.5703,-5.5703,-5.5703,-5.5615,-5.5473,-5.5473,-5.5473,-5.5473,-5.5473,-5.5473,-5.5473,-5.5473,-5.5224,-5.505,-5.5172,-5.5198,-5.4702,-5.3022,-5.1089,-4.9703,-4.9461,-4.9257,-4.9077,-4.8907,-4.889,-4.889,-4.889,-4.889,-4.889,-4.889,-4.889,-4.889,-4.889,-4.889,-4.889,-4.889,-4.889,-4.889,-4.889,-4.889,-4.8519,-4.7738,-4.6659,-4.573,-4.4909,-4.4287,-4.3986,-4.3986,-4.3986,-4.3986,0.0,0.0,0.0,0.0,0.0,0.0,0.0,0.0,0.0,0.0,0.0,0.0,-5.3997,-5.4946,-5.5652,-5.5652,-5.5808,-5.5895,-5.5895,-5.5895,-5.5914,-5.5952,-5.5952,-5.5971,-5.5968,-5.5986,-5.5986,-5.5986,-5.6003,-5.6012,-5.6012,-5.6012,-5.6012,-5.6012,-5.5995,-5.5986,-5.5986,-5.5968,-5.5941,-5.5943,-5.5817,-5.5766,-5.5766,-5.5724,-5.5735,-5.5766,-5.5766,-5.5745,-5.5703,-5.5703,-5.5703,-5.5703,-5.5703,-5.5703,-5.5703,-5.5703,-5.5703,-5.5703,-5.5703,-5.5703,-5.5692,-5.5638,-5.5577,-5.5566,-5.5508,-5.5313,-5.5183,-5.5183,-5.5183,-5.5183,-5.5183,-5.5183,-5.5183,-5.5183,-5.4909,-5.47,-5.4776,-5.4465,-5.3754,-5.2431,-5.0674,-4.9384,-4.9289,-4.9061,-4.889,-4.889,-4.889,-4.889,-4.889,-4.889,-4.889,-4.889,-4.889,-4.889,-4.889,-4.889,-4.889,-4.889,-4.889,-4.889,-4.889,-4.889,-4.863,-4.8036,-4.6995,-4.6104,-4.5287,-4.4432,-4.3986,-4.3986,-4.3986,-4.3986,0.0,0.0,0.0,0.0,0.0,0.0,0.0,0.0,0.0,0.0,0.0,0.0,0.0,-5.356,-5.4679,-5.4679,-5.5364,-5.5895,-5.5895,-5.5895,-5.5895,-5.5905,-5.5905,-5.5905,-5.5905,-5.5952,-5.6018,-5.6018,-5.5986,-5.6012,-5.6012,-5.6012,-5.6012,-5.6012,-5.6007,-5.6018,-5.6018,-5.5856,-5.5807,-5.5797,-5.5745,-5.5714,-5.5714,-5.5703,-5.5714,-5.5714,-5.5714,-5.5714,-5.5703,-5.5703,-5.5703,-5.5703,-5.5703,-5.5703,-5.5703,-5.5703,-5.5703,-5.5703,-5.5703,-5.5703,-5.5671,-5.5401,-5.5326,-5.5275,-5.4938,-5.4836,-5.4821,-5.4821,-5.4821,-5.4821,-5.4821,-5.4821,-5.4821,-5.4821,-5.4576,-5.4413,-5.4731,-5.3556,-5.2309,-5.1876,-5.0519,-4.9305,-4.8976,-4.8907,-4.889,-4.889,-4.889,-4.889,-4.889,-4.889,-4.889,-4.889,-4.889,-4.889,-4.889,-4.889,-4.889,-4.889,-4.889,-4.889,-4.889,-4.889,-4.889,-4.8853,-4.7293,-4.6104,-4.5287,-4.4432,-4.3986,-4.3986,-4.3986,-4.3986,0.0,0.0,0.0,0.0,0.0,0.0,0.0,0.0,0.0,0.0,0.0,0.0,0.0,-5.2599,-5.3774,-5.3774,-5.3976,-5.4177,-5.4177,-5.4177,-5.439,-5.492,-5.5007,-5.5249,-5.5856,-5.5422,-5.5084,-5.5084,-5.4601,-5.4339,-5.4339,-5.4339,-5.4339,-5.4339,-5.4321,-5.4312,-5.4312,-5.4747,-5.4978,-5.4978,-5.5465,-5.5703,-5.5703,-5.5703,-5.5703,-5.5703,-5.5703,-5.5703,-5.5703,-5.5703,-5.5703,-5.5703,-5.5703,-5.5703,-5.5703,-5.5703,-5.5577,-5.5437,-5.5437,-5.5288,-5.5105,-5.5009,-5.4966,-5.4952,-5.4836,-5.4654,-5.4479,-5.4479,-5.4479,-5.4479,-5.4479,-5.4479,-5.4413,-5.4231,-5.4072,-5.3999,-5.4143,-5.2868,-5.1673,-5.1573,-5.0196,-4.9044,-4.8907,-4.889,-4.889,-4.889,-4.889,-4.889,-4.889,-4.889,-4.889,-4.889,-4.889,-4.889,-4.889,-4.889,-4.889,-4.889,-4.889,-4.889,-4.889,-4.889,-4.889,-4.889,-4.7813,-4.6884,-4.6067,-4.4692,-4.3986,-4.3986,-4.3986,-4.3986,-2.8308,0.0,0.0,0.0,0.0,0.0,0.0,0.0,0.0,0.0,0.0,0.0,0.0,0.0,-5.2184,-5.2752,-5.3031,-5.3203,-5.3203,-5.3203,-5.3405,-5.3985,-5.4062,-5.4313,-5.492,-5.4477,-5.415,-5.415,-5.3705,-5.3406,-5.3406,-5.3406,-5.3397,-5.3378,-5.3378,-5.3369,-5.3311,-5.3812,-5.4062,-5.4062,-5.4608,-5.4857,-5.4857,-5.5164,-5.528,-5.5318,-5.5588,-5.5703,-5.5703,-5.5703,-5.5703,-5.5703,-5.5588,-5.5554,-5.5543,-5.5449,-5.5275,-5.5119,-5.5119,-5.4981,-5.4776,-5.467,-5.4639,-5.4607,-5.4495,-5.4296,-5.4143,-5.4143,-5.4143,-5.4143,-5.4143,-5.4143,-5.4072,-5.3851,-5.3794,-5.372,-5.346,-5.2345,-5.1416,-5.1416,-5.0042,-4.889,-4.889,-4.889,-4.889,-4.889,-4.889,-4.889,-4.889,-4.889,-4.889,-4.889,-4.889,-4.889,-4.889,-4.889,-4.889,-4.889,-4.889,-4.889,-4.889,-4.889,-4.889,-4.889,-4.811,-4.7293,-4.6513,-4.5101,-4.4283,-4.3986,-4.3986,-4.3986,0.0,0.0,0.0,0.0,0.0,0.0,0.0,0.0,0.0,0.0,0.0,0.0,0.0,0.0,0.0,-5.15,-5.2538,-5.3126,-5.3126,-5.3126,-5.3126,-5.3164,-5.3164,-5.3164,-5.3203,-5.3253,-5.3244,-5.3244,-5.3292,-5.3329,-5.3329,-5.3329,-5.3301,-5.3244,-5.3205,-5.3176,-5.3126,-5.3164,-5.3164,-5.3164,-5.3203,-5.3203,-5.3241,-5.4087,-5.4472,-5.4511,-5.5318,-5.5665,-5.5665,-5.5703,-5.5703,-5.5671,-5.5401,-5.5301,-5.5249,-5.4909,-5.4791,-5.4776,-5.4776,-5.4776,-5.4716,-5.438,-5.4279,-5.421,-5.3907,-5.3794,-5.3794,-5.3794,-5.3794,-5.3794,-5.3794,-5.3794,-5.3794,-5.3794,-5.3794,-5.3571,-5.2791,-5.1974,-5.1379,-5.1379,-5.0042,-4.889,-4.889,-4.889,-4.889,-4.889,-4.889,-4.889,-4.889,-4.889,-4.889,-4.889,-4.889,-4.889,-4.889,-4.889,-4.889,-4.889,-4.889,-4.889,-4.889,-4.889,-4.889,-4.889,-4.8147,-4.733,-4.6513,-4.5695,-4.4841,-4.3986,-4.3986,-4.3986,-2.6467,0.0,0.0,0.0,0.0,0.0,0.0,0.0,0.0,0.0,0.0,0.0,0.0,0.0,0.0,0.0,-5.0394,-5.1395,-5.1395,-5.1395,-5.1625,-5.2192,-5.2269,-5.25,-5.3126,-5.2636,-5.2299,0.0,-5.178,-5.1443,-5.1443,-5.1443,-5.1443,-5.1424,-5.1424,-5.1414,-5.1395,-5.1972,-5.2269,-5.2269,-5.2895,-5.3203,-5.3203,-5.3433,-5.3549,-5.3626,-5.4472,-5.4818,-5.4895,-5.5472,-5.5604,-5.5401,-5.5326,-5.5132,-5.4924,-5.4836,-5.4654,-5.443,-5.443,-5.4262,-5.4054,-5.3944,-5.3963,-5.3926,-5.3832,-5.3794,-5.3794,-5.3794,-5.3794,-5.3794,-5.3794,-5.3794,-5.3794,-5.3794,-5.3794,-5.3571,-5.2791,-5.1974,-5.1193,-5.0599,-4.9633,-4.889,-4.889,-4.889,-4.889,-4.889,-4.889,-4.889,-4.889,-4.889,-4.889,-4.889,-4.889,-4.889,-4.889,-4.889,-4.889,-4.889,-4.889,-4.889,-4.889,-4.889,-4.889,-4.889,-4.8667,-4.8184,-4.7367,-4.5992,-4.4841,-4.3986,-4.3986,-4.3986,-2.8082,-2.8544,0.0,0.0,0.0,0.0,0.0,-3.5007,0.0,0.0,0.0,0.0,0.0,0.0,0.0,0.0,-4.8509,-4.974,-5.0087,-5.0164,-5.0471,-5.1318,-5.1395,-5.1587,-5.2125,-5.1702,-5.1395,-5.1395,-5.0971,-5.0712,-5.0712,-5.0712,-5.0712,-5.0712,-5.0712,-5.0712,-5.0712,-5.1164,-5.1395,-5.1395,-5.1895,-5.2164,-5.2164,-5.251,-5.2654,-5.2692,-5.3454,-5.3985,-5.4319,-5.4685,-5.4995,-5.5275,-5.4995,-5.4776,-5.4576,-5.443,-5.4245,-5.4089,-5.4089,-5.3944,-5.3794,-5.3794,-5.3794,-5.3794,-5.3794,-5.3794,-5.3794,-5.3794,-5.3794,-5.3794,-5.3794,-5.3794,-5.372,-5.3385,-5.3311,-5.2977,-5.1825,-5.1193,-5.0711,-5.019,-4.9447,-4.889,-4.889,-4.889,-4.889,-4.889,-4.889,-4.889,-4.889,-4.889,-4.889,-4.889,-4.889,-4.889,-4.889,-4.889,-4.889,-4.889,-4.889,-4.889,-4.889,-4.889,-4.889,-4.889,-4.889,-4.8519,-4.7701,-4.6401,-4.5175,-4.3986,-4.3986,-4.3986,-3.0411,-3.0994,-3.2545,0.0,0.0,0.0,-3.5815,-3.5353,-3.4821,0.0,0.0,0.0,0.0,0.0,0.0,0.0,0.0,-4.7971,-4.9086,-4.924,-4.9548,-5.0327,-5.0404,-5.0404,-5.0404,-5.0519,-5.0558,-5.0558,-5.0635,-5.0702,-5.0634,-5.0634,-5.0634,-5.0634,-5.0634,-5.0644,-5.0712,-5.0712,-5.0712,-5.0712,-5.0644,-5.0644,-5.0702,-5.1383,-5.168,-5.1729,-5.2353,-5.3009,-5.3658,-5.349,-5.4102,-5.5119,-5.4544,-5.4262,-5.4231,-5.3926,-5.3794,-5.3794,-5.3794,-5.3794,-5.3794,-5.3794,-5.3794,-5.3794,-5.3794,-5.3794,-5.3794,-5.3794,-5.3794,-5.3794,-5.3683,-5.3683,-5.346,-5.2679,-5.2457,-5.2048,-5.045,-5.0116,-5.0079,-4.9968,-4.941,-4.889,-4.889,-4.889,-4.889,-4.889,-4.889,-4.889,-4.889,-4.889,-4.889,-4.889,-4.889,-4.889,-4.889,-4.889,-4.889,-4.889,-4.889,-4.889,-4.889,-4.889,-4.889,-4.889,-4.889,-4.8519,-4.7701,-4.681,-4.5584,-4.4135,-4.4061,-4.3986,-3.4297,-3.4824,0.0,0.0,0.0,0.0,-3.0544,-3.1083,-3.2545,0.0,0.0,0.0,0.0,0.0,0.0,0.0,0.0,-4.5086,-4.7971,-4.8355,-4.8432,-4.8586,-4.8625,-4.8625,-4.8625,-4.924,-4.9663,-4.9663,-5.0289,-5.0594,-5.0325,-5.0313,-5.0313,-5.0313,-5.0313,-5.0451,-5.0712,-5.0712,-5.0712,-5.0702,-5.0451,-5.0451,-5.0702,-5.0362,-5.0316,-5.057,-5.1167,-5.1505,-5.1719,-5.2085,-5.3144,-5.4479,-5.4347,-5.4143,-5.3889,-5.3813,-5.3794,-5.3794,-5.3794,-5.3794,-5.3794,-5.3794,-5.3794,-5.3794,-5.3794,-5.3794,-5.3794,-5.3794,-5.3794,-5.3645,-5.3014,-5.2828,-5.2642,-5.1825,-5.1639,-5.1342,-5.0339,-5.0116,-4.993,-4.9262,-4.9002,-4.889,-4.889,-4.889,-4.889,-4.889,-4.889,-4.889,-4.889,-4.889,-4.889,-4.889,-4.889,-4.889,-4.889,-4.889,-4.889,-4.889,-4.889,-4.889,-4.889,-4.889,-4.889,-4.889,-4.889,-4.8519,-4.7701,-4.6252,-4.5361,-4.5026,-4.4321,-4.3986,-3.6205,0.0,0.0,-3.5408,0.0,0.0,0.0,-3.1898,-3.2429,-3.493,0.0,0.0,0.0,0.0,0.0,0.0,0.0,0.0,-4.4124,-4.6163,-4.7663,-4.8048,-4.8086,-4.8086,-4.8086,-4.8509,-4.874,-4.874,-4.9037,-4.9307,-4.9595,-4.9477,-4.9656,-5.0195,-5.0195,-5.0264,-5.0462,-5.0462,-5.0369,-5.0256,-5.0075,-5.0087,-5.0245,-4.9936,-4.9884,-5.0,-5.0175,-5.0499,-5.0847,-5.0954,-5.1737,-5.2895,-5.3306,-5.3329,-5.3237,-5.3645,-5.3794,-5.3757,-5.3348,-5.32,-5.3162,-5.2717,-5.2605,-5.2605,-5.2605,-5.2605,-5.2605,-5.2605,-5.2605,-5.2531,-5.2122,-5.2011,-5.1788,-5.0933,-5.0748,-5.0525,-4.967,-4.9522,-4.9373,-4.9002,-4.889,-4.889,-4.889,-4.889,-4.889,-4.889,-4.889,-4.889,-4.889,-4.889,-4.889,-4.889,-4.889,-4.889,-4.889,-4.889,-4.889,-4.889,-4.889,-4.889,-4.889,-4.889,-4.889,-4.889,-4.889,-4.8704,-4.8296,-4.7107,-4.6067,-4.5287,-4.4841,-4.4432,0.0,0.0,0.0,0.0,0.0,-3.5708,0.0,0.0,0.0,-3.6113,0.0,0.0,0.0,0.0,0.0,0.0,0.0,0.0,0.0,0.0,0.0,-4.6547,-4.6932,-4.7124,-4.7124,-4.7097,-4.7366,-4.8038,-4.7371,-4.7438,-4.8598,-4.8555,-4.8895,-4.9783,-4.9974,-5.0075,-5.0123,-5.0123,-5.0025,-4.9803,-4.9749,-4.9749,-4.9803,-4.9693,-4.9665,-4.9707,-4.9423,-4.968,-5.0247,-4.9978,-5.0302,-5.1008,-5.1974,-5.2382,-5.2457,-5.3088,-5.3348,-5.3237,-5.2605,-5.2382,-5.2271,-5.1602,-5.1416,-5.1416,-5.1416,-5.1416,-5.1416,-5.1416,-5.1416,-5.1342,-5.1193,-5.1156,-5.0933,-5.0079,-4.9893,-4.9707,-4.9039,-4.889,-4.889,-4.889,-4.889,-4.889,-4.889,-4.889,-4.889,-4.889,-4.889,-4.889,-4.889,-4.889,-4.889,-4.889,-4.889,-4.889,-4.889,-4.889,-4.889,-4.889,-4.889,-4.889,-4.889,-4.889,-4.889,-4.889,-4.889,-4.889,-4.889,-4.8259,-4.7181,-4.5732,-4.5435,-4.4915,0.0,0.0,0.0,0.0,-4.049,0.0,0.0,0.0,-3.4897,-3.2403,0.0,0.0,0.0,0.0,0.0,0.0,0.0,0.0,0.0,0.0,0.0,-4.1285,-4.2739,-4.3662,-4.3662,-4.3519,-4.47,-4.7846,-4.567,-4.5147,-4.7391,-4.7905,-4.8213,-4.8317,-4.9108,-4.9617,-4.9857,-4.9857,-4.9844,-4.9803,-4.9573,-4.9573,-4.979,-4.9268,-4.9139,-4.9446,-4.911,-4.9016,-4.9091,-4.9056,-4.9076,-4.9336,-5.0933,-5.1528,-5.1565,-5.1639,-5.1676,-5.1676,-5.1565,-5.1528,-5.1528,-5.1416,-5.1416,-5.1416,-5.1416,-5.1416,-5.1416,-5.1416,-5.1416,-5.1231,-5.045,-5.0265,-5.0042,-4.9224,-4.9039,-4.9002,-4.8927,-4.889,-4.889,-4.889,-4.889,-4.889,-4.889,-4.889,-4.889,-4.889,-4.889,-4.889,-4.889,-4.889,-4.889,-4.889,-4.889,-4.889,-4.889,-4.889,-4.889,-4.889,-4.889,-4.889,-4.889,-4.889,-4.889,-4.889,-4.889,-4.889,-4.889,-4.8816,-4.8296,-4.7404,-4.5955,-4.5249,0.0,0.0,0.0,0.0,0.0,0.0,-3.57,0.0,-3.468,0.0,0.0,0.0,0.0,0.0,0.0,0.0,-3.3881,0.0,0.0,0.0,0.0,0.0,0.0,0.0,-4.1336,-4.1368,-4.2364,-4.4777,-4.3144,-4.3151,-4.5723,-4.6246,-4.6981,-4.8063,-4.8438,-4.895,-4.9573,-4.9573,-4.9484,-4.9299,-4.9155,-4.9155,-4.9283,-4.9027,-4.8976,-4.911,-4.8959,-4.889,-4.889,-4.889,-4.889,-4.8964,-4.967,-5.0228,-5.0711,-5.1193,-5.1416,-5.1342,-5.0859,-5.0673,-5.0562,-5.0116,-4.9968,-4.9968,-4.9968,-4.9968,-4.9968,-4.9968,-4.9968,-4.9856,-4.9522,-4.941,-4.9336,-4.9002,-4.889,-4.889,-4.889,-4.889,-4.889,-4.889,-4.889,-4.889,-4.889,-4.889,-4.889,-4.889,-4.889,-4.889,-4.889,-4.889,-4.889,-4.889,-4.889,-4.889,-4.889,-4.889,-4.889,-4.889,-4.889,-4.889,-4.889,-4.889,-4.889,-4.889,-4.889,-4.889,-4.889,-4.889,-4.8742,-4.837,-4.7218,-4.6178,-4.3162,0.0,0.0,0.0,0.0,0.0,0.0,0.0,0.0,0.0,0.0,0.0,0.0,0.0,0.0,-3.26,0.0,-3.3058,0.0,0.0,0.0,0.0,0.0,0.0,0.0,-3.8753,-3.9479,-4.1848,-4.0378,-4.0829,-4.4172,-4.4722,-4.5674,-4.7289,-4.7738,-4.83,-4.8936,-4.9161,-4.9144,-4.889,-4.889,-4.889,-4.889,-4.889,-4.889,-4.889,-4.889,-4.889,-4.889,-4.889,-4.889,-4.889,-4.889,-4.9262,-4.9856,-5.0488,-5.0711,-5.0636,-5.0042,-4.9819,-4.967,-4.9076,-4.889,-4.889,-4.889,-4.889,-4.889,-4.889,-4.889,-4.889,-4.889,-4.889,-4.889,-4.889,-4.889,-4.889,-4.889,-4.889,-4.889,-4.889,-4.889,-4.889,-4.889,-4.889,-4.889,-4.889,-4.889,-4.889,-4.889,-4.889,-4.889,-4.889,-4.889,-4.889,-4.889,-4.889,-4.889,-4.889,-4.889,-4.889,-4.889,-4.889,-4.889,-4.889,-4.889,-4.889,-4.889,-4.889,-4.889,-4.889,-4.8073,-4.6958,0.0,0.0,0.0,-4.036,0.0,0.0,0.0,0.0,-3.6396,0.0,0.0,0.0,0.0,-3.5963,-3.4907,-3.3505,-3.3317,0.0,0.0,0.0,0.0,0.0,0.0,0.0,0.0,-3.4984,-3.5663,0.0,-3.7416,-3.7878,-4.2983,-4.3759,-4.4469,-4.534,-4.6901,-4.7718,-4.7755,-4.8536,-4.8907,-4.889,-4.889,-4.889,-4.889,-4.889,-4.889,-4.889,-4.889,-4.889,-4.889,-4.889,-4.889,-4.889,-4.889,-4.8927,-4.8927,-4.8964,-4.9002,-4.8964,-4.8964,-4.8927,-4.8927,-4.8927,-4.889,-4.889,-4.889,-4.889,-4.889,-4.889,-4.889,-4.889,-4.889,-4.889,-4.889,-4.889,-4.889,-4.889,-4.889,-4.889,-4.889,-4.889,-4.889,-4.889,-4.889,-4.889,-4.889,-4.889,-4.889,-4.889,-4.889,-4.889,-4.889,-4.889,-4.889,-4.889,-4.889,-4.889,-4.889,-4.889,-4.889,-4.889,-4.889,-4.889,-4.889,-4.889,-4.889,-4.889,-4.889,-4.889,-4.889,-4.889,-4.8073,-4.7256,-4.6472,-4.6706,-4.6397,-4.2669,-4.1478,-4.0291,0.0,0.0,0.0,0.0,0.0,0.0,0.0,-3.6049,-3.5144,-3.4062,-3.3114,-3.1624,0.0,0.0,0.0,0.0,0.0,0.0,0.0,0.0,0.0,-3.7045,-3.6169,-3.7516,-4.2079,-4.2887,-4.3838,-4.5249,-4.5844,-4.6624,-4.7701,-4.7961,-4.837,-4.889,-4.889,-4.889,-4.889,-4.889,-4.889,-4.889,-4.889,-4.889,-4.889,-4.889,-4.889,-4.889,-4.889,-4.889,-4.889,-4.889,-4.889,-4.889,-4.889,-4.889,-4.889,-4.889,-4.889,-4.889,-4.889,-4.889,-4.889,-4.889,-4.889,-4.889,-4.889,-4.889,-4.889,-4.889,-4.889,-4.889,-4.889,-4.889,-4.889,-4.889,-4.889,-4.889,-4.889,-4.889,-4.889,-4.889,-4.889,-4.889,-4.889,-4.889,-4.889,-4.889,-4.889,-4.889,-4.889,-4.889,-4.889,-4.889,-4.889,-4.889,-4.889,-4.889,-4.889,-4.889,-4.889,-4.889,-4.889,-4.889,-4.889,-4.889,-4.863,-4.8073,-4.7664,-4.7738,-4.7363,-4.4222,-4.2917,-4.1615,-3.8476,-3.8497,-3.8822,0.0,0.0,0.0,0.0,-3.7485,-3.5962,-3.486,-3.3414,-3.1294,0.0,-2.6795,0.0,0.0,0.0,0.0,0.0,0.0,-3.2032,-3.5119,-3.4892,0.0,0.0,-4.1822,-4.2983,-4.4358,-4.4989,-4.5807,-4.6847,-4.7404,-4.7961,-4.8481,-4.8779,-4.889,-4.889,-4.889,-4.889,-4.889,-4.889,-4.889,-4.889,-4.889,-4.889,-4.889,-4.889,-4.889,-4.889,-4.889,-4.889,-4.889,-4.889,-4.889,-4.889,-4.889,-4.889,-4.889,-4.889,-4.889,-4.889,-4.889,-4.889,-4.889,-4.889,-4.889,-4.889,-4.889,-4.889,-4.889,-4.889,-4.889,-4.889,-4.889,-4.889,-4.889,-4.889,-4.889,-4.889,-4.889,-4.889,-4.889,-4.889,-4.889,-4.889,-4.889,-4.889,-4.889,-4.889,-4.889,-4.889,-4.889,-4.889,-4.889,-4.889,-4.889,-4.889,-4.889,-4.889,-4.889,-4.889,-4.889,-4.889,-4.889,-4.889,-4.863]},{"header":{"parameterUnit":"m.s-1","parameterCategory":1,"la1":30.6,"la2":29.2853,"lo1":-89.7004,"lo2":-87.6739,"dy":0.0162,"dx":0.0183,"nx":112,"ny":82,"refTime":"2024-06-03T06:00:00:Z","depth":0,"parameterNumber":3,"parameterNumberName":"V-component_of_WINDS"},"data":[0.0,0.0,0.0,0.0,0.0,0.0,0.0,0.0,0.0,0.0,0.0,0.0,0.0,0.0,0.0,0.0,0.0,0.0,0.0,0.0,0.0,0.0,0.0,0.0,0.0,0.0,0.0,0.0,0.0,0.0,0.0,0.0,0.0,0.0,0.0,0.0,0.0,0.0,0.0,0.0,0.0,0.0,0.0,0.0,0.0,0.0,0.0,0.0,0.0,0.0,0.0,0.0,0.0,0.0,0.0,0.0,0.0,0.0,0.0,0.0,0.0,0.0,0.0,0.0,0.0,0.0,0.0,0.0,0.0,0.0,0.0,0.0,0.0,0.0,0.0,0.0,0.0,0.0,0.0,0.0,0.0,0.0,0.0,0.0,0.0,0.0,0.0,0.0,0.0,0.0,0.0,0.4367,0.5311,0.5893,0.575,0.5599,0.5205,0.458,0.0,0.0,0.0,0.0,0.0,0.0,0.0,0.0,0.0,0.0,0.0,0.0,0.0,0.0,0.0,0.0,0.0,0.0,0.0,0.0,0.0,0.0,0.0,0.0,0.0,0.0,0.0,0.0,0.0,0.0,0.0,0.0,0.0,0.0,0.0,0.0,0.0,0.0,0.0,0.0,0.0,0.0,0.0,0.0,0.0,0.0,0.0,0.0,0.0,0.0,0.0,0.0,0.0,0.0,0.0,0.0,0.0,0.0,0.0,0.0,0.0,0.0,0.0,0.0,0.0,0.0,0.0,0.0,0.0,0.0,0.0,0.0,0.0,0.0,0.0,0.0,0.0,0.0,0.0,0.0,0.0,0.0,0.0,0.0,0.0,0.0,0.0,0.0,0.0,0.0,0.0,0.0,0.0,0.0,0.0,0.0,0.0,0.0,0.0,0.0,0.0,0.0,0.0,0.0,0.4198,0.5484,0.5896,0.6051,0.6034,0.5691,0.5243,0.4701,0.0,0.0,0.0,0.0,0.0,0.0,0.0,0.0,0.0,0.0,0.0,0.0,0.0,0.0,0.0,0.0,0.0,0.0,0.0,0.0,0.0,0.0,0.0,0.0,0.0,0.0,0.0,0.0,0.0,0.0,0.0,0.0,0.0,0.0,0.0,0.0,0.0,0.0,0.0,0.0,0.0,0.0,0.0,0.0,0.0,0.0,0.0,0.0,0.0,0.0,0.0,0.0,0.0,0.0,0.0,0.0,0.0,0.0,0.0,0.0,0.0,0.0,0.0,0.0,0.0,0.0,0.0,0.0,0.0,0.0,0.0,0.0,0.0,0.0,0.0,0.0,0.0,0.0,0.0,0.0,0.0,0.0,0.0,0.0,0.0,0.0,0.0,0.0,0.0,0.0,0.0,0.0,0.0,0.0,0.0,0.0,0.0,0.0,0.0,0.0,0.0,0.0,0.0,0.407,0.4851,0.5915,0.6111,0.6159,0.6089,0.5712,0.5254,0.4728,0.4224,0.0,0.0,0.0,0.0,0.0,0.0,0.0,0.0,0.0,0.0,0.0,0.0,0.0,0.0,0.0,0.0,0.0,0.0,0.0,0.0,0.0,0.0,0.0,0.0,0.0,0.0,0.0,0.0,0.0,0.0,0.0,0.0,0.0,0.0,0.0,0.0,0.0,0.0,0.0,0.0,0.0,0.0,0.0,0.0,0.0,0.0,0.0,0.0,0.0,0.0,0.0,0.0,0.0,0.0,0.0,0.0,0.0,0.0,0.0,0.0,0.0,0.0,0.0,0.0,0.0,0.0,0.0,0.0,0.0,0.0,0.0,0.0,0.0,0.0,0.0,0.0,0.0,0.0,0.0,0.0,0.0,0.0,0.0,0.0,0.0,0.0,0.0,0.0,0.0,0.0,0.0,0.0,0.0,0.0,0.0,0.0,0.0,0.0,0.0,0.0,0.0,0.0,0.5154,0.5513,0.6029,0.6219,0.6246,0.61,0.573,0.5262,0.4728,0.4065,0.0,0.0,0.0,0.0,0.0,0.0,0.0,0.0,0.0,0.0,0.0,0.0,0.0,0.0,0.0,0.0,0.0,0.0,0.0,0.0,0.0,0.0,0.0,0.0,0.0,0.0,0.0,0.0,0.0,0.0,0.0,0.0,0.0,0.0,0.0,0.0,0.0,0.0,0.0,0.0,0.0,0.0,0.0,0.0,0.0,0.0,0.0,0.0,0.0,0.0,0.0,0.0,0.0,0.0,0.0,0.0,0.0,0.0,0.0,0.0,0.0,0.0,0.0,0.0,0.0,0.0,0.0,0.0,0.0,0.0,0.0,0.0,0.0,0.0,0.0,0.0,0.0,0.0,0.0,0.0,0.0,0.0,0.0,0.0,0.0,0.0,0.0,0.0,0.0,0.0,0.0,0.0,0.0,0.0,0.0,0.0,0.0,0.0,0.0,0.0,0.0,0.0,0.5273,0.5795,0.6056,0.629,0.6333,0.6105,0.5654,0.5216,0.4723,0.3912,0.0,0.0,0.0,0.0,0.0,0.0,0.0,0.0,0.0,0.0,0.0,0.0,0.0,0.0,0.0,0.0,0.0,0.0,0.0,0.0,0.0,0.0,0.0,0.0,0.0,0.0,0.0,0.0,0.0,0.0,0.0,0.0,0.0,0.0,0.0,0.0,0.0,0.0,0.0,0.0,0.0,0.0,0.0,0.0,0.0,0.0,0.0,0.0,0.0,0.0,0.0,0.0,0.0,0.0,0.0,0.0,0.0,0.0,0.0,0.0,0.0,0.0,0.0,0.0,0.0,0.0,0.0,0.0,0.0,0.0,0.0,0.0,0.0,0.0,0.0,0.0,0.0,0.0,0.0,0.0,0.0,0.0,0.0,0.0,0.0,0.0,0.0,0.0,0.0,0.0,0.0,0.0,0.0,0.0,0.0,0.0,0.0,0.0,0.0,0.0,0.0,0.0,0.4183,0.4414,0.0,0.4328,0.4609,0.5052,0.4786,0.4614,0.4692,0.0,0.0,0.0,0.0,0.0,0.0,0.0,0.0,0.0,0.0,0.0,0.0,0.0,0.0,0.0,0.0,0.0,0.0,0.0,0.0,0.0,0.0,0.0,0.0,0.0,0.0,0.0,0.0,0.0,0.0,0.0,0.0,0.0,0.0,0.0,0.0,0.0,0.0,0.0,0.0,0.0,0.0,0.0,0.0,0.0,0.0,0.0,0.0,0.0,0.0,0.0,0.0,0.0,0.0,0.0,0.0,0.0,0.0,0.0,0.0,0.0,0.0,0.0,0.0,0.0,0.0,0.0,0.0,0.0,0.0,0.0,0.0,0.0,0.0,0.0,0.0,0.0,0.0,0.0,0.0,0.0,0.0,0.0,0.0,0.0,0.0,0.0,0.0,0.0,0.0,0.0,0.0,0.0,0.0,0.0,0.0,0.0,0.0,0.0,0.0,0.0,0.0,0.3212,0.3371,0.3392,0.0,0.3427,0.389,0.4431,0.4429,0.4462,0.4632,0.0,0.0,0.0,0.0,0.0,0.0,0.0,0.0,0.0,0.0,0.0,0.0,0.0,0.0,0.0,0.0,0.0,0.0,0.0,0.0,0.0,0.0,0.0,0.0,0.0,0.0,0.0,0.0,0.0,0.0,0.0,0.0,0.0,0.0,0.0,0.0,0.0,0.0,0.0,0.0,0.0,0.0,0.0,0.0,0.0,0.0,0.0,0.0,0.0,0.0,0.0,0.0,0.0,0.0,0.0,0.0,0.0,0.0,0.0,0.0,0.0,0.0,0.0,0.0,0.0,0.0,0.0,0.0,0.0,0.0,0.0,0.0,0.0,0.0,0.0,0.0,0.0,0.0,0.0,0.0,0.0,0.0,0.0,0.0,0.0,0.0,0.0,0.0,0.0,0.0,0.0,0.0,0.0,0.0,0.0,0.0,0.0,0.0,0.0,0.0,0.0,0.0,0.3156,0.3014,0.2958,0.2983,0.4016,0.4615,0.4522,0.4793,0.4866,0.0,0.0,0.0,0.0,0.0,0.0,0.0,0.0,0.0,0.0,0.0,0.0,0.0,0.0,0.0,0.0,0.0,0.0,0.0,0.0,0.0,0.0,0.0,0.0,0.0,0.0,0.0,0.0,0.0,0.0,0.0,0.0,0.0,0.0,0.0,0.0,0.0,0.0,0.0,0.0,0.0,0.0,0.0,0.0,0.0,0.0,0.0,0.0,0.0,0.0,0.0,0.0,0.0,0.0,0.0,0.0,0.0,0.0,0.0,0.0,0.0,0.0,0.0,0.0,0.0,0.0,0.0,0.0,0.0,0.0,0.0,0.0,0.0,0.0,0.0,0.0,0.0,0.0,0.0,0.0,0.0,0.0,0.0,0.0,0.0,0.0,0.0,0.0,0.0,0.0,0.0,0.0,0.0,0.0,0.0,0.0,0.0,0.0,0.0,0.0,0.0,0.0,0.0,0.3224,0.3508,0.3549,0.3077,0.3289,0.3788,0.4427,0.4272,0.4279,0.4626,0.0,0.0,0.0,0.0,0.0,0.0,0.0,0.0,0.0,0.0,0.0,0.0,0.0,0.0,0.0,0.0,0.0,0.0,0.0,0.0,0.0,0.0,0.0,0.0,0.0,0.0,0.0,0.0,0.0,0.0,0.0,0.0,0.0,0.0,0.0,0.0,0.0,0.0,0.0,0.0,0.0,0.0,0.0,0.0,0.0,0.0,0.0,0.0,0.0,0.0,0.0,0.0,0.0,0.0,0.0,0.0,0.0,0.0,0.0,0.0,0.0,0.0,0.0,0.0,0.0,0.0,0.0,0.0,0.0,0.0,0.0,0.0,0.0,0.0,0.0,0.0,0.0,0.0,0.0,0.0,0.0,0.0,0.0,0.0,0.0,0.0,0.0,0.0,0.0,0.0,0.0,0.0,0.0,0.0,0.0,0.0,0.0,0.0,0.0,0.0,0.0,0.0,0.2906,0.3302,0.3458,0.303,0.3361,0.3851,0.447,0.4415,0.4412,0.461,0.0,0.0,0.0,0.0,0.0,0.0,0.0,0.0,0.0,0.0,0.0,0.0,0.0,0.0,0.0,0.0,0.0,0.0,0.0,0.0,0.0,0.0,0.0,0.0,0.0,0.0,0.0,0.0,0.0,0.0,0.0,0.0,0.0,0.0,0.0,0.0,0.0,0.0,0.0,0.0,0.0,0.0,0.0,0.0,0.0,0.0,0.0,0.0,0.0,0.0,0.0,0.0,0.0,0.0,0.0,0.0,0.0,0.0,0.0,0.0,0.0,0.0,0.0,0.0,0.0,0.0,0.0,0.0,0.0,0.0,0.0,0.0,0.0,0.0,0.0,0.0,0.0,0.0,0.0,0.0,0.0,0.0,0.0,0.0,0.0,0.0,0.0,0.0,0.0,0.0,0.0,0.0,0.0,0.0,0.0,0.0,0.0,0.0,0.0,0.0,0.0,0.0,0.2485,0.2858,0.3194,0.3275,0.4091,0.4656,0.4656,0.497,0.4991,0.4569,0.0,0.0,0.0,0.0,0.0,0.0,0.0,0.0,0.0,0.0,0.0,0.0,0.0,0.0,0.0,0.0,0.0,0.0,0.0,0.0,0.0,0.0,0.0,0.0,0.0,0.0,0.0,0.0,0.0,0.0,0.0,0.0,0.0,0.0,0.0,0.0,0.0,0.0,0.0,0.0,0.0,0.0,0.0,0.0,0.0,0.0,0.0,0.0,0.0,0.0,0.0,0.0,0.0,0.0,0.0,0.0,0.0,0.0,0.0,0.0,0.088,0.118,0.0,0.0,0.0,0.0,0.0,0.0,0.0,0.0,0.0,0.0,0.0,0.0,0.0,0.0,0.0,0.0,0.0,0.0,0.0,0.0,0.0,0.0,0.0,0.0,0.0,0.0,0.0,0.0,0.0,0.0,0.0,0.0,0.0,0.0,0.0,0.0,0.0,0.0,0.0,0.0,0.3544,0.4573,0.5352,0.5572,0.5709,0.5753,0.5753,0.5405,0.5061,0.4773,0.4136,0.0,0.0,0.0,0.0,0.0,0.0,0.0,0.0,0.0,0.0,0.0,0.0,0.0,0.0,0.0,0.0,0.0,0.0,0.0,0.0,0.0,0.0,0.0,0.0,0.0,0.0,0.0,0.0,0.0,0.0,0.0,0.0,0.0,0.0,0.0,0.0,0.0,0.0,0.0,0.0,0.0,0.0,0.0,0.0,0.0,0.0,0.0,0.0,0.0,0.0,0.0,0.0,0.0,0.0,0.0,0.0,0.0,0.0,0.0,0.0575,0.0774,0.0,0.0,0.0,0.0,0.0,0.0,0.0,0.0,0.0,0.0,0.0,0.0,0.0,0.0,0.0,0.0,0.0,0.0,0.0,0.0,0.0,0.0,0.0,0.0,0.0,0.0,0.0,0.0,0.0,0.0,0.0,0.0,0.0,0.0,0.0,0.0,0.0,0.0,0.0,0.0,0.394,0.5107,0.5975,0.6159,0.6121,0.6062,0.6002,0.5551,0.5175,0.4898,0.4355,0.0,0.0,0.0,0.0,0.0,0.0,0.0,0.0,0.0,0.0,0.0,0.0,0.0,0.0,0.0,0.0,0.0,0.0,0.0,0.0,0.0,0.0,0.0,0.0,0.0,0.0,0.0,0.0,0.0,0.0,0.0,0.0,0.0,0.0,0.0,0.0,0.0,0.0,0.0,0.0,0.0,0.0,0.0,0.0,0.0,0.0,0.0,0.0,0.0,0.0,0.0,0.0,0.0,0.0,0.0,0.0,0.0,0.0104,0.0368,0.0369,0.0395,0.0533,0.0652,0.0,0.0,0.0,0.0,0.0,0.0,0.0,0.0,0.0,0.0,0.0,0.0,0.0,0.0,0.0,0.0,0.0,0.0,0.0,0.0,0.0,0.0,0.5175,0.5011,0.5246,0.5301,0.4708,0.0,0.0,0.0,0.0,0.0,0.0,0.0,0.0,0.0,0.0,0.0,0.4107,0.5183,0.598,0.6105,0.61,0.6034,0.5915,0.5572,0.5279,0.5061,0.4616,0.4164,0.0,0.0,0.0,0.0,0.0,0.0,0.0,0.0,0.0,0.0,0.0,0.0,0.0,0.0,0.0,0.0,0.0,0.0,0.0,0.0,0.0,0.0,0.0,0.0,0.0,0.0,0.0,0.0,0.0,0.0,0.0,0.0,0.0,0.0,0.0,0.0,0.0,0.0,0.0,0.0,0.0,0.0,0.0,0.0,0.0,0.0,0.0,0.0,0.0,0.0,0.0,0.0,0.0,0.0,0.0,0.0,0.0622,0.1754,0.1752,0.0,0.2658,0.3285,0.0,0.0,0.0,0.0,0.0,0.0,0.0,0.0,0.0,0.0,0.0,0.0,0.0,0.0,0.0,0.0,0.0,0.0,0.0,0.0,0.0,0.0,0.5915,0.579,0.5795,0.5806,0.5714,0.5121,0.4591,0.4421,0.4099,0.3623,0.0,0.0,0.0,0.0,0.0,0.0,0.439,0.5394,0.6111,0.6279,0.6149,0.6034,0.5915,0.5572,0.5353,0.517,0.4849,0.452,0.4219,0.3773,0.0,0.0,0.0,0.0,0.0,0.0,0.0,0.0,0.0,0.0,0.0,0.0,0.0,0.0,0.0,0.0,0.0,0.0,0.0,0.0,0.0,0.0,0.0,0.0,0.0,0.0,0.0,0.0,0.0,0.0,0.0,0.0,0.0,0.0,0.0,0.0,0.0,0.0,0.0,0.0,0.0,0.0,0.0,0.0,0.0,0.0,0.0,0.0,0.0,0.0,0.0,0.0,0.0,0.08,0.1472,0.2083,0.2955,0.3811,0.4613,0.4106,0.439,0.5055,0.0,0.0,0.0,0.0,0.5453,0.5351,0.5784,0.5795,0.5616,0.548,0.0,0.0,0.0,0.0,0.0,0.0,0.0,0.5322,0.5458,0.579,0.6089,0.6105,0.6159,0.6203,0.6203,0.5866,0.549,0.509,0.4849,0.4414,0.3356,0.3206,0.0,0.0,0.0,0.4269,0.5074,0.5735,0.6105,0.6159,0.6116,0.6007,0.5822,0.554,0.5385,0.5331,0.4953,0.4648,0.4409,0.4066,0.368,0.0,0.0,0.0,0.0,0.0,0.0,0.0,0.0,0.0,0.0,0.0,0.0,0.0,0.0,0.0,0.0,0.0,0.0,0.0,0.0,0.0,0.0,0.0,0.0,0.0,0.0,0.0,0.0,0.0,0.0,0.0,0.0,0.0,0.0,0.0,0.0,0.0,0.0,0.0,0.0,0.0,0.0,0.0,0.0,0.0,0.0,0.0,0.0,0.0,0.0,0.0,0.0065,0.1428,0.2266,0.2716,0.414,0.5471,0.6364,0.492,0.4752,0.5411,0.5312,0.5467,0.5815,0.6159,0.6138,0.5982,0.6502,0.6529,0.6333,0.6181,0.5991,0.5752,0.536,0.0,0.0,0.0,0.0,0.56,0.5817,0.6024,0.6198,0.629,0.6377,0.6387,0.6387,0.6372,0.6159,0.5698,0.5502,0.5159,0.4091,0.3949,0.0,0.0,0.0,0.477,0.5673,0.5975,0.6083,0.6083,0.6056,0.5958,0.5707,0.5507,0.5413,0.5413,0.5061,0.4773,0.4564,0.4317,0.3979,0.3501,0.0,0.0,0.0,0.0,0.0,0.0,0.0,0.0,0.0,0.0,0.0,0.0,0.0,0.0,0.0,0.0,0.0,0.0,0.0,0.0,0.0,0.0,0.0,0.0,0.0,0.0,0.0,0.0,0.0,0.0,0.0,0.0,0.0,0.0,0.0,0.0,0.0,0.0,0.0,0.0,0.0,0.0,0.0,0.0,0.0,0.0,0.0,0.0,0.0,0.0,0.0067,0.1456,0.2826,0.4071,0.5558,0.6933,0.7986,0.6295,0.6184,0.705,0.6926,0.6727,0.6584,0.6714,0.6687,0.6594,0.6741,0.6709,0.6622,0.6725,0.6442,0.604,0.5904,0.5659,0.0,0.0,0.5871,0.6078,0.6257,0.6328,0.6371,0.6376,0.6381,0.6387,0.6387,0.6381,0.6355,0.61,0.5871,0.5583,0.5355,0.0,0.5146,0.529,0.5389,0.5566,0.6018,0.6078,0.6083,0.6083,0.598,0.586,0.5696,0.5507,0.5413,0.5413,0.5143,0.4898,0.469,0.4558,0.4257,0.3804,0.3523,0.0,0.0,0.0,0.0,0.0,0.0,0.0,0.0,0.0,0.0,0.0,0.0,0.0,0.0,0.0,0.0,0.0,0.0,0.0,0.0,0.0,0.0,0.0,0.0,0.0,0.0,0.0,0.0,0.0,0.0,0.0,0.0,0.0,0.0,0.0,0.0,0.0,0.0,0.0,0.0,0.0,0.0,0.0,0.0,0.0,0.0,0.0,0.0,0.0,0.0067,0.1472,0.2335,0.2933,0.5301,0.6575,0.7029,0.7336,0.7536,0.7654,0.7404,0.7225,0.7039,0.722,0.7187,0.7034,0.7133,0.7067,0.6948,0.6839,0.6687,0.654,0.6497,0.642,0.6366,0.641,0.6426,0.6437,0.6486,0.6464,0.6387,0.6387,0.6387,0.6387,0.6387,0.6387,0.636,0.6328,0.6187,0.5975,0.5659,0.5627,0.561,0.5502,0.5654,0.5882,0.6165,0.6251,0.617,0.6094,0.6045,0.5942,0.5707,0.5507,0.5375,0.5257,0.5029,0.479,0.458,0.446,0.4208,0.3876,0.3637,0.3287,0.0,0.0,0.0,0.0,0.0,0.0,0.0,0.0,0.0,0.0,0.0,0.0,0.0,0.0,0.0,0.0,0.0,0.0,0.0,0.0,0.0,0.0,0.0,0.0,0.0,0.0,0.0,0.0,0.0,0.0,0.0,0.0,0.0,0.0,0.0,0.0,0.0,0.0,0.0,0.0,0.0,0.0,0.0,0.0,0.0,0.0,0.0,0.0,0.0067,0.1479,0.2353,0.2956,0.5369,0.6677,0.7144,0.8034,0.8274,0.803,0.779,0.76,0.747,0.7551,0.7502,0.7342,0.7342,0.7317,0.7182,0.6986,0.6893,0.6855,0.6817,0.6801,0.6801,0.6801,0.6741,0.6681,0.6681,0.6589,0.6446,0.6446,0.6414,0.6387,0.6387,0.6387,0.6387,0.6387,0.6377,0.6252,0.5966,0.6034,0.6029,0.5826,0.5934,0.6143,0.6306,0.629,0.6273,0.61,0.6051,0.5947,0.5707,0.5507,0.5375,0.5252,0.4985,0.4741,0.4575,0.4382,0.4186,0.3905,0.3621,0.3305,0.3008,0.0,0.0,0.0,0.0,0.0,0.0,0.0,0.0,0.0,0.0,0.0,0.0,0.0,0.0,0.0,0.0,0.0,0.0,0.0,0.0,0.0,0.0,0.0,0.0,0.0,0.0,0.0,0.0,0.0,0.0,0.0,0.0,0.0,0.0,0.0,0.0,0.0,0.0,0.0,0.0,0.0,0.0,0.0,0.0,0.0,0.0067,0.0067,0.0135,0.1546,0.2956,0.4361,0.577,0.7178,0.8512,0.847,0.8421,0.8394,0.8155,0.7915,0.7714,0.7714,0.7633,0.7524,0.7524,0.7442,0.7323,0.7198,0.7139,0.6975,0.685,0.6812,0.6812,0.6812,0.6812,0.6806,0.6806,0.6714,0.6622,0.6622,0.6478,0.6392,0.6387,0.6387,0.6387,0.6387,0.6387,0.6387,0.6387,0.6387,0.6387,0.6387,0.6387,0.0,0.6387,0.6339,0.6273,0.6105,0.598,0.586,0.5702,0.5513,0.5407,0.5402,0.5023,0.4773,0.469,0.442,0.4181,0.3905,0.3447,0.321,0.3204,0.0,0.0,0.0,0.0,0.0,0.0,0.0,0.0,0.0,0.0,0.0,0.0,0.0,0.0,0.0,0.0,0.0,0.0,0.0,0.0,0.0,0.0,0.0,0.0,0.0,0.0,0.0,0.0,0.0,0.0,0.0,0.0,0.0,0.0,0.0,0.0,0.0,0.0,0.0,0.0,0.0,0.0,0.0,0.0,0.0,0.1009,0.1546,0.1546,0.3023,0.3892,0.4361,0.577,0.6644,0.7111,0.8087,0.8492,0.8405,0.8247,0.8089,0.8021,0.8021,0.7828,0.7649,0.7649,0.7573,0.7448,0.7328,0.7263,0.7214,0.7095,0.7111,0.7111,0.7111,0.6997,0.6937,0.6937,0.6844,0.673,0.6638,0.6594,0.6495,0.6403,0.6387,0.6387,0.6387,0.6387,0.6387,0.6387,0.6387,0.6387,0.6387,0.6387,0.0,0.6387,0.636,0.6344,0.623,0.6111,0.5986,0.5866,0.5556,0.5336,0.5127,0.4855,0.4684,0.4558,0.4295,0.4062,0.3905,0.3719,0.345,0.0,0.0,0.0,0.0,0.0,0.0,0.0,0.0,0.0,0.0,0.0,0.0,0.0,0.0,0.0,0.0,0.0,0.0,0.0,0.0,0.0,0.0,0.0,0.0,0.0,0.0,0.0,0.0,0.0,0.0,0.0,0.0,0.0,0.0,0.0,0.0,0.0,0.0,0.0,0.0,0.0,0.0,0.0,0.0,0.0269,0.0875,0.1681,0.2418,0.3023,0.3892,0.4629,0.5235,0.6038,0.6777,0.7379,0.8251,0.8546,0.8475,0.0,0.0,0.0,0.0,0.7888,0.7774,0.7774,0.7693,0.7584,0.7513,0.7421,0.7266,0.7252,0.7192,0.721,0.721,0.7161,0.7111,0.7111,0.697,0.6861,0.679,0.6692,0.66,0.6478,0.6425,0.6387,0.6387,0.6387,0.0,0.6387,0.6387,0.6387,0.6387,0.6387,0.6387,0.6387,0.6387,0.6393,0.6328,0.6251,0.6089,0.592,0.567,0.0,0.0,0.0,0.4717,0.4443,0.4268,0.0,0.0,0.0,0.0,0.0,0.0,0.0,0.0,0.2701,0.2073,0.0,0.0,0.0,0.0,0.0,0.0,0.0,0.0,0.0,0.0,0.0,0.0,0.0,0.0,0.0,0.0,0.0107,0.0,0.0,0.0,0.0,0.0,0.0,0.0,0.0,0.0,0.0,0.0,0.0,0.0,0.0,0.0,0.0,0.0,0.0,0.0269,0.0269,0.0404,0.1143,0.2353,0.2487,0.3291,0.4562,0.4696,0.5432,0.6644,0.6644,0.7379,0.859,0.859,0.859,0.8579,0.8459,0.8274,0.8119,0.7999,0.7944,0.7872,0.7872,0.0,0.0,0.7703,0.7551,0.7315,0.7288,0.7258,0.7226,0.7215,0.721,0.721,0.721,0.7133,0.7002,0.6986,0.6817,0.666,0.6643,0.6495,0.6408,0.6408,0.6398,0.6387,0.6387,0.6387,0.6387,0.6387,0.6387,0.6387,0.6387,0.6387,0.6399,0.6295,0.6322,0.0,0.5942,0.5806,0.5632,0.5424,0.5148,0.4822,0.4382,0.436,0.4306,0.4181,0.4181,0.4278,0.4525,0.4525,0.4525,0.448,0.3083,0.2294,0.0,0.0,0.0,0.0,0.0,0.0,0.0,0.0,0.0,0.0,0.0,0.0,0.0,0.0,0.0,0.1485,0.0626,0.0,0.0,0.0,0.0,0.0,0.0,0.0,0.0,0.0,0.0,0.0,0.0,0.0,0.0,0.0,0.0,0.0,0.1076,0.1681,0.1681,0.2887,0.3624,0.3892,0.5034,0.0,0.6038,0.7245,0.7917,0.8184,0.8184,0.8318,0.859,0.859,0.859,0.8579,0.8459,0.8329,0.8187,0.8062,0.8015,0.7872,0.7872,0.7856,0.7823,0.7731,0.7671,0.7595,0.7336,0.7317,0.0,0.7237,0.721,0.721,0.721,0.7193,0.7155,0.7008,0.6948,0.6888,0.679,0.6671,0.6584,0.6584,0.6452,0.6387,0.6387,0.6387,0.6387,0.6387,0.6387,0.6387,0.6387,0.6387,0.6376,0.6404,0.6323,0.6257,0.6062,0.5855,0.5632,0.5424,0.5148,0.4893,0.4704,0.4693,0.4675,0.4586,0.4586,0.4608,0.4651,0.4651,0.4651,0.4651,0.3762,0.3243,0.0,0.0,0.0,0.0,0.0,0.0,0.0,0.0,0.0,0.0,0.0,0.4451,0.0,0.0,0.2867,0.2959,0.1841,0.0989,0.1027,0.0457,0.0,0.0,0.0,0.0,0.0,0.0,0.0,0.0,0.0,0.0,0.0,0.0673,0.1076,0.1076,0.2418,0.3224,0.3224,0.3959,0.4629,0.5369,0.6038,0.6777,0.7517,0.8251,0.859,0.859,0.859,0.859,0.859,0.859,0.859,0.8584,0.8524,0.8432,0.8301,0.8122,0.8075,0.8015,0.7955,0.7872,0.7861,0.7807,0.7747,0.7682,0.7557,0.7432,0.7266,0.7263,0.7203,0.721,0.721,0.721,0.7193,0.7139,0.7024,0.697,0.6904,0.6747,0.6622,0.6622,0.6468,0.6387,0.6387,0.6387,0.6387,0.6387,0.6387,0.6387,0.6387,0.6387,0.6387,0.6387,0.6388,0.6279,0.61,0.5812,0.5545,0.5469,0.5295,0.5137,0.5018,0.4953,0.4898,0.4838,0.4773,0.4773,0.4833,0.4833,0.4903,0.4958,0.4576,0.4072,0.0,0.0,0.0,0.0,0.0,0.0,0.0,0.0,0.5331,0.4916,0.5063,0.5103,0.4568,0.4354,0.4217,0.4082,0.2893,0.1961,0.1703,0.0924,0.0331,0.0,0.0,0.0,0.0,0.0,0.0135,0.0404,0.0404,0.0538,0.0807,0.1881,0.2553,0.2553,0.3959,0.4696,0.4696,0.4964,0.57,0.6844,0.6844,0.7445,0.859,0.859,0.859,0.859,0.859,0.859,0.859,0.859,0.859,0.859,0.859,0.853,0.8426,0.8204,0.8158,0.8103,0.8004,0.7949,0.7872,0.7872,0.7807,0.7731,0.7709,0.7562,0.7336,0.7293,0.7263,0.7237,0.7215,0.721,0.721,0.721,0.7139,0.7018,0.7018,0.6844,0.6681,0.666,0.6556,0.6414,0.6392,0.6387,0.6387,0.6387,0.6387,0.6387,0.6387,0.6387,0.6387,0.6387,0.6387,0.6339,0.6105,0.5801,0.5567,0.5545,0.5469,0.536,0.5262,0.5148,0.5089,0.5089,0.4991,0.4985,0.5089,0.5089,0.5132,0.5219,0.5219,0.4758,0.4613,0.4768,0.5029,0.5252,0.5353,0.5502,0.0,0.0,0.6349,0.6647,0.6871,0.6995,0.6909,0.6255,0.5247,0.4046,0.2862,0.1637,0.0395,0.1198,0.1409,0.0134,0.0,0.0,0.0,0.0,0.0538,0.1748,0.1882,0.2418,0.3758,0.3959,0.4026,0.4026,0.5436,0.6172,0.6172,0.7445,0.8184,0.8384,0.8384,0.8451,0.859,0.859,0.859,0.859,0.859,0.859,0.859,0.859,0.859,0.859,0.859,0.8579,0.8552,0.8426,0.8242,0.8114,0.8103,0.8026,0.7872,0.7872,0.7861,0.7834,0.7731,0.7682,0.7616,0.7342,0.7271,0.729,0.7237,0.721,0.721,0.721,0.7199,0.7193,0.7193,0.7035,0.691,0.6801,0.6681,0.6562,0.6403,0.6387,0.6387,0.6387,0.6387,0.6387,0.6387,0.6387,0.6387,0.6387,0.6387,0.6339,0.6105,0.5947,0.5822,0.5675,0.5556,0.5481,0.5464,0.5393,0.5369,0.5369,0.5358,0.5358,0.5369,0.5369,0.538,0.5391,0.5391,0.5292,0.5435,0.5507,0.5605,0.0,0.61,0.6295,0.6643,0.679,0.6915,0.7143,0.7383,0.7546,0.7546,0.6631,0.5753,0.0,0.4069,0.3101,0.2593,0.2924,0.3053,0.2456,0.2307,0.198,0.1276,0.2016,0.2752,0.3356,0.3356,0.3624,0.4294,0.5098,0.5503,0.5503,0.6911,0.765,0.765,0.8318,0.859,0.859,0.859,0.859,0.859,0.859,0.859,0.859,0.859,0.859,0.859,0.859,0.859,0.859,0.859,0.859,0.8573,0.8459,0.8356,0.8247,0.8163,0.8081,0.8026,0.7955,0.7872,0.7861,0.7812,0.7752,0.7665,0.7491,0.7331,0.7307,0.7243,0.721,0.721,0.721,0.721,0.721,0.721,0.7122,0.6948,0.6828,0.6703,0.6578,0.6408,0.6387,0.6387,0.6387,0.6387,0.6387,0.6387,0.6387,0.6387,0.6387,0.6377,0.6301,0.6203,0.6013,0.5882,0.5833,0.568,0.5615,0.5615,0.5497,0.5474,0.5474,0.5404,0.5413,0.5413,0.5413,0.5404,0.5474,0.5474,0.5513,0.5877,0.0,0.0,0.6365,0.6698,0.691,0.6942,0.7133,0.7323,0.7377,0.7551,0.7693,0.766,0.6987,0.6348,0.6121,0.526,0.4625,0.4353,0.451,0.4538,0.4144,0.4674,0.4612,0.3397,0.387,0.4411,0.483,0.4897,0.5031,0.5432,0.6439,0.6978,0.6978,0.8051,0.859,0.859,0.859,0.859,0.859,0.859,0.859,0.859,0.859,0.859,0.859,0.859,0.859,0.859,0.859,0.859,0.859,0.859,0.859,0.8579,0.8497,0.8443,0.8388,0.8176,0.8147,0.8097,0.7971,0.7872,0.7872,0.7872,0.7812,0.7725,0.7606,0.7481,0.7361,0.7236,0.7237,0.721,0.721,0.721,0.721,0.721,0.7144,0.6997,0.6877,0.6752,0.6632,0.6457,0.6408,0.6387,0.6387,0.6387,0.6387,0.6387,0.6387,0.6387,0.6387,0.6366,0.6301,0.6322,0.6105,0.5975,0.5909,0.5822,0.5723,0.5691,0.5605,0.5556,0.5556,0.5513,0.5469,0.5469,0.5469,0.5513,0.5556,0.5556,0.5605,0.0,0.0,0.6414,0.6584,0.6883,0.7232,0.729,0.7508,0.7655,0.7535,0.7611,0.7665,0.7546,0.7714,0.7424,0.6093,0.6066,0.5811,0.4487,0.5436,0.5715,0.4273,0.6425,0.7572,0.0,0.4932,0.4697,0.6235,0.6309,0.6978,0.8384,0.8523,0.8523,0.8523,0.8584,0.859,0.859,0.859,0.859,0.859,0.859,0.859,0.859,0.859,0.859,0.859,0.859,0.859,0.859,0.859,0.859,0.859,0.859,0.859,0.859,0.8584,0.8513,0.8399,0.8274,0.8155,0.8097,0.7971,0.7872,0.7872,0.7872,0.7867,0.7845,0.7731,0.7606,0.7486,0.7304,0.7241,0.721,0.721,0.721,0.721,0.721,0.7204,0.7172,0.7002,0.6883,0.6757,0.6632,0.6462,0.6387,0.6387,0.6387,0.6387,0.6387,0.6387,0.6387,0.6387,0.6381,0.6388,0.6328,0.6311,0.6154,0.592,0.5899,0.585,0.5691,0.5686,0.5686,0.5686,0.568,0.568,0.568,0.568,0.568,0.5686,0.5686,0.5686,0.6079,0.0,0.6834,0.6948,0.7247,0.7529,0.7568,0.7644,0.7665,0.7546,0.7486,0.7421,0.7301,0.671,0.6133,0.5802,0.5974,0.6072,0.5752,0.6828,0.7466,0.6877,0.7611,0.0,0.0,0.0,0.0,0.7841,0.7851,0.8051,0.8584,0.859,0.859,0.859,0.859,0.859,0.859,0.859,0.859,0.859,0.859,0.859,0.859,0.859,0.859,0.859,0.859,0.859,0.859,0.859,0.859,0.859,0.859,0.859,0.859,0.859,0.8562,0.8503,0.8301,0.8209,0.8138,0.7937,0.7872,0.7872,0.7872,0.7872,0.7845,0.7736,0.7671,0.7595,0.7331,0.7307,0.7252,0.7232,0.721,0.721,0.721,0.721,0.7177,0.7008,0.6888,0.6763,0.6638,0.6468,0.6387,0.6387,0.6387,0.6387,0.6387,0.6387,0.6387,0.6387,0.6387,0.6371,0.6382,0.6312,0.6284,0.6149,0.5991,0.5888,0.585,0.5729,0.5691,0.5691,0.5691,0.5691,0.5691,0.5691,0.5691,0.5691,0.5691,0.5691,0.6524,0.6834,0.7095,0.7301,0.7529,0.7703,0.7703,0.7665,0.7589,0.7421,0.7258,0.7122,0.7046,0.6427,0.5996,0.6357,0.6602,0.6864,0.7142,0.7893,0.8388,0.8312,0.8199,0.8188,0.0,0.0,0.0,0.8579,0.859,0.859,0.859,0.859,0.859,0.859,0.859,0.859,0.859,0.859,0.859,0.859,0.859,0.859,0.859,0.859,0.859,0.859,0.859,0.859,0.859,0.859,0.859,0.859,0.859,0.859,0.859,0.859,0.859,0.8552,0.8318,0.8172,0.8193,0.7948,0.7872,0.7872,0.7872,0.7872,0.7856,0.778,0.7731,0.7665,0.7508,0.7342,0.7317,0.7236,0.7243,0.721,0.721,0.721,0.7188,0.7117,0.6948,0.6828,0.6703,0.6545,0.6387,0.6387,0.6387,0.6387,0.6387,0.6387,0.6387,0.6387,0.6387,0.6387,0.6387,0.6372,0.6312,0.6322,0.6121,0.5996,0.5909,0.5833,0.5729,0.5691,0.5691,0.5691,0.5691,0.5691,0.5691,0.5691,0.5691,0.5691,0.6921,0.7139,0.7325,0.7616,0.7703,0.7698,0.7693,0.7589,0.7426,0.7226,0.6937,0.6768,0.0,0.0,0.6975,0.7568,0.778,0.8035,0.8513,0.8492,0.8426,0.0,0.0,0.0,0.0,0.0,0.0,0.8579,0.0,0.859,0.859,0.859,0.859,0.859,0.859,0.859,0.859,0.859,0.859,0.859,0.859,0.859,0.859,0.859,0.859,0.859,0.859,0.859,0.859,0.859,0.859,0.859,0.859,0.859,0.859,0.859,0.859,0.8557,0.8323,0.8178,0.8198,0.7959,0.7877,0.7872,0.7872,0.7872,0.7872,0.7872,0.7796,0.7709,0.7703,0.7524,0.7288,0.7282,0.7241,0.721,0.721,0.721,0.721,0.721,0.7111,0.6937,0.6812,0.6594,0.6387,0.6387,0.6387,0.6387,0.6387,0.6387,0.6387,0.6387,0.6387,0.6387,0.6387,0.6387,0.6388,0.6333,0.6322,0.6165,0.5931,0.5915,0.586,0.5707,0.5707,0.5707,0.5707,0.5707,0.5707,0.5707,0.5707,0.5707,0.6921,0.7269,0.7584,0.7676,0.7703,0.7676,0.7584,0.7399,0.7127,0.6709,0.6502,0.6323,0.0,0.0,0.0,0.71,0.7562,0.0,0.8405,0.8508,0.0,0.8426,0.0,0.8475,0.8421,0.8492,0.0,0.0,0.859,0.859,0.859,0.859,0.859,0.859,0.859,0.859,0.859,0.859,0.859,0.859,0.859,0.859,0.859,0.859,0.859,0.859,0.859,0.859,0.859,0.859,0.859,0.859,0.859,0.859,0.859,0.859,0.859,0.8568,0.8421,0.8312,0.8209,0.8057,0.801,0.7872,0.7872,0.7872,0.7872,0.7872,0.785,0.7807,0.7725,0.7589,0.7448,0.7298,0.7241,0.721,0.721,0.721,0.721,0.721,0.6991,0.6812,0.6687,0.6489,0.6387,0.6387,0.6387,0.6387,0.6387,0.6387,0.6387,0.6387,0.6387,0.6387,0.6387,0.6387,0.6376,0.6393,0.6317,0.6289,0.6181,0.6089,0.6024,0.5996,0.5996,0.5996,0.5996,0.5996,0.5996,0.5996,0.5996,0.5996,0.723,0.7535,0.7774,0.7774,0.7698,0.7562,0.7334,0.7056,0.6703,0.6176,0.6034,0.0,0.0,0.0,0.0,0.0,0.0,0.0,0.828,0.8481,0.8562,0.0,0.8552,0.0,0.8497,0.8552,0.859,0.0,0.859,0.859,0.859,0.859,0.859,0.859,0.859,0.859,0.859,0.859,0.859,0.859,0.859,0.859,0.859,0.859,0.859,0.859,0.859,0.859,0.859,0.859,0.859,0.859,0.859,0.859,0.859,0.859,0.859,0.8579,0.8513,0.8378,0.8214,0.8095,0.8032,0.7872,0.7872,0.7872,0.7872,0.7872,0.7872,0.7856,0.779,0.7687,0.7568,0.7448,0.7323,0.722,0.7221,0.721,0.721,0.721,0.7008,0.6844,0.6719,0.66,0.6446,0.6392,0.6387,0.6387,0.6387,0.6387,0.6387,0.6387,0.6387,0.6387,0.6387,0.6387,0.6387,0.6387,0.6377,0.6323,0.6317,0.6251,0.6143,0.6089,0.6083,0.6083,0.6083,0.6083,0.6083,0.6083,0.6083,0.6083,0.7633,0.7785,0.7867,0.785,0.7671,0.7399,0.7024,0.6654,0.6203,0.5718,0.0,0.54,0.5322,0.5605,0.6018,0.6513,0.0,0.7665,0.8102,0.8426,0.8568,0.8584,0.859,0.859,0.859,0.859,0.859,0.859,0.859,0.859,0.859,0.859,0.859,0.859,0.859,0.859,0.859,0.859,0.859,0.859,0.859,0.859,0.859,0.859,0.859,0.859,0.859,0.859,0.859,0.859,0.859,0.859,0.859,0.859,0.859,0.859,0.859,0.859,0.859,0.8443,0.8242,0.8117,0.8043,0.7872,0.7872,0.7872,0.7872,0.7872,0.7872,0.7872,0.7872,0.7785,0.7676,0.7568,0.7437,0.7307,0.7203,0.7221,0.721,0.721,0.7117,0.6953,0.6844,0.6709,0.6584,0.6425,0.6398,0.6387,0.6387,0.6387,0.6387,0.6387,0.6387,0.6387,0.6387,0.6387,0.6387,0.6387,0.6387,0.6393,0.6295,0.629,0.6241,0.6132,0.6132,0.6132,0.6132,0.6132,0.6132,0.6132,0.6132,0.6132,0.7633,0.7785,0.785,0.7752,0.7546,0.7191,0.679,0.6404,0.0,0.0,0.0,0.5033,0.4909,0.5259,0.0,0.6327,0.0,0.0,0.0,0.0,0.8481,0.0,0.0,0.0,0.0,0.0,0.0,0.0,0.859,0.859,0.859,0.859,0.859,0.859,0.859,0.859,0.859,0.859,0.859,0.859,0.859,0.859,0.859,0.859,0.859,0.859,0.859,0.859,0.859,0.859,0.859,0.859,0.859,0.859,0.859,0.859,0.859,0.859,0.859,0.8497,0.8367,0.8242,0.8051,0.7872,0.7872,0.7872,0.7872,0.7872,0.7872,0.7872,0.7872,0.7785,0.7698,0.7676,0.7497,0.7271,0.7307,0.7225,0.721,0.721,0.7117,0.698,0.6959,0.6768,0.6611,0.6589,0.6452,0.6387,0.6387,0.6387,0.6387,0.6387,0.6387,0.6387,0.6387,0.6387,0.6387,0.6387,0.6387,0.6376,0.636,0.6404,0.6349,0.6327,0.6327,0.6327,0.6327,0.6327,0.6327,0.6327,0.6327,0.6327,0.7709,0.7828,0.7845,0.7731,0.747,0.71,0.6562,0.0,0.0,0.0,0.0,0.4773,0.4588,0.0,0.0,0.0,0.0,0.0,0.0,0.0,0.0,0.0,0.0,0.0,0.0,0.0,0.0,0.0,0.859,0.859,0.859,0.859,0.859,0.859,0.859,0.859,0.859,0.859,0.859,0.859,0.859,0.859,0.859,0.859,0.859,0.859,0.859,0.859,0.859,0.859,0.859,0.859,0.859,0.859,0.859,0.859,0.859,0.859,0.859,0.8513,0.8399,0.8274,0.8111,0.8015,0.7888,0.7872,0.7872,0.7872,0.7872,0.7872,0.7872,0.7828,0.7774,0.7714,0.7513,0.7261,0.7252,0.7198,0.721,0.721,0.7166,0.7111,0.6997,0.6834,0.6692,0.6627,0.6462,0.6387,0.6387,0.6387,0.6387,0.6387,0.6387,0.6387,0.6387,0.6387,0.6387,0.6387,0.6387,0.6387,0.6387,0.6387,0.6387,0.6387,0.6387,0.6387,0.6387,0.6387,0.6387,0.6387,0.6387,0.6387,0.7741,0.785,0.7839,0.7698,0.7404,0.7046,0.6421,0.5855,0.0,0.0,0.4646,0.4564,0.4365,0.0,0.0,0.0,0.0,0.0,0.0,0.0,0.0,0.0,0.0,0.0,0.0,0.0,0.0,0.0,0.859,0.859,0.859,0.859,0.859,0.859,0.859,0.859,0.859,0.859,0.859,0.859,0.859,0.859,0.859,0.859,0.859,0.859,0.859,0.859,0.859,0.859,0.859,0.859,0.859,0.859,0.859,0.859,0.859,0.859,0.859,0.853,0.8432,0.8285,0.8155,0.8092,0.7971,0.7872,0.7872,0.7872,0.7872,0.7872,0.7872,0.7872,0.7845,0.7731,0.7535,0.7339,0.722,0.7226,0.721,0.721,0.721,0.7182,0.7035,0.6921,0.6801,0.6676,0.6556,0.6414,0.6387,0.6387,0.6387,0.6387,0.6387,0.6387,0.6387,0.6387,0.6387,0.6387,0.6387,0.6387,0.6387,0.6387,0.6387,0.6387,0.6387,0.6387,0.6387,0.6387,0.6387,0.6387,0.6387,0.6387,0.7649,0.779,0.7818,0.7589,0.7345,0.7024,0.6263,0.0,0.0,0.4788,0.4514,0.436,0.4471,0.4624,0.0,0.0,0.0,0.6448,0.0,0.0,0.0,0.0,0.0,0.0,0.0,0.0,0.0,0.0,0.859,0.859,0.859,0.859,0.859,0.859,0.859,0.859,0.859,0.859,0.859,0.859,0.859,0.859,0.859,0.859,0.859,0.859,0.859,0.859,0.859,0.859,0.859,0.859,0.859,0.859,0.859,0.859,0.859,0.859,0.859,0.8579,0.8535,0.8307,0.8155,0.8092,0.7971,0.7872,0.7872,0.7872,0.7872,0.7872,0.7872,0.7872,0.7845,0.7731,0.76,0.747,0.7345,0.723,0.721,0.721,0.721,0.7204,0.7193,0.7046,0.6926,0.6801,0.6681,0.6562,0.6398,0.6387,0.6387,0.6387,0.6387,0.6387,0.6387,0.6387,0.6387,0.6387,0.6387,0.6387,0.6387,0.6387,0.6387,0.6387,0.6387,0.6387,0.6387,0.6387,0.6387,0.6387,0.6387,0.6387,0.7486,0.7676,0.7731,0.7562,0.7334,0.7024,0.6246,0.0,0.5276,0.4788,0.4498,0.4317,0.436,0.4498,0.4744,0.5219,0.5436,0.5855,0.0,0.0,0.0,0.0,0.0,0.0,0.0,0.0,0.0,0.859,0.859,0.859,0.859,0.859,0.859,0.859,0.859,0.859,0.859,0.859,0.859,0.859,0.859,0.859,0.859,0.859,0.859,0.859,0.859,0.859,0.859,0.859,0.859,0.859,0.859,0.859,0.859,0.859,0.859,0.859,0.859,0.859,0.8562,0.8399,0.8263,0.8127,0.7932,0.7872,0.7872,0.7872,0.7872,0.7872,0.7872,0.7872,0.7845,0.7731,0.7606,0.7486,0.7304,0.7241,0.721,0.721,0.721,0.721,0.721,0.7117,0.697,0.6921,0.6747,0.66,0.65,0.643,0.6387,0.6387,0.6387,0.6387,0.6387,0.6387,0.6387,0.6387,0.6387,0.6387,0.6387,0.6387,0.6387,0.6387,0.6387,0.6387,0.6387,0.6387,0.6387,0.6387,0.6387,0.6387,0.7241,0.7475,0.7562,0.7442,0.723,0.6925,0.0,0.0,0.5232,0.4783,0.4498,0.43,0.43,0.4393,0.4613,0.4909,0.5121,0.5513,0.629,0.0,0.0,0.0,0.0,0.0,0.0,0.0,0.0,0.859,0.859,0.859,0.859,0.859,0.859,0.859,0.859,0.859,0.859,0.859,0.859,0.859,0.859,0.859,0.859,0.859,0.859,0.859,0.859,0.859,0.859,0.859,0.859,0.859,0.859,0.859,0.859,0.859,0.859,0.859,0.859,0.859,0.8568,0.8454,0.8334,0.8198,0.7986,0.796,0.7872,0.7872,0.7872,0.7872,0.7872,0.7872,0.785,0.7769,0.766,0.754,0.7415,0.7296,0.7198,0.7215,0.721,0.721,0.721,0.7144,0.7024,0.6991,0.6806,0.666,0.6622,0.6462,0.6387,0.6387,0.6387,0.6387,0.6387,0.6387,0.6387,0.6387,0.6387,0.6387,0.6387,0.6387,0.6387,0.6387,0.6387,0.6387,0.6387,0.6387,0.6387,0.6387,0.6387,0.6387,0.6893,0.716,0.7312,0.7243,0.698,0.6649,0.0,0.5534,0.5128,0.4766,0.4498,0.43,0.43,0.4393,0.455,0.4758,0.5137,0.5621,0.6235,0.0,0.0,0.0,0.0,0.0,0.0,0.0,0.0,0.859,0.859,0.0,0.859,0.859,0.859,0.859,0.859,0.859,0.859,0.859,0.859,0.859,0.859,0.859,0.859,0.859,0.859,0.859,0.859,0.859,0.859,0.859,0.859,0.859,0.859,0.859,0.859,0.859,0.859,0.859,0.859,0.859,0.8568,0.8454,0.8334,0.8214,0.8089,0.8026,0.7872,0.7872,0.7872,0.7872,0.7872,0.7872,0.7872,0.7872,0.778,0.7665,0.754,0.7421,0.7296,0.7232,0.721,0.721,0.721,0.721,0.7172,0.7002,0.6877,0.6757,0.6632,0.6462,0.6387,0.6387,0.6387,0.6387,0.6387,0.6387,0.6387,0.6387,0.6387,0.6387,0.6387,0.6387,0.6387,0.6387,0.6387,0.6387,0.6387,0.6387,0.6387,0.6387,0.6387,0.6387,0.6192,0.648,0.6671,0.6475,0.6366,0.6176,0.5659,0.5295,0.4969,0.464,0.4409,0.43,0.43,0.4333,0.4539,0.5105,0.5336,0.0,0.0,0.0,0.0,0.0,0.0,0.0,0.0,0.0,0.859,0.859,0.859,0.859,0.859,0.859,0.859,0.859,0.859,0.859,0.859,0.859,0.859,0.859,0.859,0.859,0.859,0.859,0.859,0.859,0.859,0.859,0.859,0.859,0.859,0.859,0.859,0.859,0.859,0.859,0.859,0.859,0.859,0.859,0.8584,0.8546,0.8399,0.8161,0.8187,0.8035,0.7872,0.7872,0.7872,0.7872,0.7872,0.7872,0.7872,0.7872,0.7785,0.7665,0.7546,0.7421,0.7301,0.7232,0.721,0.721,0.721,0.721,0.7199,0.7161,0.7002,0.6883,0.6757,0.6638,0.6478,0.6392,0.6387,0.6387,0.6387,0.6387,0.6387,0.6387,0.6387,0.6387,0.6387,0.6387,0.6387,0.6387,0.6387,0.6387,0.6387,0.6387,0.6387,0.6387,0.6387,0.6387,0.0,0.5917,0.6101,0.604,0.5947,0.5784,0.5388,0.5083,0.48,0.4564,0.4382,0.43,0.43,0.4376,0.4613,0.5068,0.529,0.0,0.0,0.0,0.0,0.0,0.0,0.0,0.0,0.0,0.859,0.859,0.859,0.859,0.859,0.859,0.859,0.859,0.859,0.859,0.859,0.859,0.859,0.859,0.859,0.859,0.859,0.859,0.859,0.859,0.859,0.859,0.0,0.859,0.859,0.859,0.859,0.859,0.859,0.859,0.859,0.859,0.859,0.859,0.859,0.859,0.8426,0.8156,0.8127,0.7992,0.7872,0.7872,0.7872,0.7872,0.7872,0.7872,0.7872,0.7872,0.7818,0.772,0.7551,0.7459,0.7355,0.7243,0.721,0.721,0.721,0.721,0.721,0.721,0.7111,0.6959,0.6883,0.6725,0.6589,0.6462,0.6414,0.6387,0.6387,0.6387,0.6387,0.6387,0.6387,0.6387,0.6387,0.6387,0.6387,0.6387,0.6387,0.6387,0.6387,0.6387,0.6387,0.6387,0.6387,0.6387,0.0,0.5518,0.0,0.0,0.5599,0.5383,0.5186,0.4914,0.0,0.452,0.4376,0.4311,0.4333,0.4547,0.4706,0.4766,0.0,0.0,0.0,0.0,0.0,0.0,0.0,0.0,0.0,0.8459,0.859,0.859,0.859,0.859,0.859,0.859,0.859,0.859,0.859,0.859,0.859,0.859,0.859,0.859,0.859,0.859,0.859,0.859,0.859,0.859,0.859,0.859,0.859,0.859,0.859,0.859,0.859,0.859,0.859,0.859,0.859,0.859,0.859,0.859,0.8584,0.8568,0.8416,0.8187,0.7943,0.7872,0.7872,0.7872,0.7872,0.7872,0.7872,0.7872,0.7872,0.7872,0.7872,0.7807,0.7578,0.7524,0.7448,0.727,0.7215,0.721,0.721,0.721,0.721,0.721,0.7117,0.6991,0.6986,0.6779,0.6627,0.6622,0.6457,0.6387,0.6387,0.6387,0.6387,0.6387,0.6387,0.6387,0.6387,0.6387,0.6387,0.6387,0.6387,0.6387,0.6387,0.6387,0.6387,0.6387,0.6387,0.6387,0.4529,0.0,0.4968,0.4844,0.4871,0.486,0.0,0.4608,0.4514,0.4365,0.0,0.4387,0.4623,0.4675,0.4898,0.0,0.0,0.0,0.0,0.0,0.0,0.0,0.0,0.0,0.0,0.8557,0.859,0.859,0.859,0.859,0.859,0.859,0.859,0.859,0.859,0.859,0.859,0.859,0.859,0.859,0.859,0.859,0.859,0.859,0.859,0.859,0.859,0.859,0.859,0.859,0.859,0.859,0.859,0.859,0.859,0.859,0.859,0.859,0.859,0.859,0.8557,0.8378,0.828,0.8187,0.7943,0.7872,0.7872,0.7872,0.7872,0.7872,0.7872,0.7872,0.7872,0.7872,0.7872,0.7834,0.7687,0.7584,0.7475,0.7323,0.722,0.721,0.721,0.721,0.721,0.721,0.7188,0.7139,0.6997,0.6855,0.6725,0.6627,0.6457,0.6387,0.6387,0.6387,0.6387,0.6387,0.6387,0.6387,0.6387,0.6387,0.6387,0.6387,0.6387,0.6387,0.6387,0.6387,0.6387,0.6387,0.6387,0.6387,0.4186,0.4561,0.4898,0.4817,0.4849,0.48,0.4735,0.0,0.0,0.0,0.0,0.0,0.0,0.0,0.0,0.0,0.0,0.0,0.0,0.0,0.0,0.0,0.0,0.0,0.0,0.859,0.859,0.859,0.859,0.859,0.859,0.859,0.859,0.859,0.859,0.859,0.859,0.859,0.859,0.859,0.859,0.859,0.859,0.859,0.859,0.859,0.859,0.859,0.859,0.859,0.859,0.859,0.859,0.859,0.859,0.859,0.859,0.859,0.859,0.859,0.8546,0.8312,0.8172,0.8187,0.7943,0.7872,0.7872,0.7872,0.7872,0.7872,0.7872,0.7872,0.7872,0.7872,0.7872,0.7839,0.7725,0.7606,0.7481,0.7304,0.7236,0.721,0.721,0.721,0.721,0.721,0.721,0.7188,0.7128,0.6959,0.6861,0.6796,0.6627,0.6468,0.6468,0.6419,0.6387,0.6387,0.6387,0.6387,0.6387,0.6387,0.6387,0.6387,0.6387,0.6387,0.6387,0.6387,0.6387,0.6387,0.6387,0.6387,0.4121,0.4599,0.505,0.5072,0.5045,0.5007,0.4969,0.0,0.0,0.0,0.0,0.0,0.0,0.0,0.0,0.0,0.0,0.0,0.0,0.0,0.0,0.0,0.0,0.0,0.859,0.859,0.859,0.859,0.859,0.859,0.859,0.859,0.859,0.859,0.859,0.859,0.859,0.859,0.859,0.859,0.859,0.859,0.859,0.859,0.859,0.859,0.859,0.859,0.859,0.859,0.859,0.859,0.859,0.859,0.859,0.859,0.859,0.859,0.859,0.8579,0.8524,0.8307,0.822,0.8166,0.7937,0.7872,0.7872,0.7872,0.7872,0.7872,0.7872,0.7872,0.7872,0.7872,0.7872,0.7845,0.7747,0.7616,0.7486,0.7325,0.7252,0.721,0.721,0.721,0.721,0.721,0.721,0.721,0.721,0.7056,0.6986,0.6986,0.6785,0.6638,0.6622,0.6473,0.6403,0.6387,0.6387,0.6387,0.6387,0.6387,0.6387,0.6387,0.6387,0.6387,0.6387,0.6387,0.6387,0.6387,0.6387,0.6387,0.4367,0.4779,0.5067,0.4712,0.48,0.4963,0.4794,0.0,0.0,0.0,0.0,0.0,0.0,0.0,0.0,0.0,0.0,0.0,0.0,0.0,0.0,0.0,0.0,0.859,0.859,0.859,0.859,0.859,0.859,0.859,0.859,0.859,0.859,0.859,0.859,0.859,0.859,0.859,0.859,0.859,0.859,0.859,0.859,0.859,0.859,0.859,0.859,0.859,0.859,0.859,0.859,0.859,0.859,0.859,0.859,0.859,0.859,0.859,0.859,0.8524,0.8421,0.828,0.8166,0.8119,0.7977,0.7872,0.7872,0.7872,0.7872,0.7872,0.7872,0.7872,0.7872,0.7872,0.7872,0.7867,0.785,0.7676,0.7513,0.7497,0.7307,0.721,0.721,0.721,0.721,0.721,0.721,0.721,0.721,0.7056,0.6986,0.6986,0.6861,0.673,0.6627,0.66,0.6495,0.6392,0.6387,0.6387,0.6387,0.6387,0.6387,0.6387,0.6387,0.6387,0.6387,0.6387,0.6387,0.6387,0.6387,0.6387,0.4247,0.464,0.4914,0.479,0.5132,0.5464,0.5355,0.5216,0.0,0.0,0.0,0.0,0.0,0.0,0.0,0.0,0.0,0.0,0.0,0.0,0.0,0.0,0.0,0.859,0.859,0.859,0.859,0.859,0.859,0.859,0.859,0.859,0.859,0.859,0.859,0.859,0.859,0.859,0.859,0.859,0.859,0.859,0.859,0.859,0.859,0.859,0.859,0.859,0.859,0.859,0.859,0.859,0.859,0.859,0.859,0.859,0.859,0.859,0.859,0.8513,0.8399,0.8274,0.8155,0.8092,0.7971,0.7872,0.7872,0.7872,0.7872,0.7872,0.7872,0.7872,0.7872,0.7872,0.8055,0.8183,0.8183,0.8036,0.783,0.7763,0.7486,0.723,0.7221,0.721,0.721,0.721,0.721,0.721,0.721,0.7166,0.7188,0.7298,0.7186,0.7192,0.7293,0.7165,0.6873,0.6442,0.6387,0.6387,0.6387,0.6387,0.6387,0.6387,0.6387,0.6387,0.6387,0.6387,0.6387,0.6387,0.6387,0.6387,0.436,0.458,0.4803,0.5101,0.5506,0.5801,0.5882,0.5648,0.5436,0.0,0.0,0.0,0.0,0.0,0.0,0.0,0.0,0.0,0.0,0.0,0.8492,0.8579,0.859,0.859,0.859,0.859,0.859,0.859,0.859,0.859,0.859,0.859,0.859,0.859,0.859,0.859,0.859,0.859,0.859,0.859,0.859,0.859,0.859,0.859,0.859,0.859,0.859,0.859,0.859,0.859,0.859,0.859,0.859,0.859,0.859,0.859,0.859,0.859,0.859,0.8492,0.8361,0.8199,0.8133,0.8054,0.796,0.7872,0.7872,0.7872,0.7933,0.7994,0.7933,0.7933,0.7994,0.7994,0.8244,0.8494,0.8494,0.8389,0.8254,0.8125,0.7766,0.7522,0.7399,0.7376,0.7376,0.7321,0.7265,0.7265,0.721,0.721,0.7321,0.7549,0.7517,0.7551,0.79,0.7648,0.7247,0.6687,0.6553,0.6487,0.6487,0.6437,0.6387,0.6387,0.6387,0.6387,0.6387,0.6387,0.6387,0.6387,0.6387,0.6387,0.4992,0.5021,0.5018,0.561,0.5585,0.5539,0.5828,0.5669,0.0,0.5964,0.0,0.0,0.0,0.0,0.0,0.0,0.0,0.0,0.0,0.0,0.8579,0.8584,0.859,0.859,0.859,0.859,0.859,0.859,0.859,0.859,0.859,0.859,0.859,0.859,0.859,0.859,0.859,0.859,0.859,0.859,0.859,0.859,0.859,0.859,0.859,0.859,0.859,0.859,0.859,0.859,0.859,0.859,0.859,0.859,0.859,0.859,0.859,0.859,0.859,0.8437,0.8183,0.8172,0.8073,0.7944,0.7872,0.7872,0.7872,0.7872,0.8122,0.8305,0.7994,0.8122,0.8372,0.8372,0.861,0.8854,0.8854,0.8744,0.861,0.8411,0.8284,0.815,0.7955,0.7937,0.7881,0.7604,0.7549,0.7493,0.721,0.721,0.7321,0.7549,0.7598,0.7651,0.7906,0.7648,0.7494,0.7431,0.7012,0.6792,0.6792,0.6537,0.6387,0.6387,0.6387,0.6387,0.6387,0.6387,0.6387,0.6387,0.6387,0.6387,0.4768,0.4868,0.5007,0.5429,0.5561,0.0,0.0,0.6236,0.6388,0.66,0.6788,0.0,0.0,0.0,0.0,0.0,0.0,0.0,0.0,0.8513,0.859,0.859,0.859,0.859,0.859,0.859,0.859,0.859,0.859,0.859,0.859,0.859,0.859,0.859,0.859,0.859,0.859,0.859,0.859,0.859,0.859,0.859,0.859,0.859,0.859,0.859,0.859,0.859,0.859,0.859,0.859,0.859,0.859,0.859,0.859,0.859,0.859,0.8579,0.8508,0.8372,0.822,0.8149,0.8008,0.7872,0.7872,0.7872,0.7933,0.8183,0.8305,0.8372,0.8244,0.8488,0.8732,0.8732,0.8915,0.9159,0.9159,0.9115,0.9033,0.8894,0.8638,0.8329,0.8194,0.8103,0.7992,0.7881,0.7826,0.7826,0.7709,0.7709,0.782,0.8103,0.8325,0.8378,0.8399,0.8288,0.8151,0.8026,0.7415,0.7042,0.7042,0.6936,0.6836,0.6642,0.6642,0.6587,0.6387,0.6387,0.6387,0.6387,0.6387,0.6387,0.4764,0.4874,0.5054,0.5391,0.0,0.0,0.6295,0.6567,0.6812,0.7046,0.71,0.7193,0.7247,0.0,0.0,0.0,0.0,0.0,0.8448,0.8535,0.859,0.859,0.859,0.859,0.859,0.859,0.859,0.859,0.859,0.859,0.859,0.859,0.859,0.859,0.859,0.859,0.859,0.859,0.859,0.859,0.859,0.859,0.859,0.859,0.859,0.859,0.859,0.859,0.859,0.859,0.859,0.859,0.859,0.859,0.859,0.859,0.8562,0.8524,0.8443,0.8312,0.8166,0.8204,0.8155,0.8055,0.8177,0.8238,0.8238,0.8488,0.861,0.8671,0.8671,0.8854,0.9037,0.9037,0.9214,0.9457,0.9457,0.9457,0.9418,0.9334,0.9007,0.8691,0.8616,0.842,0.8269,0.8152,0.8152,0.8097,0.7992,0.7992,0.8152,0.8484,0.8712,0.8844,0.8791,0.8737,0.8621,0.8425,0.7865,0.7485,0.7341,0.7241,0.7141,0.6942,0.6942,0.6842,0.6637,0.6637,0.6637,0.6637,0.6587,0.6537,0.5196,0.5212,0.5263,0.0,0.0,0.0,0.6545,0.6627,0.6763,0.7185,0.7154,0.71,0.7453,0.0,0.0,0.8015,0.8155,0.8318,0.8552,0.8584,0.859,0.859,0.859,0.859,0.859,0.859,0.859,0.859,0.859,0.859,0.859,0.859,0.859,0.859,0.859,0.859,0.859,0.859,0.859,0.859,0.859,0.859,0.859,0.859,0.859,0.859,0.859,0.859,0.859,0.8584,0.8584,0.8584,0.8584,0.8584,0.8584,0.8584,0.8513,0.8416,0.8416,0.8258,0.8114,0.842,0.8464,0.8494,0.8793,0.8915,0.8915,0.8915,0.9098,0.9275,0.9275,0.9275,0.9275,0.9275,0.9579,0.9822,0.9822,0.9822,0.9781,0.9639,0.949,0.9334,0.9234,0.9035,0.8823,0.854,0.8484,0.8374,0.8042,0.7992,0.8152,0.8484,0.8768,0.8885,0.8885,0.8798,0.871,0.871,0.8438,0.8106,0.7603,0.7341,0.7185,0.7185,0.7185,0.7185,0.7185,0.7185,0.7185,0.7185,0.6942,0.6792,0.4981,0.5139,0.0,0.0,0.0,0.0,0.0,0.7062,0.0,0.0,0.7595,0.7524,0.7627,0.0,0.0,0.7774,0.8046,0.8258,0.8329,0.8481,0.859,0.859,0.859,0.859,0.859,0.859,0.859,0.859,0.859,0.859,0.859,0.859,0.859,0.859,0.859,0.859,0.859,0.859,0.859,0.859,0.859,0.859,0.859,0.859,0.859,0.859,0.859,0.859,0.8584,0.8503,0.847,0.8459,0.8372,0.8339,0.8339,0.8339,0.8318,0.828,0.8193,0.83,0.8409,0.8391,0.8579,0.8793,0.8854,0.8915,0.8915,0.9153,0.9214,0.9335,0.9579,0.964,0.964,0.964,0.97,0.9822,0.9822,0.9822,0.9781,0.9639,0.949,0.9334,0.9234,0.9035,0.8885,0.8768,0.8768,0.8768,0.8657,0.8657,0.8657,0.8768,0.883,0.8885,0.8885,0.8844,0.8825,0.8716,0.8628,0.8413,0.8113,0.7899,0.769,0.7497,0.749,0.7391,0.7185,0.7185,0.7185,0.7185,0.7141,0.7092,0.514,0.0,0.0,0.0,0.0,0.0,0.7285,0.0,0.0,0.0,0.0,0.766,0.7752,0.7693,0.0,0.7818,0.8024,0.8182,0.8161,0.8356,0.8448,0.8448,0.8492,0.8519,0.8519,0.8519,0.8519,0.8519,0.8475,0.8448,0.8448,0.8448,0.8448,0.8448,0.8448,0.8448,0.8448,0.8448,0.8448,0.8448,0.8448,0.8448,0.8448,0.8546,0.859,0.8584,0.8541,0.8492,0.8443,0.8372,0.8345,0.8339,0.8199,0.8172,0.8236,0.8364,0.8395,0.8339,0.8455,0.8522,0.865,0.8757,0.8915,0.9098,0.922,0.9281,0.9275,0.9457,0.9518,0.9518,0.9761,0.9822,0.9822,0.9822,0.9822,0.9822,0.9822,0.9822,0.9781,0.9639,0.949,0.9334,0.9234,0.9035,0.8885,0.8885,0.932,0.9754,1.0249,1.0296,1.0131,0.9644,0.9588,0.943,0.894,0.8885,0.8844,0.8804,0.8743,0.8842,0.9175,0.8496,0.8006,0.7746,0.7746,0.7889,0.8173,0.8173,0.8173,0.8173,0.8031,0.7783,0.552,0.0,0.0,0.0,0.0,0.0,0.0,0.0,0.0,0.0,0.0,0.7616,0.7834,0.7693,0.766,0.8048,0.8108,0.8095,0.8204,0.8161,0.8172,0.8172,0.8334,0.8399,0.8399,0.8399,0.8399,0.8399,0.8296,0.8172,0.8172,0.8172,0.8172,0.8172,0.8172,0.8172,0.8172,0.8172,0.8172,0.8172,0.8172,0.8172,0.8178,0.8459,0.8557,0.8552,0.8448,0.8339,0.8172,0.822,0.822,0.822,0.8209,0.8267,0.8331,0.858,0.8632,0.8596,0.8913,0.8958,0.8976,0.9214,0.9335,0.9396,0.97,0.9822,0.9822,0.9822,0.9822,0.9822,0.9822,0.9822,0.9822,0.9822,0.9822,0.9822,0.9822,0.9822,0.9774,0.9618,0.9476,0.9327,0.9221,0.9133,0.9099,0.921,1.0131,1.1219,1.2254,1.2417,1.1982,1.0945,1.0836,1.0406,0.932,0.921,0.921,0.921,0.9131,0.9524,1.0634,0.9153,0.8252,0.8158,0.8144,0.8627,0.9608,0.9706,0.9756,0.9756,0.9509,0.8874,0.0,0.5798,0.0,0.0,0.0,0.0,0.0,0.0,0.0,0.0,0.0,0.7812,0.7861,0.7828,0.7818,0.796,0.8054,0.8125,0.8089,0.8176,0.8172,0.8172,0.8194,0.8274,0.8274,0.8274,0.8274,0.8274,0.8188,0.8172,0.8172,0.8172,0.8172,0.8172,0.8172,0.8172,0.8172,0.8172,0.8172,0.8172,0.8172,0.8172,0.8172,0.8285,0.8312,0.8312,0.8285,0.8258,0.8161,0.8133,0.8215,0.8455,0.8364,0.8515,0.8755,0.8817,0.886,0.8836,0.8897,0.9062,0.9214,0.9275,0.9457,0.97,0.9761,0.9822,0.9822,0.9822,0.9822,0.9822,0.9822,0.9822,0.9822,0.9822,0.9822,0.9822,0.9822,0.9822,0.9741,0.9483,0.9401,0.93,0.9028,0.9721,1.0625,1.1492,1.1873,1.2146,1.2363,1.2417,1.2309,1.2037,1.2037,1.1928,1.1655,1.1655,1.1655,1.1655,1.162,1.1684,1.1841,0.9561,0.8707,0.9567,0.9383,0.9361,0.9608,1.0435,1.0877,1.0828,1.0779,1.0632,0.0,0.0,0.0,0.0,0.0,0.0,0.0,0.0,0.0,0.0,0.0,0.0,0.7872,0.7872,0.7872,0.7872,0.7988,0.8026,0.8026,0.8019,0.8062,0.8062,0.8111,0.8149,0.8149,0.8149,0.8149,0.8149,0.8095,0.8062,0.8062,0.8062,0.8062,0.8062,0.8062,0.8062,0.8062,0.8062,0.8062,0.8062,0.8062,0.8125,0.8318,0.8245,0.8267,0.8333,0.8333,0.8426,0.8557,0.8493,0.8588,0.87,0.864,0.8732,0.8915,0.9037,0.9098,0.9098,0.9281,0.9396,0.9518,0.9518,0.964,0.9822,0.9822,0.9822,0.9822,0.9822,0.9822,0.9822,0.9822,0.9822,0.9822,0.9822,0.9822,0.9822,0.9822,0.9822,0.9734,0.9442,0.9381,0.9458,0.9702,1.0726,1.1928,1.3068,1.3241,1.3447,1.3986,1.4094,1.3879,1.3349,1.3241,1.3014,1.2472,1.2417,1.2417,1.2417,1.2417,1.2641,1.3123,1.1221,1.0355,1.0777,1.063,1.0731,1.1072,1.1658,1.1901,1.1901,1.1901,1.1658,0.0,0.0,0.0,0.0,0.0,0.0,0.0,0.0,0.0,0.0,0.0,0.0,0.7872,0.7872,0.7872,0.7872,0.7872,0.7872,0.7872,0.7872,0.7872,0.7872,0.8021,0.8086,0.8086,0.8086,0.8086,0.8086,0.7988,0.7872,0.7872,0.7872,0.7872,0.7872,0.7872,0.7872,0.7872,0.7872,0.7933,0.7994,0.8055,0.8238,0.85,0.8398,0.8431,0.8578,0.8578,0.8705,0.8915,0.8915,0.8915,0.8976,0.8976,0.8976,0.9098,0.9275,0.9396,0.9396,0.97,0.9822,0.9822,0.9822,0.9822,0.9822,0.9822,0.9822,0.9822,0.9822,0.9822,0.9822,0.9822,0.9822,0.9822,0.9822,0.9943,1.0065,0.9822,0.9822,0.9734,0.9442,0.9514,0.9959,1.1105,1.2091,1.3122,1.4331,1.4493,1.4815,1.5779,1.5885,1.5512,1.46,1.4493,1.4105,1.3068,1.3014,1.3014,1.3014,1.3014,1.3447,1.4439,1.3422,1.2653,1.2304,1.2013,1.2123,1.2678,1.2872,1.2969,1.2969,1.2969,1.2533,0.0,0.0,0.0,0.0,0.0,0.0,0.0,0.0,0.0,0.0,0.0,0.0,0.7872,0.7872,0.7872,0.7872,0.7872,0.7872,0.7872,0.7872,0.7872,0.7872,0.7944,0.7955,0.7955,0.7955,0.7955,0.7955,0.7883,0.7872,0.7872,0.7872,0.7872,0.7872,0.7872,0.7872,0.7872,0.7872,0.8055,0.8305,0.861,0.8793,0.8854,0.883,0.8836,0.8818,0.8818,0.8873,0.8915,0.8915,0.9037,0.9275,0.9275,0.9396,0.97,0.97,0.9761,0.9761,0.9761,0.9822,0.9822,0.9822,0.9822,0.9822,0.9822,0.9822,0.9822,0.9822,0.9822,0.9822,0.9822,0.9822,0.9822,0.9822,1.0664,1.1148,1.0065,0.9822,0.9734,0.9442,1.0006,1.1224,1.3359,1.3835,1.432,1.5512,1.5672,1.5725,1.5885,1.5885,1.5832,1.5672,1.5672,1.5618,1.5458,1.5458,1.5458,1.5458,1.5458,1.5512,1.5672,1.5476,1.5258,1.4977,1.3601,1.2816,1.2678,1.3607,1.41,1.41,1.41,1.4004,0.0,0.0,0.0,0.0,0.0,0.0,0.0,0.0,0.0,0.0,0.0,0.0,0.7823,0.8016,0.8183,0.8183,0.8366,0.8482,0.8482,0.8482,0.8366,0.8183,0.8183,0.8122,0.7933,0.7872,0.7872,0.7872,0.7872,0.7872,0.7872,0.7872,0.7872,0.7872,0.7872,0.7872,0.7872,0.7872,0.8055,0.8433,0.8915,0.9092,0.9153,0.9342,0.9275,0.9092,0.9092,0.9214,0.9396,0.9396,0.9457,0.9579,0.9579,0.964,0.9822,0.9822,0.9822,0.9822,0.9822,0.9822,0.9822,0.9822,0.9822,0.9822,0.9822,1.0308,1.0846,1.0846,1.0846,1.0846,1.0846,1.0846,1.0846,1.0846,1.1864,1.2646,1.2105,1.1985,1.1877,1.1512,1.2089,1.297,1.4008,1.4708,1.5298,1.5832,1.5885,1.5885,1.5885,1.5885,1.5885,1.5885,1.5885,1.5885,1.5885,1.5885,1.5885,1.5885,1.5885,1.5885,1.5885,1.5885,1.5765,1.5511,1.4655,1.409,1.3837,1.4123,1.4292,1.4292,1.4292,1.4292,0.0,0.0,0.0,0.0,0.0,0.0,0.0,0.0,0.0,0.0,0.0,0.0,0.7889,0.815,0.8441,0.8441,0.8714,0.8915,0.8915,0.8915,0.8793,0.8549,0.8549,0.8427,0.8177,0.8055,0.8055,0.8055,0.7933,0.7872,0.7872,0.7872,0.7872,0.7872,0.7994,0.8055,0.8055,0.8177,0.836,0.861,0.9153,0.9457,0.9457,0.97,0.964,0.9457,0.9457,0.9579,0.9822,0.9822,0.9822,0.9822,0.9822,0.9822,0.9822,0.9822,0.9822,0.9822,0.9822,0.9822,0.9883,1.0186,1.0301,1.0361,1.0664,1.1442,1.2234,1.2234,1.2234,1.2234,1.2234,1.2234,1.2234,1.2234,1.3246,1.4083,1.3784,1.358,1.3527,1.3499,1.3875,1.4277,1.46,1.5351,1.5885,1.5885,1.5885,1.5885,1.5885,1.5885,1.5885,1.5885,1.5885,1.5885,1.5885,1.5885,1.5885,1.5885,1.5885,1.5885,1.5885,1.5885,1.5801,1.5608,1.527,1.498,1.4714,1.4437,1.4292,1.4292,1.4292,1.4292,0.0,0.0,0.0,0.0,0.0,0.0,0.0,0.0,0.0,0.0,0.0,0.0,0.0,0.8423,0.8599,0.8599,0.8769,0.8915,0.8915,0.8915,0.8915,0.8854,0.8854,0.8854,0.8854,0.8549,0.8372,0.8372,0.8055,0.7872,0.7872,0.7872,0.7872,0.7872,0.8183,0.8372,0.8372,0.8909,0.9214,0.9275,0.9579,0.9761,0.9761,0.9822,0.9761,0.9761,0.9761,0.9761,0.9822,0.9822,0.9822,0.9822,0.9822,0.9822,0.9822,0.9822,0.9822,0.9822,0.9822,0.9822,1.0004,1.1209,1.1571,1.1812,1.3126,1.3545,1.3605,1.3605,1.3605,1.3605,1.3605,1.3605,1.3605,1.3605,1.456,1.5154,1.3963,1.3353,1.3345,1.4509,1.4427,1.4546,1.5618,1.5832,1.5885,1.5885,1.5885,1.5885,1.5885,1.5885,1.5885,1.5885,1.5885,1.5885,1.5885,1.5885,1.5885,1.5885,1.5885,1.5885,1.5885,1.5885,1.5885,1.5873,1.5366,1.498,1.4714,1.4437,1.4292,1.4292,1.4292,1.4292,0.0,0.0,0.0,0.0,0.0,0.0,0.0,0.0,0.0,0.0,0.0,0.0,0.0,0.8743,0.8818,0.8818,0.9032,0.9248,0.9248,0.9248,0.9163,0.9067,0.902,0.8998,0.8909,0.8654,0.854,0.854,0.8343,0.8242,0.8242,0.8242,0.8242,0.8242,0.8361,0.842,0.842,0.8916,0.92,0.92,0.9593,0.9822,0.9822,0.9822,0.9822,0.9822,0.9822,0.9822,0.9822,0.9822,0.9822,0.9822,0.9822,0.9822,0.9822,0.9822,1.0301,1.1027,1.1027,1.1563,1.2406,1.2826,1.3006,1.3066,1.3545,1.4262,1.4917,1.4917,1.4917,1.4917,1.4917,1.4917,1.5154,1.5935,1.6467,1.6703,1.6231,1.5723,1.549,1.5952,1.5646,1.5405,1.5832,1.5885,1.5885,1.5885,1.5885,1.5885,1.5885,1.5885,1.5885,1.5885,1.5885,1.5885,1.5885,1.5885,1.5885,1.5885,1.5885,1.5885,1.5885,1.5885,1.5885,1.5885,1.5535,1.5234,1.4968,1.4521,1.4292,1.4292,1.4292,1.4292,0.5023,0.0,0.0,0.0,0.0,0.0,0.0,0.0,0.0,0.0,0.0,0.0,0.0,0.0,0.885,0.9005,0.9231,0.9381,0.9381,0.9381,0.9357,0.9216,0.9229,0.915,0.9067,0.8872,0.8698,0.8698,0.8506,0.8399,0.8399,0.8399,0.8457,0.8574,0.8574,0.8632,0.8742,0.9065,0.9229,0.9229,0.9506,0.9673,0.9673,0.9727,0.9747,0.9754,0.9802,0.9822,0.9822,0.9822,0.9822,0.9822,1.024,1.0422,1.0482,1.0967,1.1623,1.2346,1.2346,1.2946,1.3784,1.4202,1.4321,1.4441,1.4857,1.5569,1.6231,1.6231,1.6231,1.6231,1.6231,1.6231,1.6467,1.7303,1.7479,1.7455,1.737,1.7008,1.6706,1.6706,1.626,1.5885,1.5885,1.5885,1.5885,1.5885,1.5885,1.5885,1.5885,1.5885,1.5885,1.5885,1.5885,1.5885,1.5885,1.5885,1.5885,1.5885,1.5885,1.5885,1.5885,1.5885,1.5885,1.5885,1.5632,1.5366,1.5113,1.4654,1.4389,1.4292,1.4292,1.4292,0.0,0.0,0.0,0.0,0.0,0.0,0.0,0.0,0.0,0.0,0.0,0.0,0.0,0.0,0.0,0.9139,0.9323,0.9367,0.9367,0.9367,0.9367,0.9374,0.9374,0.9374,0.9381,0.9091,0.891,0.891,0.8619,0.8387,0.8387,0.8387,0.8561,0.891,0.8904,0.9078,0.9367,0.9374,0.9374,0.9374,0.9381,0.9381,0.9388,0.9537,0.9605,0.9612,0.9754,0.9815,0.9815,0.9822,0.9822,1.0004,1.1209,1.1692,1.1933,1.3246,1.3725,1.3784,1.3784,1.3784,1.4023,1.5273,1.5628,1.5865,1.7126,1.7479,1.7479,1.7479,1.7479,1.7479,1.7479,1.7479,1.7479,1.7479,1.7479,1.7406,1.7153,1.6887,1.6694,1.6694,1.626,1.5885,1.5885,1.5885,1.5885,1.5885,1.5885,1.5885,1.5885,1.5885,1.5885,1.5885,1.5885,1.5885,1.5885,1.5885,1.5885,1.5885,1.5885,1.5885,1.5885,1.5885,1.5885,1.5885,1.5644,1.5378,1.5113,1.4847,1.457,1.4292,1.4292,1.4292,0.4667,0.0,0.0,0.0,0.0,0.0,0.0,0.0,0.0,0.0,0.0,0.0,0.0,0.0,0.0,0.0,0.8886,0.9062,0.9062,0.9062,0.9103,0.9262,0.9275,0.9316,0.9367,0.9222,0.9104,0.0,0.8897,0.8782,0.8782,0.8782,0.8782,0.8894,0.8894,0.895,0.9062,0.9164,0.9275,0.9275,0.9327,0.9381,0.9381,0.9422,0.9442,0.9456,0.9605,0.9666,0.968,0.9781,1.0368,1.1209,1.1571,1.2286,1.3186,1.3545,1.4262,1.5095,1.5095,1.5688,1.6526,1.6879,1.695,1.7067,1.7361,1.7479,1.7479,1.7479,1.7479,1.7479,1.7479,1.7479,1.7479,1.7479,1.7479,1.7406,1.7153,1.6887,1.6634,1.6441,1.6127,1.5885,1.5885,1.5885,1.5885,1.5885,1.5885,1.5885,1.5885,1.5885,1.5885,1.5885,1.5885,1.5885,1.5885,1.5885,1.5885,1.5885,1.5885,1.5885,1.5885,1.5885,1.5885,1.5885,1.5813,1.5656,1.539,1.4944,1.457,1.4292,1.4292,1.4292,0.4952,0.5033,0.0,0.0,0.0,0.0,0.0,0.6173,0.0,0.0,0.0,0.0,0.0,0.0,0.0,0.0,0.8554,0.8771,0.8832,0.8845,0.8899,0.9049,0.9062,0.9096,0.9191,0.9117,0.9062,0.9062,0.8988,0.8885,0.8885,0.8885,0.8885,0.8885,0.8885,0.8885,0.8885,0.9022,0.9062,0.9062,0.915,0.9198,0.9198,0.9259,0.9344,0.935,0.9967,1.031,1.0436,1.1002,1.1439,1.1812,1.2886,1.3784,1.456,1.5095,1.5747,1.6408,1.6408,1.6879,1.7479,1.7479,1.7479,1.7479,1.7479,1.7479,1.7479,1.7479,1.7479,1.7479,1.7479,1.7479,1.7455,1.7346,1.7322,1.7213,1.6839,1.6634,1.6477,1.6308,1.6066,1.5885,1.5885,1.5885,1.5885,1.5885,1.5885,1.5885,1.5885,1.5885,1.5885,1.5885,1.5885,1.5885,1.5885,1.5885,1.5885,1.5885,1.5885,1.5885,1.5885,1.5885,1.5885,1.5885,1.5885,1.5765,1.5499,1.5077,1.4678,1.4292,1.4292,1.4292,0.5465,0.5535,0.5739,0.0,0.0,0.0,0.6315,0.6234,0.6101,0.0,0.0,0.0,0.0,0.0,0.0,0.0,0.0,0.8459,0.8655,0.8682,0.8737,0.8817,0.8831,0.8831,0.8831,0.8851,0.8858,0.8858,0.8871,0.894,0.9099,0.9099,0.9099,0.9099,0.9099,0.9044,0.8885,0.8885,0.8885,0.8885,0.9044,0.9044,0.894,0.9349,0.9462,0.9412,1.0711,1.1388,1.1712,1.2965,1.2926,1.2346,1.4679,1.5688,1.5935,1.7067,1.7479,1.7479,1.7479,1.7479,1.7479,1.7479,1.7479,1.7479,1.7479,1.7479,1.7479,1.7479,1.7479,1.7479,1.7443,1.7443,1.737,1.7117,1.7044,1.6911,1.6392,1.6284,1.6272,1.6235,1.6054,1.5885,1.5885,1.5885,1.5885,1.5885,1.5885,1.5885,1.5885,1.5885,1.5885,1.5885,1.5885,1.5885,1.5885,1.5885,1.5885,1.5885,1.5885,1.5885,1.5885,1.5885,1.5885,1.5885,1.5885,1.5765,1.5499,1.5209,1.4811,1.434,1.4316,1.4292,0.6978,0.673,0.0,0.0,0.0,0.0,0.5386,0.5481,0.5739,0.0,0.0,0.0,0.0,0.0,0.0,0.0,0.0,0.795,0.8459,0.8526,0.854,0.8567,0.8574,0.8574,0.8574,0.8682,0.8757,0.8757,0.8811,0.932,1.0296,1.0351,1.0351,1.0351,1.0351,0.9864,0.8885,0.8885,0.8885,0.894,0.9864,0.9864,0.894,1.0877,1.127,1.0461,1.1754,1.2365,1.2476,1.3895,1.4613,1.4917,1.5391,1.6231,1.7185,1.742,1.7479,1.7479,1.7479,1.7479,1.7479,1.7479,1.7479,1.7479,1.7479,1.7479,1.7479,1.7479,1.7479,1.743,1.7225,1.7165,1.7105,1.6839,1.6779,1.6682,1.6356,1.6284,1.6223,1.6006,1.5922,1.5885,1.5885,1.5885,1.5885,1.5885,1.5885,1.5885,1.5885,1.5885,1.5885,1.5885,1.5885,1.5885,1.5885,1.5885,1.5885,1.5885,1.5885,1.5885,1.5885,1.5885,1.5885,1.5885,1.5885,1.5765,1.5499,1.5028,1.4739,1.463,1.4401,1.4292,0.8317,0.0,0.0,0.7769,0.0,0.0,0.0,0.602,0.5718,0.6159,0.0,0.0,0.0,0.0,0.0,0.0,0.0,0.0,0.778,0.814,0.8404,0.8472,0.8479,0.8479,0.8479,0.8554,0.8594,0.8594,0.9144,0.9808,1.0542,1.1082,1.1179,1.0726,1.0726,1.0398,0.9809,0.9809,1.0076,1.0625,1.1273,1.1219,1.068,1.1873,1.2091,1.1601,1.2859,1.3472,1.3684,1.5033,1.5818,1.6172,1.6297,1.6751,1.7298,1.743,1.7479,1.7467,1.7334,1.7286,1.7274,1.7129,1.7092,1.7092,1.7092,1.7092,1.7092,1.7092,1.7092,1.7068,1.6936,1.6899,1.6827,1.6549,1.6489,1.6416,1.6139,1.6091,1.6042,1.5922,1.5885,1.5885,1.5885,1.5885,1.5885,1.5885,1.5885,1.5885,1.5885,1.5885,1.5885,1.5885,1.5885,1.5885,1.5885,1.5885,1.5885,1.5885,1.5885,1.5885,1.5885,1.5885,1.5885,1.5885,1.5885,1.5825,1.5692,1.5306,1.4968,1.4714,1.457,1.4437,0.0,0.0,0.0,0.0,0.0,0.8039,0.0,0.0,0.0,0.6856,0.0,0.0,0.0,0.0,0.0,0.0,0.0,0.0,0.0,0.0,0.0,0.8208,0.8275,0.8309,0.8309,0.8463,0.8512,0.8525,0.953,1.0354,1.0718,1.1769,1.2021,1.1322,1.1365,1.1273,1.1055,1.1055,1.1492,1.2417,1.2635,1.2635,1.2417,1.2852,1.296,1.2797,1.3997,1.4657,1.4943,1.5818,1.6344,1.6573,1.6887,1.702,1.7044,1.7249,1.7334,1.7298,1.7092,1.702,1.6984,1.6767,1.6706,1.6706,1.6706,1.6706,1.6706,1.6706,1.6706,1.6682,1.6634,1.6622,1.6549,1.6272,1.6211,1.6151,1.5934,1.5885,1.5885,1.5885,1.5885,1.5885,1.5885,1.5885,1.5885,1.5885,1.5885,1.5885,1.5885,1.5885,1.5885,1.5885,1.5885,1.5885,1.5885,1.5885,1.5885,1.5885,1.5885,1.5885,1.5885,1.5885,1.5885,1.5885,1.5885,1.5885,1.5885,1.568,1.533,1.4859,1.4763,1.4594,0.0,0.0,0.0,0.0,1.0048,0.0,0.0,0.0,0.8418,0.7929,0.0,0.0,0.0,0.0,0.0,0.0,0.0,0.0,0.0,0.0,0.0,0.7233,0.7536,0.7699,0.7699,0.8262,0.8537,0.849,0.9655,1.0735,1.1596,1.2892,1.3541,1.3456,1.3676,1.3295,1.22,1.22,1.2254,1.2417,1.3457,1.3457,1.2472,1.4535,1.4965,1.4062,1.519,1.5749,1.5773,1.588,1.5946,1.603,1.6549,1.6742,1.6754,1.6779,1.6791,1.6791,1.6754,1.6742,1.6742,1.6706,1.6706,1.6706,1.6706,1.6706,1.6706,1.6706,1.6706,1.6646,1.6392,1.6332,1.626,1.5994,1.5934,1.5922,1.5897,1.5885,1.5885,1.5885,1.5885,1.5885,1.5885,1.5885,1.5885,1.5885,1.5885,1.5885,1.5885,1.5885,1.5885,1.5885,1.5885,1.5885,1.5885,1.5885,1.5885,1.5885,1.5885,1.5885,1.5885,1.5885,1.5885,1.5885,1.5885,1.5885,1.5885,1.5861,1.5692,1.5403,1.4932,1.4702,0.0,0.0,0.0,0.0,0.0,0.0,0.9233,0.0,0.8647,0.0,0.0,0.0,0.0,0.0,0.0,0.0,0.7434,0.0,0.0,0.0,0.0,0.0,0.0,0.0,0.8035,0.8275,0.8475,0.8754,1.0209,1.1159,1.1506,1.3315,1.414,1.3782,1.389,1.3805,1.3457,1.3457,1.3781,1.4428,1.4911,1.4911,1.4482,1.5458,1.5618,1.519,1.5672,1.5885,1.5885,1.5885,1.5885,1.591,1.6139,1.632,1.6477,1.6634,1.6706,1.6682,1.6525,1.6465,1.6429,1.6284,1.6235,1.6235,1.6235,1.6235,1.6235,1.6235,1.6235,1.6199,1.6091,1.6054,1.603,1.5922,1.5885,1.5885,1.5885,1.5885,1.5885,1.5885,1.5885,1.5885,1.5885,1.5885,1.5885,1.5885,1.5885,1.5885,1.5885,1.5885,1.5885,1.5885,1.5885,1.5885,1.5885,1.5885,1.5885,1.5885,1.5885,1.5885,1.5885,1.5885,1.5885,1.5885,1.5885,1.5885,1.5885,1.5885,1.5837,1.5716,1.5342,1.5004,1.3402,0.0,0.0,0.0,0.0,0.0,0.0,0.0,0.0,0.0,0.0,0.0,0.0,0.0,0.0,0.8583,0.0,0.7708,0.0,0.0,0.0,0.0,0.0,0.0,0.0,0.8193,0.8346,0.8847,1.049,1.1515,1.1578,1.3513,1.4401,1.4064,1.4197,1.4364,1.4554,1.462,1.5083,1.5885,1.5885,1.5885,1.5885,1.5885,1.5885,1.5885,1.5885,1.5885,1.5885,1.5885,1.5885,1.5885,1.5885,1.6006,1.6199,1.6404,1.6477,1.6453,1.626,1.6187,1.6139,1.5946,1.5885,1.5885,1.5885,1.5885,1.5885,1.5885,1.5885,1.5885,1.5885,1.5885,1.5885,1.5885,1.5885,1.5885,1.5885,1.5885,1.5885,1.5885,1.5885,1.5885,1.5885,1.5885,1.5885,1.5885,1.5885,1.5885,1.5885,1.5885,1.5885,1.5885,1.5885,1.5885,1.5885,1.5885,1.5885,1.5885,1.5885,1.5885,1.5885,1.5885,1.5885,1.5885,1.5885,1.5885,1.5885,1.5885,1.5885,1.5885,1.562,1.5258,0.0,0.0,0.0,1.3065,0.0,0.0,0.0,0.0,1.1738,0.0,0.0,0.0,0.0,1.1555,1.1006,0.9845,0.9514,0.0,0.0,0.0,0.0,0.0,0.0,0.0,0.0,0.7876,0.8234,0.0,1.0376,1.1716,1.2224,1.3588,1.4449,1.4677,1.5182,1.5447,1.5459,1.5712,1.5832,1.5885,1.5885,1.5885,1.5885,1.5885,1.5885,1.5885,1.5885,1.5885,1.5885,1.5885,1.5885,1.5885,1.5885,1.5897,1.5897,1.591,1.5922,1.591,1.591,1.5897,1.5897,1.5897,1.5885,1.5885,1.5885,1.5885,1.5885,1.5885,1.5885,1.5885,1.5885,1.5885,1.5885,1.5885,1.5885,1.5885,1.5885,1.5885,1.5885,1.5885,1.5885,1.5885,1.5885,1.5885,1.5885,1.5885,1.5885,1.5885,1.5885,1.5885,1.5885,1.5885,1.5885,1.5885,1.5885,1.5885,1.5885,1.5885,1.5885,1.5885,1.5885,1.5885,1.5885,1.5885,1.5885,1.5885,1.5885,1.5885,1.5885,1.5885,1.562,1.5354,1.4597,1.4895,1.4963,1.3147,1.3028,1.2897,0.0,0.0,0.0,0.0,0.0,0.0,0.0,1.167,1.1292,1.0699,0.9927,0.918,0.0,0.0,0.0,0.0,0.0,0.0,0.0,0.0,0.0,0.9494,1.0757,1.1694,1.2116,1.3368,1.4244,1.4702,1.4896,1.5149,1.5499,1.5584,1.5716,1.5885,1.5885,1.5885,1.5885,1.5885,1.5885,1.5885,1.5885,1.5885,1.5885,1.5885,1.5885,1.5885,1.5885,1.5885,1.5885,1.5885,1.5885,1.5885,1.5885,1.5885,1.5885,1.5885,1.5885,1.5885,1.5885,1.5885,1.5885,1.5885,1.5885,1.5885,1.5885,1.5885,1.5885,1.5885,1.5885,1.5885,1.5885,1.5885,1.5885,1.5885,1.5885,1.5885,1.5885,1.5885,1.5885,1.5885,1.5885,1.5885,1.5885,1.5885,1.5885,1.5885,1.5885,1.5885,1.5885,1.5885,1.5885,1.5885,1.5885,1.5885,1.5885,1.5885,1.5885,1.5885,1.5885,1.5885,1.5885,1.5885,1.5885,1.5885,1.5801,1.562,1.5487,1.5511,1.5275,1.3678,1.3532,1.3371,1.1763,1.2092,1.2614,0.0,0.0,0.0,0.0,1.218,1.1685,1.1285,1.0415,0.9605,0.0,0.8674,0.0,0.0,0.0,0.0,0.0,0.0,0.9034,1.0029,1.0793,0.0,0.0,1.3237,1.3966,1.4413,1.4618,1.4883,1.5221,1.5403,1.5584,1.5753,1.5849,1.5885,1.5885,1.5885,1.5885,1.5885,1.5885,1.5885,1.5885,1.5885,1.5885,1.5885,1.5885,1.5885,1.5885,1.5885,1.5885,1.5885,1.5885,1.5885,1.5885,1.5885,1.5885,1.5885,1.5885,1.5885,1.5885,1.5885,1.5885,1.5885,1.5885,1.5885,1.5885,1.5885,1.5885,1.5885,1.5885,1.5885,1.5885,1.5885,1.5885,1.5885,1.5885,1.5885,1.5885,1.5885,1.5885,1.5885,1.5885,1.5885,1.5885,1.5885,1.5885,1.5885,1.5885,1.5885,1.5885,1.5885,1.5885,1.5885,1.5885,1.5885,1.5885,1.5885,1.5885,1.5885,1.5885,1.5885,1.5885,1.5885,1.5885,1.5801]}]]